[[{"header":{"parameterUnit":"m.s-1","parameterCategory":1,"la1":30.6,"la2":29.2853,"lo1":-89.7004,"lo2":-87.6739,"dy":0.0162,"dx":0.0183,"nx":112,"ny":82,"refTime":"2023-10-20T06:00:00:Z","depth":0,"parameterNumber":2,"parameterNumberName":"U-component_of_WINDS"},"data":[0.0,0.0,0.0,0.0,0.0,0.0,0.0,0.0,0.0,0.0,0.0,0.0,0.0,0.0,0.0,0.0,0.0,0.0,0.0,0.0,0.0,0.0,0.0,0.0,0.0,0.0,0.0,0.0,0.0,0.0,0.0,0.0,0.0,0.0,0.0,0.0,0.0,0.0,0.0,0.0,0.0,0.0,0.0,0.0,0.0,0.0,0.0,0.0,0.0,0.0,0.0,0.0,0.0,0.0,0.0,0.0,0.0,0.0,0.0,0.0,0.0,0.0,0.0,0.0,0.0,0.0,0.0,0.0,0.0,0.0,0.0,0.0,0.0,0.0,0.0,0.0,0.0,0.0,0.0,0.0,0.0,0.0,0.0,0.0,0.0,0.0,0.0,0.0,0.0,0.0,0.63,0.63,0.63,0.63,0.63,0.63,0.63,0.63,0.0,0.0,0.0,0.0,0.0,0.0,0.0,0.0,0.0,0.0,0.0,0.0,0.0,0.0,0.0,0.0,0.0,0.0,0.0,0.0,0.0,0.0,0.0,0.0,0.0,0.0,0.0,0.0,0.0,0.0,0.0,0.0,0.0,0.0,0.0,0.0,0.0,0.0,0.0,0.0,0.0,0.0,0.0,0.0,0.0,0.0,0.0,0.0,0.0,0.0,0.0,0.0,0.0,0.0,0.0,0.0,0.0,0.0,0.0,0.0,0.0,0.0,0.0,0.0,0.0,0.0,0.0,0.0,0.0,0.0,0.0,0.0,0.0,0.0,0.0,0.0,0.0,0.0,0.0,0.0,0.0,0.0,0.0,0.0,0.0,0.0,0.0,0.0,0.0,0.0,0.0,0.0,0.0,0.0,0.0,0.0,0.0,0.0,0.0,0.0,0.0,0.0,0.0,0.0,0.63,0.63,0.63,0.63,0.63,0.63,0.63,0.63,0.0,0.0,0.0,0.0,0.0,0.0,0.0,0.0,0.0,0.0,0.0,0.0,0.0,0.0,0.0,0.0,0.0,0.0,0.0,0.0,0.0,0.0,0.0,0.0,0.0,0.0,0.0,0.0,0.0,0.0,0.0,0.0,0.0,0.0,0.0,0.0,0.0,0.0,0.0,0.0,0.0,0.0,0.0,0.0,0.0,0.0,0.0,0.0,0.0,0.0,0.0,0.0,0.0,0.0,0.0,0.0,0.0,0.0,0.0,0.0,0.0,0.0,0.0,0.0,0.0,0.0,0.0,0.0,0.0,0.0,0.0,0.0,0.0,0.0,0.0,0.0,0.0,0.0,0.0,0.0,0.0,0.0,0.0,0.0,0.0,0.0,0.0,0.0,0.0,0.0,0.0,0.0,0.0,0.0,0.0,0.0,0.0,0.0,0.0,0.0,0.0,0.0,0.0,0.63,0.63,0.63,0.63,0.63,0.63,0.63,0.63,0.63,0.6371,0.0,0.0,0.0,0.0,0.0,0.0,0.0,0.0,0.0,0.0,0.0,0.0,0.0,0.0,0.0,0.0,0.0,0.0,0.0,0.0,0.0,0.0,0.0,0.0,0.0,0.0,0.0,0.0,0.0,0.0,0.0,0.0,0.0,0.0,0.0,0.0,0.0,0.0,0.0,0.0,0.0,0.0,0.0,0.0,0.0,0.0,0.0,0.0,0.0,0.0,0.0,0.0,0.0,0.0,0.0,0.0,0.0,0.0,0.0,0.0,0.0,0.0,0.0,0.0,0.0,0.0,0.0,0.0,0.0,0.0,0.0,0.0,0.0,0.0,0.0,0.0,0.0,0.0,0.0,0.0,0.0,0.0,0.0,0.0,0.0,0.0,0.0,0.0,0.0,0.0,0.0,0.0,0.0,0.0,0.0,0.0,0.0,0.0,0.0,0.0,0.0,0.0,0.633,0.6351,0.6351,0.6381,0.6386,0.6386,0.6386,0.6386,0.6386,0.6488,0.0,0.0,0.0,0.0,0.0,0.0,0.0,0.0,0.0,0.0,0.0,0.0,0.0,0.0,0.0,0.0,0.0,0.0,0.0,0.0,0.0,0.0,0.0,0.0,0.0,0.0,0.0,0.0,0.0,0.0,0.0,0.0,0.0,0.0,0.0,0.0,0.0,0.0,0.0,0.0,0.0,0.0,0.0,0.0,0.0,0.0,0.0,0.0,0.0,0.0,0.0,0.0,0.0,0.0,0.0,0.0,0.0,0.0,0.0,0.0,0.0,0.0,0.0,0.0,0.0,0.0,0.0,0.0,0.0,0.0,0.0,0.0,0.0,0.0,0.0,0.0,0.0,0.0,0.0,0.0,0.0,0.0,0.0,0.0,0.0,0.0,0.0,0.0,0.0,0.0,0.0,0.0,0.0,0.0,0.0,0.0,0.0,0.0,0.0,0.0,0.0,0.0,0.6416,0.6477,0.6477,0.6603,0.6668,0.6668,0.6668,0.6668,0.6668,0.6678,0.0,0.0,0.0,0.0,0.0,0.0,0.0,0.0,0.0,0.0,0.0,0.0,0.0,0.0,0.0,0.0,0.0,0.0,0.0,0.0,0.0,0.0,0.0,0.0,0.0,0.0,0.0,0.0,0.0,0.0,0.0,0.0,0.0,0.0,0.0,0.0,0.0,0.0,0.0,0.0,0.0,0.0,0.0,0.0,0.0,0.0,0.0,0.0,0.0,0.0,0.0,0.0,0.0,0.0,0.0,0.0,0.0,0.0,0.0,0.0,0.0,0.0,0.0,0.0,0.0,0.0,0.0,0.0,0.0,0.0,0.0,0.0,0.0,0.0,0.0,0.0,0.0,0.0,0.0,0.0,0.0,0.0,0.0,0.0,0.0,0.0,0.0,0.0,0.0,0.0,0.0,0.0,0.0,0.0,0.0,0.0,0.0,0.0,0.0,0.0,0.0,0.0,0.66,0.6634,0.6634,0.6664,0.6702,0.6702,0.6702,0.6702,0.6702,0.0,0.0,0.0,0.0,0.0,0.0,0.0,0.0,0.0,0.0,0.0,0.0,0.0,0.0,0.0,0.0,0.0,0.0,0.0,0.0,0.0,0.0,0.0,0.0,0.0,0.0,0.0,0.0,0.0,0.0,0.0,0.0,0.0,0.0,0.0,0.0,0.0,0.0,0.0,0.0,0.0,0.0,0.0,0.0,0.0,0.0,0.0,0.0,0.0,0.0,0.0,0.0,0.0,0.0,0.0,0.0,0.0,0.0,0.0,0.0,0.0,0.0,0.0,0.0,0.0,0.0,0.0,0.0,0.0,0.0,0.0,0.0,0.0,0.0,0.0,0.0,0.0,0.0,0.0,0.0,0.0,0.0,0.0,0.0,0.0,0.0,0.0,0.0,0.0,0.0,0.0,0.0,0.0,0.0,0.0,0.0,0.0,0.0,0.0,0.0,0.0,0.0,0.6702,0.6742,0.6773,0.6773,0.6793,0.682,0.682,0.682,0.682,0.682,0.0,0.0,0.0,0.0,0.0,0.0,0.0,0.0,0.0,0.0,0.0,0.0,0.0,0.0,0.0,0.0,0.0,0.0,0.0,0.0,0.0,0.0,0.0,0.0,0.0,0.0,0.0,0.0,0.0,0.0,0.0,0.0,0.0,0.0,0.0,0.0,0.0,0.0,0.0,0.0,0.0,0.0,0.0,0.0,0.0,0.0,0.0,0.0,0.0,0.0,0.0,0.0,0.0,0.0,0.0,0.0,0.0,0.0,0.0,0.0,0.0,0.0,0.0,0.0,0.0,0.0,0.0,0.0,0.0,0.0,0.0,0.0,0.0,0.0,0.0,0.0,0.0,0.0,0.0,0.0,0.0,0.0,0.0,0.0,0.0,0.0,0.0,0.0,0.0,0.0,0.0,0.0,0.0,0.0,0.0,0.0,0.0,0.0,0.0,0.0,0.0,0.0,0.6705,0.6816,0.6908,0.6908,0.7014,0.7095,0.7095,0.7095,0.7095,0.0,0.0,0.0,0.0,0.0,0.0,0.0,0.0,0.0,0.0,0.0,0.0,0.0,0.0,0.0,0.0,0.0,0.0,0.0,0.0,0.0,0.0,0.0,0.0,0.0,0.0,0.0,0.0,0.0,0.0,0.0,0.0,0.0,0.0,0.0,0.0,0.0,0.0,0.0,0.0,0.0,0.0,0.0,0.0,0.0,0.0,0.0,0.0,0.0,0.0,0.0,0.0,0.0,0.0,0.0,0.0,0.0,0.0,0.0,0.0,0.0,0.0,0.0,0.0,0.0,0.0,0.0,0.0,0.0,0.0,0.0,0.0,0.0,0.0,0.0,0.0,0.0,0.0,0.0,0.0,0.0,0.0,0.0,0.0,0.0,0.0,0.0,0.0,0.0,0.0,0.0,0.0,0.0,0.0,0.0,0.0,0.0,0.0,0.0,0.0,0.0,0.0,0.0,0.6989,0.7007,0.7034,0.7034,0.7071,0.7095,0.7095,0.7095,0.7095,0.7095,0.0,0.0,0.0,0.0,0.0,0.0,0.0,0.0,0.0,0.0,0.0,0.0,0.0,0.0,0.0,0.0,0.0,0.0,0.0,0.0,0.0,0.0,0.0,0.0,0.0,0.0,0.0,0.0,0.0,0.0,0.0,0.0,0.0,0.0,0.0,0.0,0.0,0.0,0.0,0.0,0.0,0.0,0.0,0.0,0.0,0.0,0.0,0.0,0.0,0.0,0.0,0.0,0.0,0.0,0.0,0.0,0.0,0.0,0.0,0.0,0.0,0.0,0.0,0.0,0.0,0.0,0.0,0.0,0.0,0.0,0.0,0.0,0.0,0.0,0.0,0.0,0.0,0.0,0.0,0.0,0.0,0.0,0.0,0.0,0.0,0.0,0.0,0.0,0.0,0.0,0.0,0.0,0.0,0.0,0.0,0.0,0.0,0.0,0.0,0.0,0.0,0.0,0.7095,0.7095,0.7095,0.7095,0.7095,0.7095,0.7095,0.7095,0.7095,0.7095,0.0,0.0,0.0,0.0,0.0,0.0,0.0,0.0,0.0,0.0,0.0,0.0,0.0,0.0,0.0,0.0,0.0,0.0,0.0,0.0,0.0,0.0,0.0,0.0,0.0,0.0,0.0,0.0,0.0,0.0,0.0,0.0,0.0,0.0,0.0,0.0,0.0,0.0,0.0,0.0,0.0,0.0,0.0,0.0,0.0,0.0,0.0,0.0,0.0,0.0,0.0,0.0,0.0,0.0,0.0,0.0,0.0,0.0,0.0,0.0,0.0,0.0,0.0,0.0,0.0,0.0,0.0,0.0,0.0,0.0,0.0,0.0,0.0,0.0,0.0,0.0,0.0,0.0,0.0,0.0,0.0,0.0,0.0,0.0,0.0,0.0,0.0,0.0,0.0,0.0,0.0,0.0,0.0,0.0,0.0,0.0,0.0,0.0,0.0,0.0,0.0,0.0,0.7095,0.7095,0.7095,0.7095,0.7095,0.7095,0.7095,0.7095,0.7095,0.7095,0.0,0.0,0.0,0.0,0.0,0.0,0.0,0.0,0.0,0.0,0.0,0.0,0.0,0.0,0.0,0.0,0.0,0.0,0.0,0.0,0.0,0.0,0.0,0.0,0.0,0.0,0.0,0.0,0.0,0.0,0.0,0.0,0.0,0.0,0.0,0.0,0.0,0.0,0.0,0.0,0.0,0.0,0.0,0.0,0.0,0.0,0.0,0.0,0.0,0.0,0.0,0.0,0.0,0.0,0.0,0.0,0.0,0.0,0.0,0.0,0.6402,0.0,0.0,0.0,0.0,0.0,0.0,0.0,0.0,0.0,0.0,0.0,0.0,0.0,0.0,0.0,0.0,0.0,0.0,0.0,0.0,0.0,0.0,0.0,0.0,0.0,0.0,0.0,0.0,0.0,0.0,0.0,0.0,0.0,0.0,0.0,0.0,0.0,0.0,0.0,0.0,0.0,0.7095,0.7095,0.7095,0.7095,0.7095,0.7095,0.7095,0.7095,0.7095,0.7095,0.7095,0.0,0.0,0.0,0.0,0.0,0.0,0.0,0.0,0.0,0.0,0.0,0.0,0.0,0.0,0.0,0.0,0.0,0.0,0.0,0.0,0.0,0.0,0.0,0.0,0.0,0.0,0.0,0.0,0.0,0.0,0.0,0.0,0.0,0.0,0.0,0.0,0.0,0.0,0.0,0.0,0.0,0.0,0.0,0.0,0.0,0.0,0.0,0.0,0.0,0.0,0.0,0.0,0.0,0.0,0.0,0.0,0.0,0.0,0.0,0.0,0.6491,0.0,0.0,0.0,0.0,0.0,0.0,0.0,0.0,0.0,0.0,0.0,0.0,0.0,0.0,0.0,0.0,0.0,0.0,0.0,0.0,0.0,0.0,0.0,0.0,0.0,0.0,0.0,0.0,0.0,0.0,0.0,0.0,0.0,0.0,0.0,0.0,0.0,0.0,0.0,0.0,0.7095,0.7095,0.7095,0.7095,0.7095,0.7095,0.7095,0.7095,0.7095,0.7095,0.7095,0.0,0.0,0.0,0.0,0.0,0.0,0.0,0.0,0.0,0.0,0.0,0.0,0.0,0.0,0.0,0.0,0.0,0.0,0.0,0.0,0.0,0.0,0.0,0.0,0.0,0.0,0.0,0.0,0.0,0.0,0.0,0.0,0.0,0.0,0.0,0.0,0.0,0.0,0.0,0.0,0.0,0.0,0.0,0.0,0.0,0.0,0.0,0.0,0.0,0.0,0.0,0.0,0.0,0.6742,0.6753,0.6776,0.6776,0.6776,0.6776,0.6776,0.6749,0.6702,0.6702,0.0,0.0,0.0,0.0,0.0,0.0,0.0,0.0,0.0,0.0,0.0,0.0,0.0,0.0,0.0,0.0,0.0,0.0,0.0,0.0,0.0,0.0,0.0,0.0,0.7198,0.7198,0.7198,0.0,0.0,0.0,0.0,0.0,0.0,0.0,0.0,0.0,0.0,0.0,0.7195,0.7198,0.7198,0.7198,0.7198,0.7198,0.7198,0.7171,0.7168,0.7195,0.7171,0.7168,0.0,0.0,0.0,0.0,0.0,0.0,0.0,0.0,0.0,0.0,0.0,0.0,0.0,0.0,0.0,0.0,0.0,0.0,0.0,0.0,0.0,0.0,0.0,0.0,0.0,0.0,0.0,0.0,0.0,0.0,0.0,0.0,0.4683,0.4829,0.0,0.0,0.0,0.0,0.0,0.0,0.0,0.0,0.0,0.0,0.0,0.0,0.0,0.6678,0.6702,0.6702,0.6766,0.6877,0.6877,0.6941,0.7038,0.7038,0.7038,0.7038,0.7038,0.0,0.6702,0.6702,0.0,0.0,0.0,0.0,0.0,0.0,0.0,0.0,0.0,0.0,0.0,0.0,0.0,0.0,0.0,0.0,0.0,0.0,0.0,0.0,0.0,0.0,0.7396,0.7509,0.7539,0.7539,0.0,0.7306,0.7095,0.7095,0.7095,0.0,0.0,0.0,0.0,0.0,0.0,0.0,0.7522,0.7539,0.7539,0.7539,0.7539,0.7539,0.7539,0.7417,0.742,0.7529,0.7414,0.7423,0.7533,0.7539,0.0,0.0,0.0,0.0,0.0,0.0,0.0,0.0,0.0,0.0,0.0,0.0,0.0,0.0,0.0,0.0,0.0,0.0,0.0,0.0,0.0,0.0,0.0,0.0,0.0,0.0,0.0,0.0,0.0,0.5334,0.6004,0.6004,0.6405,0.6702,0.0,0.0,0.0,0.0,0.0,0.0,0.0,0.0,0.0,0.6924,0.7031,0.7141,0.7204,0.7207,0.7241,0.7283,0.7283,0.7317,0.7374,0.7374,0.7374,0.7374,0.7374,0.7326,0.72,0.7112,0.71,0.7114,0.0,0.0,0.0,0.0,0.7374,0.7374,0.7374,0.7374,0.7374,0.7374,0.0,0.0,0.0,0.0,0.0,0.0,0.0,0.0,0.0,0.0,0.7516,0.7584,0.76,0.76,0.76,0.7492,0.7374,0.0,0.7374,0.7374,0.7374,0.0,0.0,0.0,0.0,0.7522,0.759,0.76,0.76,0.76,0.76,0.76,0.76,0.7539,0.7529,0.7597,0.7536,0.7529,0.7597,0.76,0.7567,0.0,0.0,0.0,0.0,0.0,0.0,0.0,0.0,0.0,0.0,0.0,0.0,0.0,0.0,0.0,0.0,0.0,0.0,0.0,0.0,0.0,0.0,0.0,0.0,0.0,0.0,0.0,0.0,0.6298,0.6793,0.6793,0.6793,0.6831,0.0,0.0,0.0,0.0,0.0,0.0,0.6929,0.7016,0.7127,0.7232,0.737,0.7525,0.7651,0.7655,0.7675,0.7712,0.7712,0.7712,0.7712,0.7712,0.7712,0.7712,0.7712,0.7712,0.7699,0.7532,0.7454,0.7464,0.7556,0.76,0.76,0.76,0.76,0.76,0.76,0.76,0.76,0.76,0.7624,0.7662,0.7699,0.0,0.0,0.0,0.0,0.7723,0.776,0.777,0.778,0.7818,0.7824,0.7824,0.7824,0.7824,0.778,0.0,0.76,0.76,0.76,0.0,0.0,0.0,0.0,0.7784,0.7821,0.7824,0.7824,0.7824,0.7794,0.777,0.777,0.7699,0.7672,0.7709,0.7675,0.7672,0.7709,0.7712,0.7692,0.7655,0.0,0.0,0.0,0.0,0.0,0.0,0.0,0.0,0.0,0.0,0.0,0.0,0.0,0.0,0.0,0.0,0.0,0.0,0.0,0.0,0.0,0.0,0.0,0.0,0.0,0.0,0.0,0.0,0.0,0.7071,0.7071,0.0,0.0,0.0,0.0,0.7543,0.7553,0.7553,0.7553,0.7563,0.757,0.7577,0.7584,0.7655,0.7797,0.7801,0.7851,0.7993,0.7993,0.7993,0.7993,0.7993,0.7993,0.7993,0.7993,0.7993,0.7969,0.7706,0.7587,0.759,0.7597,0.76,0.76,0.76,0.76,0.76,0.76,0.76,0.76,0.76,0.7692,0.7804,0.7949,0.7993,0.0,0.0,0.7993,0.8027,0.8223,0.8264,0.8298,0.8434,0.8464,0.8464,0.8464,0.8464,0.8298,0.0,0.76,0.76,0.76,0.0,0.7824,0.7969,0.8143,0.8311,0.8447,0.8464,0.8464,0.8464,0.8342,0.8264,0.8264,0.7967,0.7837,0.7983,0.7858,0.7841,0.7986,0.7993,0.7922,0.7804,0.7801,0.0,0.0,0.0,0.0,0.0,0.0,0.0,0.0,0.0,0.0,0.0,0.0,0.0,0.0,0.0,0.0,0.0,0.0,0.0,0.0,0.0,0.0,0.0,0.0,0.0,0.0,0.0,0.0,0.7288,0.7377,0.0,0.7512,0.7519,0.7543,0.7597,0.7685,0.7736,0.7736,0.7926,0.8056,0.8056,0.8145,0.8194,0.8241,0.8245,0.8269,0.8323,0.8323,0.8323,0.8323,0.8323,0.8323,0.8323,0.8323,0.8323,0.8316,0.8211,0.8138,0.8066,0.8133,0.8167,0.8167,0.8167,0.8167,0.8167,0.8167,0.8167,0.8167,0.8167,0.8201,0.8252,0.8306,0.8323,0.8323,0.8323,0.8323,0.8336,0.8417,0.8434,0.8444,0.8495,0.8509,0.8509,0.8509,0.8509,0.8447,0.8208,0.8167,0.8167,0.8167,0.8211,0.8262,0.8316,0.837,0.8451,0.8502,0.8509,0.8509,0.8509,0.8461,0.8434,0.8434,0.8332,0.8265,0.8319,0.8187,0.813,0.8184,0.8067,0.7989,0.7935,0.7935,0.7908,0.0,0.0,0.0,0.0,0.0,0.0,0.0,0.0,0.0,0.0,0.0,0.0,0.0,0.0,0.0,0.0,0.0,0.0,0.0,0.0,0.0,0.0,0.0,0.0,0.0,0.735,0.7471,0.7471,0.758,0.7692,0.7743,0.7794,0.7845,0.7896,0.7984,0.8038,0.8038,0.8257,0.8366,0.8366,0.8457,0.8532,0.856,0.856,0.8584,0.8635,0.8635,0.8635,0.8635,0.8635,0.8635,0.8635,0.8635,0.8635,0.8635,0.8635,0.8581,0.8496,0.8512,0.8509,0.8509,0.8509,0.8509,0.8509,0.8509,0.8509,0.8515,0.854,0.856,0.8567,0.8621,0.8635,0.8635,0.8635,0.8635,0.8635,0.8635,0.8635,0.8635,0.8635,0.8635,0.8635,0.8635,0.8635,0.8635,0.8635,0.8554,0.8509,0.8509,0.8549,0.856,0.856,0.8604,0.8635,0.8635,0.8635,0.8635,0.8635,0.8587,0.856,0.856,0.8539,0.8509,0.8509,0.842,0.8366,0.8366,0.8241,0.8142,0.8091,0.8091,0.8115,0.8162,0.0,0.0,0.0,0.0,0.0,0.0,0.0,0.0,0.0,0.0,0.0,0.0,0.0,0.0,0.0,0.0,0.0,0.0,0.0,0.0,0.0,0.0,0.0,0.743,0.7516,0.7614,0.7621,0.7746,0.7864,0.8013,0.8187,0.8359,0.8498,0.8512,0.8515,0.8515,0.8519,0.8522,0.8522,0.8522,0.8567,0.8716,0.8716,0.8764,0.8912,0.8912,0.8912,0.8912,0.8912,0.8912,0.8912,0.8912,0.8912,0.8912,0.8912,0.8912,0.8882,0.8611,0.8522,0.8522,0.8522,0.8522,0.8522,0.8522,0.8522,0.8546,0.8669,0.8716,0.872,0.8865,0.8912,0.8912,0.8912,0.8912,0.8912,0.8912,0.8912,0.8912,0.8912,0.8912,0.8912,0.8912,0.8912,0.8912,0.8912,0.8699,0.8522,0.8522,0.8618,0.8716,0.8716,0.8818,0.0,0.8912,0.8912,0.8912,0.8912,0.8777,0.8716,0.8716,0.8581,0.8522,0.8522,0.8519,0.8515,0.8515,0.8509,0.8444,0.8304,0.8304,0.8369,0.8509,0.0,0.0,0.0,0.0,0.0,0.0,0.0,0.0,0.0,0.0,0.0,0.0,0.0,0.0,0.0,0.0,0.0,0.0,0.0,0.0,0.0,0.7793,0.7841,0.7712,0.7797,0.7935,0.8097,0.8236,0.8313,0.8357,0.8423,0.8464,0.8505,0.8584,0.8648,0.8648,0.8727,0.8787,0.8787,0.8787,0.8804,0.8848,0.8848,0.8869,0.8912,0.8912,0.8912,0.8912,0.8912,0.8912,0.8912,0.8912,0.8912,0.8912,0.8912,0.8912,0.8902,0.8818,0.8787,0.8787,0.8787,0.8787,0.8787,0.8787,0.8787,0.8791,0.8835,0.8848,0.8855,0.8899,0.8912,0.8912,0.8912,0.8912,0.8912,0.8912,0.8912,0.8912,0.8912,0.8912,0.8912,0.8912,0.8912,0.8912,0.8912,0.8841,0.8787,0.8787,0.8821,0.8848,0.8848,0.8885,0.0,0.8912,0.8912,0.8912,0.8912,0.8875,0.8848,0.8848,0.8808,0.8787,0.8787,0.871,0.8648,0.8648,0.854,0.8492,0.8451,0.8451,0.8468,0.0,0.0,0.0,0.0,0.0,0.0,0.0,0.0,0.0,0.0,0.0,0.0,0.0,0.0,0.0,0.0,0.0,0.0,0.0,0.0,0.0,0.0,0.806,0.8192,0.8191,0.8186,0.8258,0.8372,0.8515,0.8577,0.8577,0.8635,0.8672,0.8672,0.873,0.8777,0.8777,0.8862,0.8912,0.8912,0.8912,0.8912,0.8912,0.8912,0.8912,0.8912,0.8912,0.8912,0.8912,0.8912,0.8912,0.8912,0.8912,0.8912,0.8912,0.8912,0.8912,0.0,0.0,0.0,0.0,0.0,0.8912,0.8912,0.8912,0.8912,0.8912,0.8912,0.8912,0.8912,0.8912,0.8912,0.8912,0.8912,0.8912,0.8912,0.8912,0.8912,0.8912,0.8912,0.8912,0.8912,0.8912,0.8912,0.8912,0.8912,0.8912,0.0,0.8912,0.8912,0.8912,0.8912,0.8912,0.8912,0.8912,0.8912,0.8912,0.8912,0.8912,0.8912,0.8912,0.8912,0.0,0.0,0.0,0.8777,0.8777,0.8659,0.0,0.0,0.0,0.8608,0.8672,0.0,0.0,0.0,0.857,0.8533,0.0,0.0,0.0,0.0,0.0,0.0,0.0,0.0,0.0,0.0,0.0,0.0,0.0,0.0,0.0,0.0,0.8336,0.856,0.8713,0.8618,0.8533,0.8533,0.8655,0.871,0.871,0.8831,0.8912,0.8912,0.8912,0.8912,0.8912,0.8912,0.0,0.0,0.0,0.8912,0.8912,0.8912,0.8912,0.8912,0.8912,0.8919,0.8936,0.8936,0.8943,0.896,0.896,0.896,0.896,0.896,0.896,0.896,0.894,0.8936,0.8936,0.8956,0.896,0.896,0.896,0.0,0.0,0.896,0.896,0.896,0.896,0.896,0.896,0.896,0.896,0.896,0.896,0.896,0.896,0.896,0.896,0.896,0.896,0.896,0.896,0.896,0.8946,0.8936,0.8936,0.8923,0.8912,0.8912,0.8912,0.8912,0.8912,0.8912,0.8912,0.8912,0.0,0.0,0.8912,0.8912,0.8912,0.8912,0.8912,0.8912,0.8912,0.8781,0.8774,0.8909,0.8777,0.8777,0.8912,0.8912,0.8912,0.8906,0.8774,0.871,0.0,0.0,0.0,0.0,0.0,0.0,0.0,0.0,0.0,0.0,0.0,0.0,0.0,0.0,0.0,0.8507,0.8628,0.872,0.8845,0.8841,0.8825,0.8825,0.8848,0.8869,0.8869,0.8892,0.8912,0.8912,0.8912,0.8912,0.8912,0.8912,0.8912,0.8912,0.8912,0.8912,0.8912,0.8912,0.8912,0.8912,0.0,0.0,0.9141,0.9141,0.9206,0.9296,0.9296,0.9296,0.9296,0.9296,0.9296,0.9283,0.9189,0.9141,0.9155,0.9252,0.9296,0.9296,0.9296,0.9296,0.9296,0.9296,0.9296,0.9296,0.9296,0.9296,0.0,0.9296,0.9296,0.9296,0.9296,0.9296,0.9296,0.9296,0.9296,0.9296,0.9296,0.9296,0.9296,0.9296,0.9223,0.9141,0.9141,0.9015,0.8912,0.8912,0.8912,0.8912,0.8912,0.8912,0.8912,0.8912,0.8912,0.8912,0.8912,0.8912,0.8912,0.8912,0.8912,0.8912,0.8912,0.8882,0.8882,0.8912,0.8882,0.8882,0.8912,0.8912,0.8912,0.8912,0.8882,0.8869,0.0,0.0,0.0,0.0,0.0,0.0,0.0,0.0,0.0,0.0,0.0,0.6611,0.728,0.0,0.8621,0.8699,0.8747,0.8825,0.8899,0.8912,0.8912,0.8912,0.8912,0.8912,0.8912,0.8912,0.8912,0.8912,0.8912,0.8943,0.9042,0.9045,0.9079,0.9157,0.9161,0.9161,0.9161,0.9161,0.9161,0.9161,0.9161,0.9198,0.9294,0.9294,0.9339,0.941,0.941,0.941,0.941,0.941,0.941,0.941,0.941,0.9362,0.9305,0.9383,0.941,0.941,0.941,0.941,0.941,0.941,0.941,0.941,0.941,0.941,0.941,0.941,0.941,0.941,0.941,0.941,0.941,0.941,0.941,0.941,0.941,0.941,0.941,0.941,0.9349,0.9294,0.9294,0.9208,0.9082,0.8933,0.8912,0.8912,0.8912,0.8912,0.8912,0.8912,0.8912,0.8912,0.8912,0.8912,0.8912,0.8912,0.8912,0.8912,0.8912,0.8912,0.8912,0.8912,0.8912,0.8912,0.8912,0.8912,0.895,0.9045,0.9045,0.9008,0.0,0.0,0.0,0.0,0.0,0.0,0.0,0.4048,0.5078,0.6579,0.6909,0.7246,0.8338,0.8652,0.8727,0.8727,0.8831,0.8912,0.8912,0.8912,0.8923,0.895,0.8929,0.8923,0.895,0.8953,0.8963,0.8994,0.8997,0.9076,0.922,0.9226,0.9281,0.9407,0.941,0.941,0.941,0.941,0.941,0.941,0.941,0.9427,0.9425,0.9425,0.9442,0.9466,0.9466,0.9466,0.9466,0.9466,0.9466,0.9479,0.9602,0.9574,0.9466,0.9466,0.9466,0.9466,0.9466,0.9466,0.9466,0.9466,0.9466,0.9466,0.9466,0.9466,0.9466,0.9466,0.9466,0.9466,0.9466,0.9466,0.9466,0.9466,0.9466,0.9466,0.9466,0.9466,0.9466,0.9466,0.9445,0.9425,0.9425,0.943,0.93,0.9034,0.8997,0.8997,0.8997,0.8997,0.8997,0.8997,0.8997,0.8997,0.8997,0.8997,0.8997,0.8997,0.8997,0.8997,0.8997,0.8997,0.8997,0.8997,0.8997,0.8997,0.8997,0.8997,0.9083,0.9226,0.9226,0.9165,0.0,0.0865,0.2084,0.3409,0.3848,0.464,0.0,0.7002,0.6637,0.8,0.8375,0.8494,0.8659,0.8784,0.8885,0.8885,0.8899,0.8912,0.8912,0.8912,0.896,0.9141,0.9015,0.896,0.9145,0.9158,0.9213,0.932,0.933,0.9369,0.9383,0.9383,0.9393,0.941,0.941,0.941,0.941,0.941,0.941,0.941,0.941,0.9452,0.9585,0.9585,0.9652,0.9741,0.9741,0.9741,0.9741,0.9741,0.9741,0.9744,0.9761,0.9758,0.9741,0.9741,0.9741,0.9741,0.9741,0.9741,0.9741,0.9741,0.9741,0.9741,0.9741,0.9741,0.9741,0.9741,0.9741,0.9741,0.9741,0.9741,0.9741,0.9741,0.9741,0.9741,0.9741,0.9741,0.9741,0.9741,0.9669,0.9585,0.9585,0.9469,0.94,0.9337,0.933,0.933,0.933,0.933,0.933,0.933,0.933,0.933,0.933,0.933,0.933,0.933,0.933,0.933,0.933,0.933,0.933,0.933,0.933,0.933,0.933,0.933,0.9369,0.9383,0.9383,0.9376,0.1049,0.1695,0.2492,0.3989,0.4956,0.5872,0.7156,0.7618,0.7963,0.8591,0.877,0.8818,0.8818,0.8869,0.8912,0.8912,0.8912,0.8912,0.8912,0.9011,0.9114,0.9204,0.9206,0.9222,0.9308,0.9315,0.9342,0.9403,0.941,0.9418,0.951,0.9513,0.9551,0.9635,0.9635,0.9635,0.9635,0.9635,0.9635,0.9635,0.9635,0.9673,0.9704,0.9704,0.9734,0.9792,0.9792,0.9792,0.9792,0.9792,0.9792,0.9792,0.9792,0.9792,0.9792,0.9792,0.9792,0.9792,0.9792,0.9792,0.9792,0.9792,0.9792,0.9792,0.9792,0.9792,0.9792,0.9792,0.9792,0.9792,0.9792,0.9792,0.9792,0.9792,0.9792,0.9792,0.9792,0.9792,0.9792,0.9792,0.9744,0.9704,0.9704,0.968,0.9635,0.9635,0.949,0.941,0.941,0.941,0.941,0.941,0.941,0.941,0.941,0.941,0.941,0.941,0.941,0.941,0.941,0.941,0.941,0.941,0.941,0.941,0.941,0.941,0.9425,0.9513,0.9513,0.9557,0.18,0.2477,0.3139,0.4708,0.6114,0.7135,0.729,0.8058,0.8777,0.8889,0.8912,0.8912,0.8912,0.8912,0.8912,0.8912,0.8912,0.8926,0.8963,0.9114,0.9213,0.9298,0.9403,0.9459,0.95,0.9466,0.9459,0.95,0.9503,0.9551,0.9663,0.9666,0.9687,0.9788,0.9792,0.9792,0.9792,0.9792,0.9792,0.9792,0.9792,0.9792,0.9792,0.9792,0.9792,0.9792,0.9792,0.9792,0.9792,0.9792,0.9792,0.9792,0.9792,0.9792,0.9792,0.9792,0.9792,0.9792,0.9792,0.9792,0.9792,0.9792,0.9792,0.9792,0.9792,0.9792,0.9792,0.9792,0.9792,0.9792,0.9792,0.9792,0.9792,0.9792,0.9792,0.9792,0.9792,0.9792,0.9792,0.9792,0.9792,0.9792,0.9792,0.9792,0.9792,0.9792,0.9639,0.9503,0.9503,0.9503,0.9503,0.9503,0.9503,0.9503,0.9503,0.9503,0.9503,0.9503,0.9503,0.9503,0.9503,0.9503,0.9503,0.9503,0.9503,0.9503,0.9503,0.9503,0.9557,0.9666,0.9666,0.9694,0.1796,0.3156,0.4549,0.6227,0.7642,0.8662,0.8813,0.8875,0.8906,0.8909,0.8912,0.8912,0.8912,0.8912,0.8912,0.8912,0.8912,0.896,0.9155,0.9207,0.9291,0.9561,0.9598,0.9656,0.9765,0.9683,0.9659,0.9768,0.9778,0.9781,0.9785,0.9785,0.9785,0.9792,0.9792,0.9792,0.9792,0.9792,0.9792,0.9792,0.9792,0.9792,0.9792,0.9792,0.9792,0.9792,0.9792,0.9792,0.9792,0.9792,0.9792,0.9792,0.9792,0.9792,0.9792,0.9792,0.9792,0.9792,0.9792,0.9792,0.9792,0.9792,0.9792,0.9792,0.9792,0.9792,0.9792,0.9792,0.9792,0.9792,0.9792,0.9792,0.9792,0.9792,0.9792,0.9792,0.9792,0.9792,0.9792,0.9792,0.9792,0.9792,0.9792,0.9792,0.9792,0.9792,0.9785,0.9778,0.9778,0.9778,0.9778,0.9778,0.9778,0.9778,0.9778,0.9778,0.9778,0.9778,0.9778,0.9778,0.9778,0.9778,0.9778,0.9778,0.9778,0.9778,0.9778,0.9778,0.9781,0.9785,0.9785,0.9788,0.3307,0.4776,0.6231,0.7774,0.8502,0.8848,0.8899,0.8912,0.8912,0.8912,0.8912,0.8912,0.8912,0.8912,0.8912,0.8912,0.8912,0.896,0.9162,0.9271,0.941,0.9585,0.9693,0.9737,0.9785,0.9748,0.9741,0.9788,0.9792,0.9792,0.9792,0.9792,0.9792,0.9792,0.9792,0.9792,0.9792,0.9792,0.9792,0.9792,0.9792,0.9792,0.9792,0.9792,0.9792,0.9792,0.9792,0.9792,0.9792,0.9792,0.9792,0.9792,0.9792,0.9792,0.9792,0.9792,0.9792,0.9792,0.9792,0.9792,0.9792,0.9792,0.9792,0.9792,0.9792,0.9792,0.9792,0.9792,0.9792,0.9792,0.9792,0.9792,0.9792,0.9792,0.9792,0.9792,0.9792,0.9792,0.9792,0.9792,0.9792,0.9792,0.9792,0.9792,0.9792,0.9792,0.9792,0.9792,0.9792,0.9792,0.9792,0.9792,0.9792,0.9792,0.9792,0.9792,0.9792,0.9792,0.9792,0.9792,0.9792,0.9792,0.9792,0.9792,0.9792,0.9792,0.9792,0.9792,0.9792,0.9792,0.9792,0.9792,0.4733,0.5989,0.7051,0.8524,0.8912,0.8912,0.8912,0.8912,0.8912,0.8912,0.8912,0.8912,0.8912,0.8912,0.8912,0.8912,0.8912,0.898,0.9237,0.9349,0.9456,0.9659,0.9737,0.9792,0.9792,0.9792,0.9792,0.9792,0.9792,0.9792,0.9792,0.9792,0.9792,0.9792,0.9792,0.9792,0.9792,0.9792,0.9792,0.9792,0.9792,0.9792,0.9792,0.9792,0.9792,0.9792,0.9792,0.9792,0.9792,0.9792,0.9792,0.9792,0.9792,0.9792,0.9792,0.9792,0.9792,0.9792,0.9792,0.9792,0.9792,0.9792,0.9792,0.9792,0.9792,0.9792,0.9792,0.9792,0.9792,0.9792,0.9792,0.9792,0.9792,0.9792,0.9792,0.9792,0.9792,0.9792,0.9792,0.9792,0.9792,0.9792,0.9792,0.9792,0.9792,0.9792,0.9792,0.9792,0.9792,0.9792,0.9792,0.9792,0.9792,0.9792,0.9792,0.9792,0.9792,0.9792,0.9792,0.9792,0.9792,0.9792,0.9792,0.9792,0.9792,0.9792,0.9792,0.9792,0.9819,0.9869,0.9869,0.99,0.5895,0.6755,0.7149,0.8546,0.8912,0.8912,0.8912,0.8912,0.8912,0.8912,0.8912,0.8912,0.8912,0.8912,0.8912,0.8912,0.8912,0.9014,0.934,0.941,0.949,0.9754,0.9792,0.9792,0.9792,0.9792,0.9792,0.9792,0.9792,0.9792,0.9792,0.9792,0.9792,0.9792,0.9792,0.9792,0.9792,0.9792,0.9792,0.9792,0.9792,0.9792,0.9792,0.9792,0.9792,0.9792,0.9792,0.9792,0.9792,0.9792,0.9792,0.9792,0.9792,0.9792,0.9792,0.9792,0.9792,0.9792,0.9792,0.9792,0.9792,0.9792,0.9792,0.9792,0.9792,0.9792,0.9792,0.9792,0.9792,0.9792,0.9792,0.9792,0.9792,0.9792,0.9792,0.9792,0.9792,0.9792,0.9792,0.9792,0.9798,0.9802,0.9802,0.9808,0.9812,0.9812,0.9812,0.9808,0.9792,0.9792,0.9792,0.9792,0.9792,0.9792,0.9792,0.9792,0.9792,0.9792,0.9792,0.9792,0.9792,0.9792,0.9792,0.9792,0.9792,0.9795,0.9802,0.9802,0.9879,1.0032,1.0032,1.0109,0.6193,0.7512,0.8432,0.8799,0.8912,0.8912,0.8912,0.8912,0.8912,0.8912,0.8912,0.8912,0.8912,0.8912,0.8912,0.8912,0.8912,0.9014,0.934,0.941,0.949,0.9754,0.9792,0.9792,0.9792,0.9792,0.9792,0.9792,0.9792,0.9792,0.9792,0.9792,0.9792,0.9792,0.9792,0.9792,0.9792,0.9792,0.9792,0.9792,0.9792,0.9792,0.9792,0.9792,0.9792,0.9792,0.9792,0.9792,0.9792,0.9792,0.9792,0.9792,0.9792,0.9792,0.9792,0.9792,0.9792,0.9792,0.9792,0.9792,0.9792,0.9792,0.9792,0.9792,0.9792,0.9792,0.9792,0.9792,0.9792,0.9792,0.9792,0.9792,0.9792,0.9792,0.9792,0.9792,0.9792,0.9792,0.9792,0.9792,0.9883,0.9961,0.9961,1.0055,1.0164,1.0164,1.0164,1.008,0.9822,0.9792,0.9792,0.9792,0.9792,0.9792,0.9792,0.9792,0.9792,0.9792,0.9792,0.9792,0.9792,0.9792,0.9792,0.9792,0.9792,0.9846,0.9961,0.9961,1.0038,1.0222,1.0222,1.0243,0.6311,0.7789,0.8912,0.8912,0.8912,0.8912,0.8912,0.8912,0.8912,0.8912,0.8912,0.8912,0.8912,0.8912,0.8912,0.8912,0.8912,0.899,0.9277,0.9369,0.9466,0.97,0.9754,0.9792,0.9792,0.9792,0.9792,0.9792,0.9792,0.9792,0.9792,0.9792,0.9792,0.9792,0.9792,0.9792,0.9792,0.9792,0.9792,0.9792,0.9792,0.9792,0.9792,0.9792,0.9792,0.9792,0.0,0.9792,0.9792,0.9792,0.9792,0.9792,0.9792,0.9792,0.9792,0.9792,0.9792,0.9792,0.9792,0.9792,0.9792,0.9792,0.9792,0.9792,0.9792,0.9792,0.9792,0.9792,0.9792,0.9792,0.9792,0.9792,0.9792,0.9792,0.9792,0.9792,0.9792,0.9792,0.9808,0.9879,1.0015,1.012,1.012,1.0222,1.0312,1.0312,1.0312,1.0219,1.0046,1.0022,1.0022,1.0022,1.0022,1.0022,1.0022,1.0022,1.0022,1.0022,1.0022,0.9992,0.9893,0.989,0.989,0.989,0.989,0.9967,1.012,1.012,1.0226,1.0407,1.0407,1.0409,0.6311,0.7789,0.8912,0.8912,0.8912,0.8912,0.8912,0.8912,0.8912,0.8912,0.8912,0.8912,0.8912,0.8912,0.8912,0.8912,0.8912,0.896,0.9162,0.9315,0.9439,0.9591,0.9704,0.9792,0.9792,0.9792,0.9792,0.9792,0.9792,0.9792,0.9792,0.9792,0.9792,0.9792,0.9792,0.9792,0.9792,0.9792,0.9792,0.9792,0.9792,0.9792,0.9792,0.9792,0.9792,0.9792,0.9792,0.9792,0.9792,0.9792,0.9792,0.9792,0.9792,0.9792,0.9792,0.9792,0.9792,0.9792,0.9792,0.9792,0.9792,0.9792,0.9792,0.9792,0.9792,0.9792,0.9792,0.9792,0.9792,0.9792,0.9792,0.9792,0.9792,0.9792,0.9792,0.9792,0.9792,0.9805,0.9859,0.9991,1.0188,1.0342,1.0342,1.0327,1.0337,1.0337,1.0337,1.0337,1.0337,1.0304,1.0312,1.0312,1.0312,1.0312,1.0312,1.0312,1.0312,1.0312,1.0312,1.0219,1.0055,1.0049,1.0049,1.0049,1.0049,1.0123,1.0342,1.0342,1.0414,1.0521,1.0521,1.0595,0.6311,0.7789,0.8912,0.8912,0.8912,0.8912,0.8912,0.8912,0.8912,0.8912,0.8912,0.8912,0.8912,0.8912,0.8912,0.8912,0.8912,0.896,0.9162,0.9315,0.9439,0.9591,0.9704,0.9792,0.9792,0.9792,0.9792,0.9792,0.9792,0.9792,0.9792,0.9792,0.9792,0.9792,0.9792,0.9792,0.9792,0.9792,0.9792,0.9792,0.9792,0.9792,0.9792,0.9792,0.9792,0.9792,0.9792,0.0,0.9792,0.9792,0.9792,0.9792,0.9792,0.9792,0.9792,0.9792,0.9792,0.9792,0.9792,0.9792,0.9792,0.9792,0.9792,0.9792,0.9792,0.9792,0.9792,0.9792,0.9792,0.9792,0.9792,0.9792,0.9792,0.9792,0.9792,0.9792,0.9792,0.989,0.9988,0.998,1.0238,1.0456,1.0456,1.0561,1.0643,1.0643,1.0643,1.0643,1.0643,1.0432,1.0312,1.0312,1.0312,1.0312,1.0312,1.0312,1.0312,1.0312,1.0312,1.0266,1.0243,1.0239,1.0239,1.0239,1.0239,1.031,1.0456,1.0456,1.0531,1.068,1.068,1.0697,0.5363,0.7204,0.8912,0.8912,0.8912,0.8912,0.8912,0.8912,0.8912,0.8912,0.8912,0.8912,0.8912,0.8912,0.8912,0.8912,0.8912,0.8933,0.9032,0.9199,0.9349,0.9473,0.9622,0.971,0.9785,0.9792,0.9792,0.9792,0.9792,0.9792,0.9792,0.9792,0.9792,0.9792,0.9792,0.9792,0.9792,0.9792,0.9792,0.9792,0.9792,0.9792,0.9792,0.9792,0.9792,0.9792,0.9792,0.9792,0.9792,0.9792,0.9792,0.9792,0.9792,0.9792,0.9792,0.9792,0.9792,0.9792,0.9792,0.9792,0.9792,0.9792,0.9792,0.9792,0.9792,0.9792,0.9792,0.9792,0.9792,0.9792,0.9792,0.9792,0.9792,0.9792,0.9792,0.9792,0.9792,0.9974,1.0171,1.0171,1.0409,1.0612,1.0612,1.067,1.0688,1.0688,1.0688,1.0688,1.0688,1.0599,1.051,1.051,1.051,1.051,1.051,1.051,1.051,1.051,1.051,1.0473,1.0424,1.0388,1.0388,1.0388,1.0388,1.0463,1.0612,1.0612,1.0649,1.0688,1.0688,1.0688,0.4498,0.6644,0.8912,0.8912,0.8912,0.8912,0.8912,0.8912,0.8912,0.8912,0.8912,0.8912,0.8912,0.8912,0.8912,0.8912,0.8912,0.8912,0.8912,0.9062,0.9226,0.9345,0.9496,0.9652,0.9734,0.9771,0.9792,0.9792,0.9792,0.9792,0.9792,0.9792,0.9792,0.9792,0.9792,0.9792,0.9792,0.9792,0.9792,0.9792,0.9792,0.9792,0.9792,0.9792,0.9792,0.9792,0.9792,0.9792,0.9792,0.9792,0.9792,0.9792,0.9792,0.9792,0.9792,0.9792,0.9792,0.9792,0.9792,0.9792,0.9792,0.9792,0.9792,0.9792,0.9792,0.9792,0.9792,0.9792,0.9792,0.9792,0.9792,0.9792,0.9792,0.9792,0.9792,0.9792,0.9792,1.0063,1.0312,1.0312,1.0517,1.0688,1.0688,1.0688,1.0688,1.0688,1.0688,1.0688,1.0688,1.0688,1.0688,1.0688,1.0688,1.0688,1.0688,1.0688,1.0688,1.0688,1.0688,1.0666,1.0548,1.0541,1.0541,1.0541,1.0541,1.0602,1.0688,1.0688,1.0688,1.0688,1.0688,1.0688,0.4498,0.6644,0.8912,0.8912,0.8912,0.8912,0.8912,0.8912,0.8912,0.8912,0.8912,0.8912,0.8912,0.8912,0.8912,0.8912,0.8912,0.8912,0.8912,0.9062,0.9214,0.9228,0.9432,0.9615,0.9629,0.9714,0.9792,0.9792,0.9792,0.9792,0.9792,0.9792,0.9792,0.9792,0.9792,0.9792,0.9792,0.9792,0.9792,0.9792,0.9792,0.9792,0.9792,0.9792,0.9792,0.9792,0.9792,0.9792,0.0,0.9792,0.9792,0.9792,0.9792,0.9792,0.9792,0.9792,0.9792,0.9792,0.9792,0.9792,0.9792,0.9792,0.9792,0.9792,0.9792,0.9792,0.9792,0.9792,0.9792,0.9792,0.9792,0.9792,0.9792,0.9792,0.9792,0.9792,0.9792,1.0063,1.0312,1.0312,1.0517,1.0688,1.0688,1.0688,1.0688,1.0688,1.0688,1.0688,1.0688,1.0688,1.0688,1.0688,1.0688,1.0688,1.0688,1.0688,1.0688,1.0688,1.0688,1.0681,1.0667,1.0667,1.0667,1.0667,1.0667,1.0707,1.0688,1.0688,1.0688,1.0688,1.0688,1.0688,0.4247,0.6003,0.7789,0.8688,0.8912,0.8912,0.8912,0.8912,0.8912,0.8912,0.8912,0.8912,0.8912,0.8912,0.8912,0.8912,0.8912,0.8912,0.8912,0.896,0.9055,0.92,0.9373,0.9507,0.9602,0.9707,0.9792,0.9792,0.9792,0.9792,0.9792,0.9792,0.9792,0.9792,0.9792,0.9792,0.9792,0.9792,0.9792,0.9792,0.9792,0.9792,0.9792,0.9792,0.9792,0.9792,0.9792,0.9792,0.0,0.9792,0.9792,0.9792,0.9792,0.9792,0.9792,0.9792,0.9792,0.9792,0.9792,0.9792,0.9792,0.9792,0.9792,0.9792,0.9792,0.9792,0.9792,0.9792,0.9792,0.9792,0.9792,0.9792,0.9792,0.9792,0.9792,0.9792,0.9792,0.9961,1.0168,1.0295,1.0443,1.0612,1.0704,1.0688,1.0688,1.0688,1.0688,1.0688,1.0688,1.0688,1.0688,1.0688,1.0688,1.0688,1.0688,1.0688,1.0688,1.0688,1.0688,1.0688,1.0688,1.0688,1.0688,1.0688,1.0688,1.0688,1.0688,1.0688,1.0688,1.0688,1.0688,1.0688,0.3521,0.4916,0.6394,0.7875,0.8239,0.8349,0.8799,0.8912,0.8912,0.8912,0.8912,0.8912,0.8912,0.8912,0.8912,0.8912,0.8912,0.8912,0.8912,0.8912,0.895,0.9107,0.925,0.9403,0.9527,0.971,0.9792,0.9792,0.9792,0.9792,0.9792,0.9792,0.9792,0.9792,0.9792,0.9792,0.9792,0.9792,0.9792,0.9792,0.9792,0.9792,0.9792,0.9792,0.9792,0.9792,0.9792,0.9792,0.0,0.9792,0.9792,0.9792,0.9792,0.9792,0.9792,0.9792,0.9792,0.9792,0.9792,0.9792,0.9792,0.9792,0.9792,0.9792,0.9792,0.9792,0.9792,0.9792,0.9792,0.9792,0.9792,0.9792,0.9792,0.9792,0.9792,0.9792,0.9792,0.991,1.0049,1.0192,1.0365,1.0524,1.0633,1.0657,1.0688,1.0688,1.0688,1.0688,1.0688,1.0688,1.0688,1.0688,1.0688,1.0688,1.0688,1.0688,1.0688,1.0688,1.0688,1.0688,1.0688,1.0688,1.0688,1.0688,1.0688,1.0688,1.0688,1.0688,1.0688,1.0688,1.0688,1.0688,0.2208,0.3352,0.489,0.6366,0.673,0.7091,0.8574,0.8912,0.8912,0.8912,0.8912,0.8912,0.8912,0.8912,0.8912,0.8912,0.8912,0.8912,0.8912,0.8912,0.8912,0.8912,0.9066,0.9243,0.9396,0.9649,0.9792,0.9792,0.9792,0.9792,0.9792,0.9792,0.9792,0.9792,0.9792,0.9792,0.9792,0.9792,0.9792,0.9792,0.9792,0.9792,0.9792,0.9792,0.9792,0.9792,0.9792,0.9792,0.0,0.9792,0.9792,0.9792,0.9792,0.9792,0.9792,0.9792,0.9792,0.9792,0.9792,0.9792,0.9792,0.9792,0.9792,0.9792,0.9792,0.9792,0.9792,0.9792,0.9792,0.9792,0.9792,0.9792,0.9792,0.9792,0.9792,0.9792,0.9792,0.991,0.9987,0.9987,1.0258,1.049,1.0493,1.0619,1.0688,1.0688,1.0688,1.0688,1.0688,1.0688,1.0688,1.0688,1.0688,1.0688,1.0688,1.0688,1.0688,1.0688,1.0688,1.0688,1.0688,1.0688,1.0688,1.0688,1.0688,1.0688,1.0688,1.0688,1.0688,1.0688,1.0688,1.0688,0.1925,0.255,0.3296,0.4804,0.5947,0.6813,0.7288,0.8183,0.8912,0.8912,0.8912,0.8912,0.8912,0.8912,0.8912,0.8912,0.8912,0.8912,0.8912,0.8912,0.8912,0.8912,0.9157,0.9396,0.952,0.971,0.9792,0.9792,0.9792,0.9792,0.9792,0.9792,0.9792,0.9792,0.9792,0.9792,0.9792,0.9724,0.9676,0.9676,0.9571,0.952,0.952,0.952,0.9578,0.9676,0.9676,0.97,0.9792,0.9792,0.9792,0.9792,0.9792,0.9792,0.9792,0.9792,0.9792,0.9792,0.9792,0.9792,0.9792,0.9792,0.9792,0.9792,0.9792,0.9792,0.9792,0.9792,0.9792,0.9792,0.9792,0.9792,0.9792,0.9792,0.9792,0.9792,0.9792,0.9829,0.9893,0.9998,1.0212,1.0378,1.0477,1.0619,1.0688,1.0688,1.0688,1.0688,1.0688,1.0688,1.0688,1.0688,1.0688,1.0688,1.0688,1.0688,1.0688,1.0688,1.0688,1.0688,1.0688,1.0688,1.0688,1.0688,1.0688,1.0688,1.0688,1.0688,1.0688,1.0688,1.0688,1.0688,0.1117,0.1376,0.1721,0.3264,0.4327,0.5303,0.645,0.7401,0.8239,0.8799,0.8912,0.8912,0.8912,0.8912,0.8912,0.8912,0.8912,0.8912,0.8912,0.8912,0.8912,0.8912,0.915,0.9383,0.9507,0.9656,0.9734,0.9788,0.9792,0.9792,0.9792,0.9792,0.9792,0.9792,0.9792,0.9765,0.971,0.9652,0.9581,0.952,0.9425,0.941,0.941,0.941,0.9435,0.9527,0.9585,0.9659,0.0,0.9768,0.9792,0.9792,0.9792,0.9792,0.9792,0.9792,0.9792,0.9792,0.9792,0.9792,0.9792,0.9792,0.9792,0.9792,0.9792,0.9792,0.9792,0.9792,0.9792,0.9792,0.9792,0.9792,0.9792,0.9792,0.9792,0.9792,0.9792,0.9792,0.9819,0.9913,1.0055,1.0239,1.0385,1.0534,1.0653,1.0677,1.0688,1.0688,1.0688,1.0688,1.0688,1.0688,1.0688,1.0688,1.0688,1.0688,1.0688,1.0688,1.0688,1.0688,1.0688,1.0688,1.0688,1.0688,1.0688,1.0688,1.0688,1.0688,1.0688,1.0688,1.0688,1.0688,0.0,0.0,0.0329,0.1694,0.2116,0.295,0.5869,0.6626,0.0,0.8589,0.8902,0.8912,0.8912,0.8912,0.8912,0.8912,0.8912,0.8912,0.8912,0.8912,0.8912,0.8912,0.9066,0.9237,0.9379,0.9513,0.9663,0.9765,0.9785,0.9792,0.9792,0.9792,0.9792,0.9792,0.9781,0.9714,0.9612,0.9588,0.9507,0.9393,0.9383,0.9379,0.9379,0.9379,0.9383,0.0,0.9513,0.9585,0.0,0.9717,0.9775,0.9775,0.9788,0.9792,0.9792,0.9792,0.9792,0.9792,0.9792,0.9792,0.9792,0.9792,0.9792,0.9792,0.9792,0.9792,0.9792,0.9792,0.9792,0.9792,0.9792,0.9792,0.9792,0.9792,0.9792,0.9792,0.9792,0.9792,0.9792,0.9792,0.9913,1.0065,1.0239,1.0392,1.0538,1.0683,1.0681,1.0688,1.0688,1.0688,1.0688,1.0688,1.0688,1.0688,1.0688,1.0688,1.0688,1.0688,1.0688,1.0688,1.0688,1.0688,1.0688,1.0688,1.0688,1.0688,1.0688,1.0688,1.0688,1.0688,1.0688,1.0688,0.0,0.0,0.0081,0.0431,0.1373,0.2662,0.0,0.5777,0.7092,0.8462,0.8831,0.8912,0.8912,0.8912,0.8912,0.8912,0.8912,0.8912,0.8912,0.8912,0.8912,0.8912,0.9066,0.9224,0.9233,0.9452,0.9625,0.9656,0.9727,0.9792,0.9792,0.9792,0.9792,0.9792,0.9687,0.9642,0.9608,0.9407,0.9271,0.9233,0.9096,0.9014,0.9014,0.9014,0.9103,0.9237,0.9274,0.9356,0.9445,0.9598,0.9659,0.9669,0.9748,0.9792,0.9792,0.9792,0.9792,0.9792,0.9792,0.9792,0.9792,0.9792,0.9792,0.9792,0.9792,0.9792,0.9792,0.9792,0.9792,0.9792,0.9792,0.9792,0.9792,0.9792,0.9792,0.9792,0.9792,0.9792,0.9792,0.9792,0.9913,1.0032,1.0065,1.0321,1.0504,1.0538,1.0643,1.0688,1.0688,1.0688,1.0688,1.0688,1.0688,1.0688,1.0688,1.0688,1.0688,1.0688,1.0688,1.0688,1.0688,1.0688,1.0688,1.0688,1.0688,1.0688,1.0688,1.0688,1.0688,1.0688,1.0688,1.0688,0.0,0.0,0.0,0.0,0.0613,0.157,0.2974,0.4545,0.6096,0.7483,0.8391,0.8912,0.8912,0.8912,0.8912,0.8912,0.8912,0.8912,0.8912,0.8912,0.8912,0.8912,0.9008,0.9107,0.9204,0.9332,0.9429,0.95,0.9578,0.9618,0.9618,0.9618,0.9618,0.9618,0.9476,0.9435,0.9503,0.9298,0.9148,0.9052,0.895,0.8912,0.8912,0.8912,0.8953,0.9059,0.9152,0.923,0.9322,0.9517,0.9608,0.9625,0.9737,0.9792,0.9792,0.9792,0.9792,0.9792,0.9792,0.9792,0.9792,0.9792,0.9792,0.9792,0.9792,0.9792,0.9792,0.9792,0.9792,0.9792,0.9792,0.9792,0.9792,0.9792,0.9792,0.9792,0.9792,0.9792,0.9792,0.9792,0.9856,0.9937,0.9974,1.015,1.0334,1.047,1.0561,1.0639,1.0677,1.0688,1.0688,1.0688,1.0688,1.0688,1.0688,1.0688,1.0688,1.0688,1.0688,1.0688,1.0688,1.0688,1.0688,1.0688,1.0688,1.0688,1.0688,1.0688,1.0688,1.0688,1.0688,1.0688,0.0,0.0,0.0,0.0,0.0,0.037,0.1846,0.3372,0.4909,0.6371,0.785,0.8912,0.8912,0.8912,0.8912,0.8912,0.8912,0.8912,0.8912,0.8912,0.8912,0.8912,0.8912,0.896,0.9138,0.9169,0.9237,0.9366,0.9396,0.941,0.941,0.941,0.941,0.941,0.926,0.9243,0.9373,0.9226,0.9059,0.8912,0.8912,0.8912,0.8912,0.8912,0.8912,0.8919,0.0,0.0,0.9169,0.9422,0.9554,0.9588,0.9704,0.9771,0.9792,0.9792,0.9792,0.9792,0.9792,0.9792,0.9792,0.9792,0.9792,0.9792,0.9792,0.9792,0.9792,0.9792,0.9792,0.9792,0.9792,0.9792,0.9792,0.9792,0.9792,0.9792,0.9792,0.9792,0.9792,0.9792,0.9792,0.9832,0.9961,0.997,1.0103,1.0385,1.0443,1.0514,1.0666,1.0683,1.0694,1.0684,1.0688,1.0688,1.0688,1.0688,1.0688,1.0688,1.0688,1.0688,1.0688,1.0688,1.0688,1.0688,1.0688,1.0688,1.0688,1.0688,1.0688,1.0688,1.0688,1.0688,0.0,0.0,0.0,0.0,0.0,0.0356,0.1727,0.3305,0.4873,0.6254,0.7783,0.8912,0.8912,0.8912,0.8912,0.8912,0.8912,0.8912,0.8912,0.8912,0.8912,0.8912,0.8912,0.8919,0.894,0.9111,0.9221,0.9245,0.9335,0.941,0.941,0.941,0.941,0.941,0.926,0.9221,0.9216,0.9045,0.8933,0.8912,0.8912,0.8912,0.8912,0.8912,0.8912,0.8912,0.0,0.8943,0.8956,0.9182,0.9328,0.9432,0.9585,0.9687,0.9792,0.9792,0.9792,0.9792,0.9792,0.9792,0.9792,0.9792,0.9792,0.9792,0.9792,0.9792,0.9792,0.9792,0.9792,0.9792,0.9792,0.9792,0.9792,0.9792,0.9792,0.9792,0.9792,0.9792,0.9792,0.9792,0.9792,0.9798,0.9822,0.9934,1.0035,1.0079,1.0229,1.0365,1.0507,1.0527,1.0575,1.0707,1.0688,1.0688,1.0688,1.0688,1.0688,1.0688,1.0688,1.0688,1.0688,1.0688,1.0688,1.0688,1.0688,1.0688,1.0688,1.0688,1.0688,1.0688,1.0688,1.0688,0.0,0.0,0.0,0.0,0.0,0.0151,0.0782,0.2769,0.4669,0.5303,0.7278,0.8912,0.8912,0.8912,0.8912,0.8912,0.8912,0.8912,0.8912,0.8912,0.8912,0.8912,0.8912,0.8912,0.8912,0.8998,0.9035,0.9035,0.9103,0.9144,0.9144,0.9144,0.9144,0.9144,0.9072,0.9035,0.9035,0.8943,0.8912,0.8912,0.8912,0.8912,0.8912,0.8912,0.8912,0.8912,0.0,0.8912,0.8923,0.9121,0.9223,0.9311,0.9517,0.9649,0.9717,0.9761,0.9792,0.9792,0.9792,0.9792,0.9792,0.9792,0.9792,0.9792,0.9792,0.9792,0.9792,0.9792,0.9792,0.9792,0.9792,0.9792,0.9792,0.9792,0.9792,0.9792,0.9792,0.9792,0.9792,0.9792,0.9792,0.9792,0.9792,0.9849,0.9923,0.9974,1.0079,1.0209,1.0358,1.0378,1.0405,1.0477,1.0483,1.0483,1.0483,1.0555,1.0633,1.0714,1.0688,1.0688,1.0688,1.0688,1.0688,1.0688,1.0688,1.0688,1.0688,1.0688,1.0688,1.0688,1.0688,1.0688,0.0,0.0,0.0,0.0,0.0,0.0,0.0,0.2338,0.4489,0.4507,0.6836,0.8912,0.8912,0.8912,0.8912,0.8912,0.8912,0.8912,0.8912,0.8912,0.8912,0.8912,0.8912,0.8912,0.8912,0.8912,0.8912,0.8912,0.8912,0.8912,0.8912,0.8912,0.8912,0.8912,0.8912,0.8912,0.8912,0.8912,0.8912,0.8912,0.8912,0.8912,0.8912,0.8912,0.8912,0.8912,0.8912,0.8912,0.8919,0.9055,0.9152,0.9231,0.9441,0.9547,0.9629,0.9737,0.9792,0.9792,0.9792,0.9792,0.9792,0.9792,0.9792,0.9792,0.9792,0.9792,0.9792,0.9792,0.9792,0.9792,0.9792,0.9792,0.9792,0.9792,0.9792,0.9792,0.9792,0.9792,0.9792,0.9792,0.9792,0.9792,0.9792,0.9792,0.9832,0.9947,0.9964,1.0021,1.0205,1.0226,1.0239,1.0276,1.0312,1.0312,1.0312,1.0378,1.049,1.0609,1.068,1.0688,1.0688,1.0688,1.0688,1.0688,1.0688,1.0688,1.0688,1.0688,1.0688,1.0688,1.0688,1.0688,0.0,0.0,0.0,0.0,0.0,0.0,0.0,0.2333,0.4505,0.4498,0.6837,0.8912,0.8912,0.8912,0.8912,0.8912,0.8912,0.8912,0.8912,0.8912,0.8912,0.8912,0.8912,0.8912,0.8912,0.8912,0.8912,0.8912,0.8912,0.8912,0.8912,0.8912,0.8912,0.8912,0.8912,0.8912,0.8912,0.8912,0.8912,0.8912,0.8912,0.8912,0.8912,0.8912,0.8912,0.8912,0.8912,0.8912,0.8912,0.8923,0.9032,0.921,0.9234,0.939,0.9629,0.9737,0.9792,0.9792,0.9792,0.9792,0.9792,0.9792,0.9792,0.9792,0.9792,0.9792,0.9792,0.9792,0.9792,0.9792,0.9792,0.9792,0.9792,0.9792,0.9792,0.9792,0.9792,0.9792,0.9792,0.9792,0.9792,0.9792,0.9792,0.9792,0.9795,0.9805,0.9805,0.9863,1.0015,1.0035,1.0089,1.0263,1.0312,1.0312,1.0312,1.0322,1.0332,1.0346,1.0568,1.0688,1.0688,1.0688,1.0688,1.0688,1.0688,1.0688,1.0688,1.0688,1.0688,1.0688,1.0688,1.0688,0.0,0.0,0.0,0.0,0.0,0.0,0.0,0.233,0.4512,0.4488,0.6843,0.8912,0.8912,0.8912,0.8912,0.8912,0.8912,0.8912,0.8912,0.8912,0.8912,0.8912,0.8912,0.8912,0.8912,0.8912,0.8912,0.8912,0.8912,0.8912,0.8912,0.8912,0.8912,0.8912,0.8912,0.8912,0.8912,0.8912,0.8912,0.8912,0.8912,0.8912,0.8912,0.8912,0.8912,0.8912,0.8912,0.8912,0.8912,0.8912,0.8943,0.9028,0.9145,0.9311,0.9486,0.9635,0.969,0.9703,0.9761,0.9792,0.9792,0.9792,0.9792,0.9792,0.9792,0.9792,0.9792,0.9792,0.9792,0.9792,0.9792,0.9792,0.9792,0.9792,0.9792,0.9792,0.9792,0.9792,0.9792,0.9792,0.9792,0.9792,0.9792,0.9792,0.9792,0.9792,0.9792,0.9812,0.9869,0.9876,0.99,0.9988,0.9995,1.0032,1.0099,1.0106,1.0178,1.0276,1.0385,1.0446,1.0446,1.0446,1.0446,1.0446,1.0534,1.0578,1.0578,1.0673,1.0688,1.0688,1.0688,1.0688,0.0,0.0,0.0,0.0,0.0,0.0131,0.0576,0.267,0.4501,0.4498,0.6841,0.8912,0.8912,0.8912,0.8912,0.8912,0.8912,0.8912,0.8912,0.8912,0.8912,0.8912,0.8912,0.8912,0.8912,0.8912,0.8912,0.8912,0.8912,0.8912,0.8912,0.8912,0.8912,0.8912,0.8912,0.8912,0.8912,0.8912,0.8912,0.8912,0.8912,0.8912,0.8912,0.8912,0.8912,0.8912,0.8912,0.8912,0.8912,0.8912,0.8912,0.8926,0.9124,0.9243,0.9356,0.9483,0.9568,0.9625,0.969,0.9754,0.9792,0.9792,0.9792,0.9792,0.9792,0.9792,0.9792,0.9792,0.9792,0.9792,0.9792,0.9792,0.9792,0.9792,0.9792,0.9792,0.9792,0.9792,0.9792,0.9792,0.9792,0.9792,0.9792,0.9792,0.9792,0.9792,0.9792,0.9792,0.9792,0.9792,0.9792,0.9792,0.9792,0.9832,0.9937,0.9947,0.9991,1.0127,1.0134,1.0178,1.0308,1.0312,1.0312,1.0312,1.0375,1.0426,1.0426,1.0575,1.0649,1.0649,1.0664,1.0688,0.0,0.0,0.0,0.0,0.0,0.0373,0.1862,0.3392,0.4516,0.4538,0.6869,0.8912,0.8912,0.8912,0.8912,0.8912,0.8912,0.8912,0.8912,0.8912,0.8912,0.8912,0.8912,0.8912,0.8912,0.8912,0.8912,0.8912,0.8912,0.8912,0.8912,0.8912,0.8912,0.8912,0.8912,0.8912,0.8912,0.8912,0.8912,0.8912,0.8912,0.8912,0.8912,0.8912,0.8912,0.8912,0.8912,0.8912,0.8912,0.8912,0.8912,0.8926,0.9124,0.9207,0.9224,0.9352,0.9473,0.9605,0.9608,0.97,0.9788,0.9792,0.9792,0.9792,0.9792,0.9792,0.9792,0.9792,0.9792,0.9792,0.9792,0.9792,0.9792,0.9792,0.9792,0.9792,0.9792,0.9792,0.9792,0.9792,0.9792,0.9792,0.9792,0.9792,0.9792,0.9792,0.9792,0.9792,0.9792,0.9792,0.9792,0.9792,0.9792,0.9792,0.9792,0.9792,0.9792,0.9792,0.9792,0.9958,1.0295,1.0308,1.0308,1.0308,1.0308,1.0312,1.0312,1.0422,1.049,1.0493,1.0646,1.0684,0.0,0.0,0.0,0.0,0.0,0.0374,0.1864,0.3399,0.508,0.7168,0.8294,0.8912,0.8912,0.8912,0.8912,0.8912,0.8912,0.8912,0.8912,0.8912,0.8912,0.8912,0.8912,0.8912,0.8912,0.8912,0.8912,0.8912,0.8912,0.8912,0.8912,0.8912,0.8912,0.8912,0.8912,0.8912,0.8912,0.8912,0.8912,0.8912,0.8912,0.8912,0.8912,0.8912,0.8912,0.8912,0.8912,0.8912,0.8912,0.8912,0.8912,0.8916,0.8956,0.9001,0.9022,0.9196,0.9277,0.9349,0.9534,0.9639,0.969,0.9758,0.9792,0.9792,0.9792,0.9792,0.9792,0.9792,0.9792,0.9792,0.9792,0.9792,0.9792,0.9792,0.9792,0.9792,0.9792,0.9792,0.9792,0.9792,0.9792,0.9792,0.9792,0.9792,0.9792,0.9792,0.9792,0.9792,0.9792,0.9792,0.9792,0.9792,0.9792,0.9792,0.9792,0.9792,0.9792,0.9792,0.9792,0.9832,0.9954,0.9958,0.9958,0.9958,1.0032,1.0086,1.0086,1.027,1.0376,1.0348,1.049,1.0561,0.0,0.0,0.0,0.0,0.0447,0.1419,0.3504,0.4714,0.6031,0.8405,0.8912,0.8912,0.8912,0.8912,0.8912,0.8912,0.8912,0.8912,0.8912,0.8912,0.8912,0.8912,0.8912,0.8912,0.8912,0.8912,0.8912,0.8912,0.8912,0.8912,0.8912,0.8912,0.8912,0.8912,0.8912,0.8912,0.8912,0.8912,0.8912,0.8912,0.8912,0.8912,0.8912,0.8912,0.8912,0.8912,0.8912,0.8912,0.8912,0.8912,0.8912,0.8912,0.8912,0.8912,0.8923,0.9035,0.9131,0.9234,0.9393,0.9466,0.9544,0.969,0.9707,0.9717,0.9771,0.9792,0.9792,0.9792,0.9792,0.9792,0.9792,0.9792,0.9792,0.9792,0.9792,0.9792,0.9792,0.9792,0.9792,0.9792,0.9792,0.9792,0.9792,0.9792,0.9792,0.9792,0.9792,0.9792,0.9792,0.9792,0.9792,0.9792,0.9792,0.9792,0.9792,0.9792,0.9792,0.9792,0.9792,0.9792,0.9792,0.9792,0.9792,0.9792,0.9883,0.9927,0.993,1.0114,1.0188,1.0192,1.0341,1.0436,0.0,0.0,0.0025,0.0155,0.1424,0.3335,0.6072,0.6813,0.7288,0.8633,0.8912,0.8912,0.8912,0.8912,0.8912,0.8912,0.8912,0.8912,0.8912,0.8912,0.8912,0.8912,0.8912,0.8912,0.8912,0.8912,0.8912,0.8912,0.8912,0.8912,0.8912,0.8912,0.8912,0.8912,0.8912,0.8912,0.8912,0.8912,0.8912,0.8912,0.8912,0.8912,0.8912,0.8912,0.8912,0.8912,0.8912,0.8912,0.8912,0.8912,0.8912,0.8912,0.8912,0.8912,0.8912,0.8912,0.9022,0.9162,0.9204,0.9274,0.9417,0.954,0.9588,0.9615,0.9727,0.9771,0.9775,0.9788,0.9792,0.9792,0.9792,0.9792,0.9792,0.9792,0.9792,0.9792,0.9792,0.9792,0.9792,0.9792,0.9792,0.9792,0.9792,0.9792,0.9792,0.9792,0.9792,0.9792,0.9792,0.9792,0.9792,0.9792,0.9792,0.9792,0.9792,0.9792,0.9792,0.9792,0.9792,0.9792,0.9792,0.9792,0.9792,0.9792,0.9792,0.9792,0.9792,0.993,0.9998,1.0001,1.0188,1.0327,0.0,0.0,0.028,0.1443,0.3756,0.5895,0.6551,0.7595,0.8519,0.8826,0.8912,0.8912,0.8912,0.8912,0.8912,0.8912,0.8912,0.8912,0.8912,0.8912,0.8912,0.8912,0.8912,0.8912,0.8912,0.8912,0.8912,0.8912,0.8912,0.8912,0.8912,0.8912,0.8912,0.8912,0.8912,0.8912,0.8912,0.8912,0.8912,0.8912,0.8912,0.8912,0.8912,0.8912,0.8912,0.8912,0.8912,0.8912,0.8912,0.8912,0.8912,0.8912,0.8912,0.8912,0.8912,0.8912,0.8929,0.8973,0.9141,0.9231,0.9254,0.941,0.9432,0.9459,0.9608,0.9656,0.968,0.9758,0.9792,0.9792,0.9792,0.9792,0.9792,0.9792,0.9792,0.9792,0.9792,0.9792,0.9792,0.9792,0.9792,0.9792,0.9792,0.9792,0.9792,0.9792,0.9792,0.9792,0.9792,0.9792,0.9792,0.9792,0.9792,0.9792,0.9792,0.9792,0.9792,0.9792,0.9792,0.9792,0.9792,0.9792,0.9792,0.9792,0.9792,0.9792,0.9792,0.9822,0.9839,0.9842,0.9994,1.0082,0.0,0.0,0.0535,0.2738,0.5011,0.6897,0.7595,0.8349,0.8912,0.8912,0.8912,0.8912,0.8912,0.8912,0.8912,0.8912,0.8912,0.8912,0.8912,0.8912,0.8912,0.8912,0.8912,0.8912,0.8912,0.8912,0.8912,0.8912,0.8912,0.8912,0.8912,0.8912,0.8912,0.8912,0.8912,0.8912,0.8912,0.8912,0.8912,0.8912,0.8912,0.8912,0.8912,0.8912,0.8912,0.8912,0.8912,0.8912,0.8912,0.8912,0.8912,0.8912,0.8912,0.8912,0.8912,0.8912,0.8912,0.8923,0.9025,0.9052,0.9072,0.925,0.9301,0.9328,0.9452,0.95,0.953,0.968,0.969,0.9704,0.9771,0.9792,0.9792,0.9792,0.9792,0.9792,0.9792,0.9792,0.9792,0.9792,0.9792,0.9792,0.9792,0.9792,0.9792,0.9792,0.9792,0.9792,0.9792,0.9792,0.9792,0.9792,0.9792,0.9792,0.9792,0.9792,0.9792,0.9792,0.9792,0.9792,0.9792,0.9792,0.9792,0.9792,0.9792,0.9792,0.9792,0.9792,0.9792,0.9792,0.9873,0.9947,0.0,0.0354,0.1378,0.4157,0.5949,0.7373,0.8626,0.8912,0.8912,0.8912,0.8912,0.8912,0.8912,0.8912,0.8912,0.8912,0.8912,0.8912,0.8912,0.8912,0.8912,0.8912,0.8912,0.8912,0.8912,0.8912,0.8912,0.8912,0.8912,0.8912,0.8912,0.8912,0.8912,0.8912,0.8912,0.8912,0.8912,0.8912,0.8912,0.8912,0.8912,0.8912,0.8912,0.8912,0.8912,0.8912,0.8912,0.8912,0.8912,0.8912,0.8912,0.8912,0.8912,0.8912,0.8912,0.8912,0.8912,0.8912,0.8912,0.8912,0.8929,0.9107,0.9145,0.9172,0.9325,0.9373,0.9403,0.9527,0.9588,0.9635,0.9724,0.9771,0.9792,0.9792,0.9792,0.9792,0.9792,0.9792,0.9792,0.9792,0.9792,0.9792,0.9792,0.9792,0.9792,0.9792,0.9792,0.9792,0.9792,0.9792,0.9792,0.9792,0.9792,0.9792,0.9792,0.9792,0.9792,0.9792,0.9792,0.9792,0.9792,0.9792,0.9792,0.9792,0.9792,0.9792,0.9792,0.9792,0.9792,0.9792,0.9792,0.9859,0.0,0.1783,0.4059,0.5803,0.7345,0.8526,0.8824,0.8912,0.8912,0.8912,0.8912,0.8912,0.8912,0.8912,0.8912,0.8912,0.8912,0.8912,0.8912,0.8912,0.8912,0.8912,0.8912,0.8912,0.8912,0.8912,0.8912,0.8912,0.8912,0.8912,0.8912,0.8912,0.8912,0.8912,0.8912,0.8912,0.8912,0.8912,0.8912,0.8912,0.8912,0.8912,0.8912,0.8912,0.8912,0.8912,0.8912,0.8912,0.8912,0.8912,0.8912,0.8912,0.8912,0.8912,0.8912,0.8912,0.8912,0.8912,0.8912,0.8912,0.8916,0.8933,0.894,0.8967,0.9169,0.9241,0.9243,0.9396,0.9507,0.9612,0.9632,0.97,0.9792,0.9792,0.9792,0.9792,0.9792,0.9792,0.9792,0.9792,0.9792,0.9792,0.9792,0.9792,0.9792,0.9792,0.9792,0.9792,0.9792,0.9792,0.9792,0.9792,0.9792,0.9792,0.9792,0.9792,0.9792,0.9792,0.9792,0.9792,0.9792,0.9792,0.9792,0.9792,0.9792,0.9792,0.9792,0.9792,0.9792,0.9792,0.9792,0.9802,0.0923,0.2625,0.4551,0.6018,0.7546,0.8726,0.8767,0.8848,0.8912,0.8912,0.8912,0.8912,0.8912,0.8912,0.8912,0.8912,0.8912,0.8912,0.8912,0.8912,0.8912,0.8912,0.8912,0.8912,0.8912,0.8912,0.8912,0.8912,0.8912,0.8912,0.8912,0.8912,0.8912,0.8912,0.8912,0.8912,0.8912,0.8912,0.8912,0.8912,0.8912,0.8912,0.8881,0.8042,0.7679,0.7679,0.7679,0.7202,0.6422,0.6422,0.6422,0.6422,0.6422,0.6422,0.6422,0.6422,0.6422,0.6422,0.6422,0.6422,0.6422,0.6422,0.6422,0.6457,0.6532,0.6575,0.6766,0.7738,0.8049,0.8314,0.9251,0.9591,0.9703,0.9703,0.9734,0.9792,0.9792,0.9792,0.9792,0.9792,0.9792,0.9792,0.9792,0.9792,0.9792,0.9792,0.9792,0.9792,0.9792,0.9792,0.9792,0.9792,0.9792,0.9792,0.9792,0.9792,0.9792,0.9792,0.9792,0.9792,0.9792,0.9792,0.9792,0.9792,0.9792,0.9792,0.9792,0.9792,0.9792,0.9792,0.9792,0.9792,0.1637,0.306,0.449,0.5952,0.7453,0.8618,0.8693,0.877,0.8865,0.8902,0.8912,0.8912,0.8912,0.8912,0.8912,0.8912,0.8912,0.8912,0.8912,0.8912,0.8912,0.8912,0.8912,0.8912,0.8912,0.8912,0.8912,0.8912,0.8912,0.8912,0.8912,0.8912,0.8912,0.8912,0.8912,0.8912,0.8912,0.8912,0.8912,0.8912,0.8912,0.8716,0.8294,0.7204,0.6281,0.5584,0.5975,0.553,0.4498,0.4498,0.4498,0.4498,0.4498,0.4498,0.4498,0.4498,0.4498,0.4498,0.4498,0.4498,0.4498,0.4498,0.4498,0.4498,0.4498,0.4498,0.4817,0.64,0.6868,0.7282,0.8916,0.9439,0.9551,0.9551,0.9632,0.973,0.9775,0.9792,0.9792,0.9792,0.9792,0.9792,0.9792,0.9792,0.9792,0.9792,0.9792,0.9792,0.9792,0.9792,0.9792,0.9792,0.9792,0.9792,0.9792,0.9792,0.9792,0.9792,0.9792,0.9792,0.9792,0.9792,0.9792,0.9792,0.9792,0.9792,0.9792,0.9792,0.9792,0.9792,0.9792,0.9792,0.164,0.2976,0.439,0.5906,0.7315,0.8393,0.8648,0.8716,0.8737,0.8882,0.8912,0.8912,0.8912,0.8912,0.8912,0.8912,0.8912,0.8912,0.8912,0.8912,0.8912,0.8912,0.8912,0.8912,0.8912,0.8912,0.8912,0.8912,0.8912,0.8912,0.8912,0.8912,0.8912,0.8912,0.8912,0.8912,0.8912,0.8912,0.8912,0.8912,0.8912,0.8156,0.6813,0.673,0.5135,0.2515,0.3967,0.4582,0.4498,0.4498,0.4498,0.4498,0.4498,0.4498,0.4498,0.4498,0.4498,0.4498,0.4498,0.4498,0.4498,0.4498,0.4498,0.4498,0.4498,0.4498,0.4806,0.6288,0.6809,0.7261,0.8817,0.9305,0.9424,0.9424,0.9427,0.9483,0.9731,0.9792,0.9792,0.9792,0.9792,0.9792,0.9792,0.9792,0.9792,0.9792,0.9792,0.9792,0.9792,0.9792,0.9792,0.9792,0.9792,0.9792,0.9792,0.9792,0.9792,0.9792,0.9792,0.9792,0.9792,0.9792,0.9792,0.9792,0.9792,0.9792,0.9792,0.9792,0.9792,0.9792,0.9792,0.9792,0.1628,0.2358,0.3271,0.5528,0.6574,0.7278,0.8219,0.8574,0.8726,0.8754,0.8841,0.8912,0.8912,0.8912,0.8912,0.8912,0.8912,0.8912,0.8912,0.8912,0.8912,0.8912,0.8912,0.8912,0.8912,0.8912,0.8912,0.8912,0.8912,0.8912,0.8912,0.8912,0.8912,0.8912,0.8912,0.8912,0.8912,0.8912,0.8912,0.8912,0.8912,0.8633,0.8042,0.6144,0.4693,0.3604,0.2209,0.1623,0.1623,0.1623,0.1623,0.1623,0.1623,0.1623,0.1623,0.1623,0.1623,0.1623,0.1623,0.1623,0.1623,0.1623,0.1623,0.1623,0.1623,0.1623,0.2126,0.4582,0.533,0.5915,0.8366,0.9152,0.9288,0.9386,0.941,0.9437,0.9517,0.9686,0.9792,0.9792,0.9792,0.9792,0.9792,0.9792,0.9792,0.9792,0.9792,0.9792,0.9792,0.9792,0.9792,0.9792,0.9792,0.9792,0.9792,0.9792,0.9792,0.9792,0.9792,0.9792,0.9792,0.9792,0.9792,0.9792,0.9792,0.9792,0.9792,0.9792,0.9792,0.9792,0.9792,0.9792,0.1082,0.1656,0.2431,0.4202,0.5422,0.6455,0.7399,0.8102,0.8591,0.8689,0.8764,0.8848,0.8902,0.8912,0.8912,0.8912,0.8912,0.8912,0.8912,0.8912,0.8912,0.8912,0.8912,0.8912,0.8912,0.8912,0.8912,0.8912,0.8912,0.0,0.8912,0.8912,0.8912,0.8912,0.8912,0.8912,0.8912,0.8912,0.8912,0.8912,0.8912,0.8629,0.8069,0.5614,0.4219,0.3576,0.1092,0.0,0.0,0.0,0.0,0.0,0.0,0.0,0.0,0.0,0.0,0.0,0.0,0.0,0.0,0.0,0.0,0.0,0.0,0.0,0.0532,0.3018,0.3716,0.4301,0.6785,0.7879,0.8508,0.9091,0.9269,0.9332,0.9332,0.954,0.9721,0.9721,0.9758,0.9792,0.9792,0.9792,0.9792,0.9792,0.9792,0.9792,0.9792,0.9792,0.9792,0.9792,0.9792,0.9792,0.9792,0.9792,0.9792,0.9792,0.9792,0.9792,0.9792,0.9792,0.9792,0.9792,0.9792,0.9792,0.9792,0.9792,0.9792,0.9792,0.9792,0.9792,0.0,0.0,0.0,0.2001,0.3967,0.5954,0.6238,0.7303,0.8324,0.8638,0.8703,0.8723,0.8875,0.8902,0.8906,0.8912,0.8912,0.8912,0.8912,0.8912,0.8912,0.8912,0.8912,0.8912,0.8912,0.8912,0.8912,0.8912,0.8912,0.8912,0.8912,0.8912,0.8912,0.8912,0.8912,0.8912,0.8912,0.8912,0.8912,0.8912,0.8912,0.8156,0.6702,0.525,0.3716,0.218,0.07,0.0028,0.0,0.0,0.0,0.0,0.0,0.0,0.0,0.0,0.0,0.0,0.0,0.0,0.0,0.0,0.0,0.0,0.0,0.0,0.0308,0.1789,0.2208,0.2543,0.4108,0.5586,0.7066,0.8491,0.9017,0.9204,0.9204,0.9413,0.9598,0.9602,0.9717,0.9785,0.9785,0.9788,0.9792,0.9792,0.9792,0.9792,0.9792,0.9792,0.9792,0.9792,0.9792,0.9792,0.9792,0.9792,0.9792,0.9792,0.9792,0.9792,0.9792,0.9792,0.9792,0.9792,0.9792,0.9792,0.9792,0.9792,0.9792,0.9792,0.9792,0.9792,0.0,0.0,0.0,0.0,0.0,0.0,0.5635,0.6492,0.7144,0.8189,0.8498,0.8591,0.872,0.8747,0.8784,0.8892,0.8912,0.8912,0.8912,0.8912,0.8912,0.8912,0.8912,0.8912,0.8912,0.8912,0.8912,0.0,0.8912,0.8912,0.8912,0.8912,0.8912,0.8912,0.8912,0.8912,0.8912,0.8912,0.8912,0.8912,0.8912,0.8688,0.8239,0.6755,0.5278,0.3772,0.2264,0.098,0.0,0.0,0.0,0.0,0.0,0.0,0.0,0.0,0.0,0.0,0.0,0.0,0.0,0.0,0.0,0.0,0.0,0.0,0.0308,0.1789,0.2208,0.2543,0.4108,0.5586,0.6813,0.7204,0.8153,0.897,0.897,0.9147,0.9342,0.9422,0.9564,0.9666,0.9666,0.9721,0.9792,0.9792,0.9792,0.9792,0.9792,0.9792,0.9792,0.9792,0.9792,0.9792,0.9792,0.9792,0.9792,0.9792,0.9792,0.9792,0.9792,0.9792,0.9792,0.9792,0.9792,0.9792,0.9792,0.9792,0.9792,0.9792,0.9792,0.9792,0.0,0.0,0.0191,0.0975,0.0,0.0,0.467,0.5695,0.6574,0.7996,0.8362,0.8464,0.8587,0.8615,0.8665,0.8791,0.8818,0.8838,0.8902,0.8912,0.8912,0.8912,0.8912,0.8912,0.8912,0.8912,0.8912,0.8912,0.8912,0.8912,0.8912,0.8912,0.8912,0.8912,0.8912,0.8912,0.8912,0.8912,0.8912,0.8912,0.8912,0.8912,0.8854,0.7371,0.5892,0.4414,0.2878,0.1371,0.0,0.0,0.0,0.0,0.0,0.0,0.0,0.0,0.0,0.0,0.0,0.0,0.0,0.0,0.0,0.0,0.0,0.0,0.0168,0.1036,0.1287,0.1622,0.3158,0.4188,0.5135,0.6394,0.7343,0.8156,0.8771,0.9005,0.9134,0.9284,0.9437,0.9513,0.9513,0.9635,0.9704,0.9704,0.9754,0.9792,0.9792,0.9792,0.9792,0.9792,0.9792,0.9792,0.9792,0.9792,0.9792,0.9792,0.9792,0.9792,0.9792,0.9792,0.9792,0.9792,0.9792,0.9792,0.9792,0.9792,0.9792,0.9792,0.9792,0.9792,0.0,0.0,0.0,0.0,0.0893,0.0,0.3465,0.4695,0.6032,0.7703,0.8037,0.8132,0.8431,0.8485,0.8536,0.8662,0.8699,0.8737,0.8889,0.8912,0.8912,0.8912,0.8912,0.8912,0.8912,0.8912,0.8912,0.8912,0.8912,0.8912,0.8912,0.8912,0.8912,0.8912,0.8912,0.8912,0.8912,0.8912,0.8912,0.8912,0.8912,0.8912,0.8854,0.7537,0.6058,0.4414,0.3045,0.151,0.0,0.0,0.0,0.0,0.0,0.0,0.0,0.0,0.0,0.0,0.0,0.0,0.0,0.0,0.0,0.0,0.0,0.0,0.0,0.0,0.0,0.0308,0.1622,0.2068,0.2932,0.5778,0.6589,0.7091,0.8574,0.8912,0.895,0.9131,0.9281,0.9386,0.9386,0.9483,0.9591,0.9608,0.9687,0.9771,0.9788,0.9792,0.9792,0.9792,0.9792,0.9792,0.9792,0.9792,0.9792,0.9792,0.9792,0.9792,0.9792,0.9792,0.9792,0.9792,0.9792,0.9792,0.9792,0.9792,0.9792,0.9792,0.9792,0.9792,0.0,0.0,0.0,0.0,0.0197,0.0,0.2088,0.2589,0.3472,0.5932,0.6442,0.6833,0.8103,0.8338,0.8386,0.8529,0.8628,0.8737,0.8889,0.8912,0.8912,0.8912,0.8912,0.8912,0.8912,0.8912,0.8912,0.8912,0.8912,0.8912,0.8912,0.8912,0.8912,0.8912,0.8912,0.8912,0.8912,0.8912,0.8912,0.8912,0.8912,0.8912,0.8881,0.8602,0.7008,0.447,0.4191,0.2517,0.0,0.0,0.0,0.0,0.0,0.0,0.0,0.0,0.0,0.0,0.0,0.0,0.0,0.0,0.0,0.0,0.0,0.0,0.0,0.0,0.0,0.0056,0.0364,0.1315,0.2654,0.4496,0.5836,0.7091,0.8574,0.8912,0.8919,0.8946,0.9096,0.9226,0.9226,0.9352,0.9466,0.9591,0.9632,0.9693,0.9775,0.9792,0.9792,0.9792,0.9792,0.9792,0.9792,0.9792,0.9792,0.9792,0.9792,0.9792,0.9792,0.9792,0.9792,0.9792,0.9792,0.9792,0.9792,0.9792,0.9792,0.9792,0.9792,0.9792,0.0,0.0,0.0,0.0,0.0,0.0,0.0,0.1988,0.2564,0.4595,0.5525,0.6247,0.7021,0.7696,0.8204,0.8379,0.8468,0.8543,0.8689,0.8814,0.8912,0.8912,0.8912,0.8912,0.8912,0.8912,0.8912,0.8912,0.8912,0.8912,0.8912,0.8912,0.8912,0.8912,0.8912,0.8912,0.8912,0.8912,0.8912,0.8912,0.8912,0.8912,0.8881,0.8128,0.6589,0.447,0.3688,0.2069,0.0,0.0,0.0,0.0,0.0,0.0,0.0,0.0,0.0,0.0,0.0,0.0,0.0,0.0,0.0,0.0,0.0,0.0,0.0,0.0,0.0,0.0,0.0,0.056,0.1678,0.3968,0.5057,0.6197,0.8432,0.8912,0.8912,0.8912,0.897,0.9045,0.9045,0.9199,0.9322,0.94,0.9445,0.9547,0.9696,0.9687,0.9714,0.9785,0.9792,0.9792,0.9792,0.9792,0.9792,0.9792,0.9792,0.9792,0.9792,0.9792,0.9792,0.9792,0.9792,0.9792,0.9792,0.9792,0.9792,0.9792,0.9792,0.9792,0.0,0.0,0.0,0.0,0.0,0.0278,0.0,0.0,0.0,0.3341,0.447,0.53,0.5575,0.6706,0.7666,0.7806,0.8079,0.8325,0.8384,0.8659,0.8835,0.8865,0.8892,0.8912,0.8912,0.8912,0.8912,0.8912,0.8912,0.8912,0.8912,0.8912,0.8912,0.8912,0.8912,0.8912,0.8912,0.8912,0.8912,0.8912,0.8912,0.8743,0.8436,0.7232,0.5725,0.3995,0.2738,0.1371,0.0,0.0,0.0,0.0,0.0,0.0,0.0,0.0,0.0,0.0,0.0,0.0,0.0,0.0,0.0,0.0,0.0,0.0,0.0,0.0,0.0,0.0,0.0,0.0,0.0672,0.3409,0.4275,0.5222,0.7903,0.8688,0.8912,0.8912,0.8912,0.8912,0.8912,0.9035,0.9148,0.9207,0.9288,0.942,0.9547,0.9591,0.9652,0.9737,0.9775,0.9792,0.9792,0.9792,0.9792,0.9792,0.9792,0.9792,0.9792,0.9792,0.9792,0.9792,0.9792,0.9792,0.9792,0.9792,0.9792,0.9792,0.9792,0.9792,0.0,0.0,0.0,0.0,0.0,0.0051,0.0202,0.0,0.0605,0.1962,0.0,0.2815,0.4017,0.0,0.0,0.6108,0.7331,0.8253,0.8081,0.8347,0.8584,0.872,0.8828,0.8912,0.8912,0.8912,0.8912,0.8912,0.8912,0.8912,0.8912,0.8912,0.8912,0.8912,0.8912,0.8912,0.8912,0.8912,0.8912,0.8912,0.8912,0.8211,0.6952,0.6785,0.5137,0.2459,0.2263,0.1371,0.0,0.0,0.0,0.0,0.0,0.0,0.0,0.0,0.0,0.0,0.0,0.0,0.0,0.0,0.0,0.0,0.0,0.0,0.0,0.0,0.0,0.0,0.0,0.0,0.042,0.2069,0.3493,0.4946,0.6589,0.7986,0.8912,0.8912,0.8912,0.8912,0.8912,0.8926,0.9008,0.9162,0.9224,0.9264,0.9417,0.9523,0.9615,0.9632,0.9714,0.9792,0.9792,0.9792,0.9792,0.9792,0.9792,0.9792,0.9792,0.9792,0.9792,0.9792,0.9792,0.9792,0.9792,0.9792,0.9792,0.9792,0.9792,0.9792,0.0,0.0,0.0,0.0,0.0,0.0,0.0,0.0,0.0151,0.0731,0.0,0.0,0.0,0.0,0.0,0.0,0.5354,0.5773,0.5704,0.5878,0.6671,0.8491,0.874,0.0,0.8902,0.8912,0.8912,0.8912,0.8912,0.8912,0.8912,0.8912,0.8912,0.8912,0.8912,0.8912,0.8912,0.8912,0.8912,0.8912,0.8912,0.8128,0.6672,0.5808,0.4244,0.2152,0.1287,0.056,0.0,0.0,0.0,0.0,0.0,0.0,0.0,0.0,0.0,0.0,0.0,0.0,0.0,0.0,0.0,0.0,0.0,0.0,0.0,0.0,0.0,0.0,0.0,0.0,0.0364,0.1845,0.2682,0.3826,0.6197,0.7177,0.7875,0.8743,0.8912,0.8912,0.8912,0.8912,0.8929,0.9018,0.9028,0.9083,0.9257,0.9335,0.941,0.9466,0.9608,0.9696,0.9696,0.9744,0.9792,0.9792,0.9792,0.9792,0.9792,0.9792,0.9792,0.9792,0.9792,0.9792,0.9792,0.9792,0.9792,0.9792,0.9792,0.9792,0.0,0.0,0.0,0.0,0.0,0.0,0.0,0.0,0.0,0.0,0.0782,0.0,0.0,0.0,0.3435,0.3393,0.0,0.3984,0.3939,0.4051,0.4975,0.7216,0.752,0.0,0.0,0.7937,0.8042,0.8826,0.8519,0.8463,0.8881,0.8912,0.8912,0.8912,0.8912,0.8912,0.8912,0.8912,0.8688,0.8294,0.8294,0.7313,0.5443,0.4357,0.3046,0.1538,0.0476,0.0,0.0,0.0,0.0,0.0,0.0,0.0,0.0,0.0,0.0,0.0,0.0,0.0,0.0,0.0,0.0,0.0,0.0,0.0,0.0,0.0,0.0,0.0,0.0,0.0,0.028,0.1343,0.1901,0.2904,0.5528,0.6422,0.7149,0.8605,0.8912,0.8912,0.8912,0.8912,0.8912,0.8912,0.8912,0.895,0.9111,0.9155,0.9223,0.9335,0.9456,0.9547,0.9547,0.9642,0.972,0.9731,0.9768,0.9792,0.9792,0.9792,0.9792,0.9792,0.9792,0.9792,0.9792,0.9792,0.9792,0.9792,0.9792,0.9792,0.0,0.0,0.0,0.0,0.0,0.0,0.0,0.0,0.0,0.0,0.0,0.0,0.0076,0.1159,0.2026,0.1893,0.3081,0.0,0.0,0.3925,0.4098,0.4308,0.4507,0.5201,0.0,0.5478,0.5836,0.8688,0.7568,0.7399,0.8826,0.8912,0.8912,0.8912,0.8912,0.8912,0.8912,0.8912,0.8183,0.6785,0.6785,0.522,0.2347,0.2291,0.1454,0.0056,0.0028,0.0,0.0,0.0,0.0,0.0,0.0,0.0,0.0,0.0,0.0,0.0,0.0,0.0,0.0,0.0,0.0,0.0,0.0,0.0,0.0,0.0,0.0,0.0,0.0,0.0,0.0,0.0056,0.1147,0.2626,0.4219,0.5697,0.7149,0.8605,0.8912,0.8912,0.8912,0.8912,0.8912,0.8912,0.8912,0.8912,0.8919,0.9066,0.921,0.9217,0.9325,0.9417,0.9417,0.9424,0.9459,0.9608,0.9714,0.9792,0.9792,0.9792,0.9792,0.9792,0.9792,0.9792,0.9792,0.9792,0.9792,0.9792,0.9792,0.9792,0.0,0.0,0.0,0.0,0.0,0.0,0.0,0.0,0.0,0.0,0.0,0.0,0.0,0.0379,0.0654,0.0626,0.1029,0.1332,0.0,0.133,0.1363,0.1423,0.3251,0.4706,0.5193,0.5664,0.6371,0.7365,0.7875,0.838,0.8881,0.8912,0.8912,0.8912,0.8912,0.8436,0.7454,0.7454,0.6702,0.525,0.525,0.4162,0.2208,0.2208,0.1399,0.0,0.0,0.0,0.0,0.0,0.0,0.0,0.0,0.0,0.0,0.0,0.0,0.0,0.0,0.0,0.0,0.0,0.0,0.0,0.0,0.0,0.0,0.0,0.0,0.0,0.0,0.0,0.0,0.0,0.0392,0.1147,0.2654,0.4162,0.5669,0.7149,0.8239,0.8912,0.8912,0.8912,0.8912,0.8912,0.8912,0.8912,0.8912,0.8953,0.9011,0.9011,0.9172,0.9257,0.9257,0.9352,0.9434,0.9456,0.9503,0.953,0.953,0.9629,0.9683,0.9683,0.9744,0.9792,0.9792,0.9792,0.9792,0.9792,0.9792,0.9792,0.0,0.0,0.0,0.0,0.0,0.0,0.0,0.0,0.0,0.0,0.0,0.0,0.0,0.0,0.0,0.0,0.0,0.0,0.0,0.0,0.0,0.0,0.1707,0.3118,0.3634,0.4056,0.476,0.5833,0.6287,0.6753,0.7315,0.7343,0.7343,0.7343,0.7343,0.6869,0.5919,0.5919,0.5166,0.3688,0.3688,0.2879,0.1426,0.1426,0.0896,0.0,0.0,0.0,0.0,0.0,0.0,0.0,0.0,0.0,0.0,0.0,0.0,0.0,0.0,0.0,0.0,0.0,0.0,0.0,0.0,0.0,0.0,0.0,0.0,0.0,0.0,0.0,0.0,0.0,0.0,0.0392,0.1873,0.3409,0.4944,0.6422,0.7903,0.8912,0.8912,0.8912,0.8912,0.8912,0.8912,0.8912,0.8912,0.8912,0.8912,0.8912,0.9022,0.9104,0.9104,0.9243,0.9328,0.9328,0.9379,0.941,0.941,0.9476,0.953,0.953,0.9618,0.9666,0.9666,0.972,0.9714,0.9717,0.9768,0.9792]},{"header":{"parameterUnit":"m.s-1","parameterCategory":1,"la1":30.6,"la2":29.2853,"lo1":-89.7004,"lo2":-87.6739,"dy":0.0162,"dx":0.0183,"nx":112,"ny":82,"refTime":"2023-10-20T06:00:00:Z","depth":0,"parameterNumber":3,"parameterNumberName":"V-component_of_WINDS"},"data":[0.0,0.0,0.0,0.0,0.0,0.0,0.0,0.0,0.0,0.0,0.0,0.0,0.0,0.0,0.0,0.0,0.0,0.0,0.0,0.0,0.0,0.0,0.0,0.0,0.0,0.0,0.0,0.0,0.0,0.0,0.0,0.0,0.0,0.0,0.0,0.0,0.0,0.0,0.0,0.0,0.0,0.0,0.0,0.0,0.0,0.0,0.0,0.0,0.0,0.0,0.0,0.0,0.0,0.0,0.0,0.0,0.0,0.0,0.0,0.0,0.0,0.0,0.0,0.0,0.0,0.0,0.0,0.0,0.0,0.0,0.0,0.0,0.0,0.0,0.0,0.0,0.0,0.0,0.0,0.0,0.0,0.0,0.0,0.0,0.0,0.0,0.0,0.0,0.0,0.0,3.55,3.55,3.55,3.55,3.55,3.55,3.55,3.55,0.0,0.0,0.0,0.0,0.0,0.0,0.0,0.0,0.0,0.0,0.0,0.0,0.0,0.0,0.0,0.0,0.0,0.0,0.0,0.0,0.0,0.0,0.0,0.0,0.0,0.0,0.0,0.0,0.0,0.0,0.0,0.0,0.0,0.0,0.0,0.0,0.0,0.0,0.0,0.0,0.0,0.0,0.0,0.0,0.0,0.0,0.0,0.0,0.0,0.0,0.0,0.0,0.0,0.0,0.0,0.0,0.0,0.0,0.0,0.0,0.0,0.0,0.0,0.0,0.0,0.0,0.0,0.0,0.0,0.0,0.0,0.0,0.0,0.0,0.0,0.0,0.0,0.0,0.0,0.0,0.0,0.0,0.0,0.0,0.0,0.0,0.0,0.0,0.0,0.0,0.0,0.0,0.0,0.0,0.0,0.0,0.0,0.0,0.0,0.0,0.0,0.0,0.0,0.0,3.55,3.55,3.55,3.55,3.55,3.55,3.55,3.55,0.0,0.0,0.0,0.0,0.0,0.0,0.0,0.0,0.0,0.0,0.0,0.0,0.0,0.0,0.0,0.0,0.0,0.0,0.0,0.0,0.0,0.0,0.0,0.0,0.0,0.0,0.0,0.0,0.0,0.0,0.0,0.0,0.0,0.0,0.0,0.0,0.0,0.0,0.0,0.0,0.0,0.0,0.0,0.0,0.0,0.0,0.0,0.0,0.0,0.0,0.0,0.0,0.0,0.0,0.0,0.0,0.0,0.0,0.0,0.0,0.0,0.0,0.0,0.0,0.0,0.0,0.0,0.0,0.0,0.0,0.0,0.0,0.0,0.0,0.0,0.0,0.0,0.0,0.0,0.0,0.0,0.0,0.0,0.0,0.0,0.0,0.0,0.0,0.0,0.0,0.0,0.0,0.0,0.0,0.0,0.0,0.0,0.0,0.0,0.0,0.0,0.0,0.0,3.55,3.55,3.55,3.55,3.55,3.55,3.55,3.55,3.55,3.5904,0.0,0.0,0.0,0.0,0.0,0.0,0.0,0.0,0.0,0.0,0.0,0.0,0.0,0.0,0.0,0.0,0.0,0.0,0.0,0.0,0.0,0.0,0.0,0.0,0.0,0.0,0.0,0.0,0.0,0.0,0.0,0.0,0.0,0.0,0.0,0.0,0.0,0.0,0.0,0.0,0.0,0.0,0.0,0.0,0.0,0.0,0.0,0.0,0.0,0.0,0.0,0.0,0.0,0.0,0.0,0.0,0.0,0.0,0.0,0.0,0.0,0.0,0.0,0.0,0.0,0.0,0.0,0.0,0.0,0.0,0.0,0.0,0.0,0.0,0.0,0.0,0.0,0.0,0.0,0.0,0.0,0.0,0.0,0.0,0.0,0.0,0.0,0.0,0.0,0.0,0.0,0.0,0.0,0.0,0.0,0.0,0.0,0.0,0.0,0.0,0.0,0.0,3.5673,3.5788,3.5788,3.5962,3.61,3.61,3.61,3.61,3.61,3.6677,0.0,0.0,0.0,0.0,0.0,0.0,0.0,0.0,0.0,0.0,0.0,0.0,0.0,0.0,0.0,0.0,0.0,0.0,0.0,0.0,0.0,0.0,0.0,0.0,0.0,0.0,0.0,0.0,0.0,0.0,0.0,0.0,0.0,0.0,0.0,0.0,0.0,0.0,0.0,0.0,0.0,0.0,0.0,0.0,0.0,0.0,0.0,0.0,0.0,0.0,0.0,0.0,0.0,0.0,0.0,0.0,0.0,0.0,0.0,0.0,0.0,0.0,0.0,0.0,0.0,0.0,0.0,0.0,0.0,0.0,0.0,0.0,0.0,0.0,0.0,0.0,0.0,0.0,0.0,0.0,0.0,0.0,0.0,0.0,0.0,0.0,0.0,0.0,0.0,0.0,0.0,0.0,0.0,0.0,0.0,0.0,0.0,0.0,0.0,0.0,0.0,0.0,3.6154,3.6619,3.6619,3.7331,3.7815,3.7815,3.7815,3.7815,3.7815,3.7873,0.0,0.0,0.0,0.0,0.0,0.0,0.0,0.0,0.0,0.0,0.0,0.0,0.0,0.0,0.0,0.0,0.0,0.0,0.0,0.0,0.0,0.0,0.0,0.0,0.0,0.0,0.0,0.0,0.0,0.0,0.0,0.0,0.0,0.0,0.0,0.0,0.0,0.0,0.0,0.0,0.0,0.0,0.0,0.0,0.0,0.0,0.0,0.0,0.0,0.0,0.0,0.0,0.0,0.0,0.0,0.0,0.0,0.0,0.0,0.0,0.0,0.0,0.0,0.0,0.0,0.0,0.0,0.0,0.0,0.0,0.0,0.0,0.0,0.0,0.0,0.0,0.0,0.0,0.0,0.0,0.0,0.0,0.0,0.0,0.0,0.0,0.0,0.0,0.0,0.0,0.0,0.0,0.0,0.0,0.0,0.0,0.0,0.0,0.0,0.0,0.0,0.0,3.7311,3.7504,3.7504,3.7796,3.8007,3.8007,3.8007,3.8007,3.8007,0.0,0.0,0.0,0.0,0.0,0.0,0.0,0.0,0.0,0.0,0.0,0.0,0.0,0.0,0.0,0.0,0.0,0.0,0.0,0.0,0.0,0.0,0.0,0.0,0.0,0.0,0.0,0.0,0.0,0.0,0.0,0.0,0.0,0.0,0.0,0.0,0.0,0.0,0.0,0.0,0.0,0.0,0.0,0.0,0.0,0.0,0.0,0.0,0.0,0.0,0.0,0.0,0.0,0.0,0.0,0.0,0.0,0.0,0.0,0.0,0.0,0.0,0.0,0.0,0.0,0.0,0.0,0.0,0.0,0.0,0.0,0.0,0.0,0.0,0.0,0.0,0.0,0.0,0.0,0.0,0.0,0.0,0.0,0.0,0.0,0.0,0.0,0.0,0.0,0.0,0.0,0.0,0.0,0.0,0.0,0.0,0.0,0.0,0.0,0.0,0.0,0.0,3.8007,3.8238,3.8411,3.8411,3.8646,3.88,3.88,3.88,3.88,3.88,0.0,0.0,0.0,0.0,0.0,0.0,0.0,0.0,0.0,0.0,0.0,0.0,0.0,0.0,0.0,0.0,0.0,0.0,0.0,0.0,0.0,0.0,0.0,0.0,0.0,0.0,0.0,0.0,0.0,0.0,0.0,0.0,0.0,0.0,0.0,0.0,0.0,0.0,0.0,0.0,0.0,0.0,0.0,0.0,0.0,0.0,0.0,0.0,0.0,0.0,0.0,0.0,0.0,0.0,0.0,0.0,0.0,0.0,0.0,0.0,0.0,0.0,0.0,0.0,0.0,0.0,0.0,0.0,0.0,0.0,0.0,0.0,0.0,0.0,0.0,0.0,0.0,0.0,0.0,0.0,0.0,0.0,0.0,0.0,0.0,0.0,0.0,0.0,0.0,0.0,0.0,0.0,0.0,0.0,0.0,0.0,0.0,0.0,0.0,0.0,0.0,0.0,3.8027,3.878,3.93,3.93,4.0035,4.0496,4.0496,4.0496,4.0496,0.0,0.0,0.0,0.0,0.0,0.0,0.0,0.0,0.0,0.0,0.0,0.0,0.0,0.0,0.0,0.0,0.0,0.0,0.0,0.0,0.0,0.0,0.0,0.0,0.0,0.0,0.0,0.0,0.0,0.0,0.0,0.0,0.0,0.0,0.0,0.0,0.0,0.0,0.0,0.0,0.0,0.0,0.0,0.0,0.0,0.0,0.0,0.0,0.0,0.0,0.0,0.0,0.0,0.0,0.0,0.0,0.0,0.0,0.0,0.0,0.0,0.0,0.0,0.0,0.0,0.0,0.0,0.0,0.0,0.0,0.0,0.0,0.0,0.0,0.0,0.0,0.0,0.0,0.0,0.0,0.0,0.0,0.0,0.0,0.0,0.0,0.0,0.0,0.0,0.0,0.0,0.0,0.0,0.0,0.0,0.0,0.0,0.0,0.0,0.0,0.0,0.0,0.0,3.9761,3.9996,4.015,4.015,4.0362,4.0496,4.0496,4.0496,4.0496,4.0496,0.0,0.0,0.0,0.0,0.0,0.0,0.0,0.0,0.0,0.0,0.0,0.0,0.0,0.0,0.0,0.0,0.0,0.0,0.0,0.0,0.0,0.0,0.0,0.0,0.0,0.0,0.0,0.0,0.0,0.0,0.0,0.0,0.0,0.0,0.0,0.0,0.0,0.0,0.0,0.0,0.0,0.0,0.0,0.0,0.0,0.0,0.0,0.0,0.0,0.0,0.0,0.0,0.0,0.0,0.0,0.0,0.0,0.0,0.0,0.0,0.0,0.0,0.0,0.0,0.0,0.0,0.0,0.0,0.0,0.0,0.0,0.0,0.0,0.0,0.0,0.0,0.0,0.0,0.0,0.0,0.0,0.0,0.0,0.0,0.0,0.0,0.0,0.0,0.0,0.0,0.0,0.0,0.0,0.0,0.0,0.0,0.0,0.0,0.0,0.0,0.0,0.0,4.0496,4.0496,4.0496,4.0496,4.0496,4.0496,4.0496,4.0496,4.0496,4.0496,0.0,0.0,0.0,0.0,0.0,0.0,0.0,0.0,0.0,0.0,0.0,0.0,0.0,0.0,0.0,0.0,0.0,0.0,0.0,0.0,0.0,0.0,0.0,0.0,0.0,0.0,0.0,0.0,0.0,0.0,0.0,0.0,0.0,0.0,0.0,0.0,0.0,0.0,0.0,0.0,0.0,0.0,0.0,0.0,0.0,0.0,0.0,0.0,0.0,0.0,0.0,0.0,0.0,0.0,0.0,0.0,0.0,0.0,0.0,0.0,0.0,0.0,0.0,0.0,0.0,0.0,0.0,0.0,0.0,0.0,0.0,0.0,0.0,0.0,0.0,0.0,0.0,0.0,0.0,0.0,0.0,0.0,0.0,0.0,0.0,0.0,0.0,0.0,0.0,0.0,0.0,0.0,0.0,0.0,0.0,0.0,0.0,0.0,0.0,0.0,0.0,0.0,4.0496,4.0496,4.0496,4.0496,4.0496,4.0496,4.0496,4.0496,4.0496,4.0496,0.0,0.0,0.0,0.0,0.0,0.0,0.0,0.0,0.0,0.0,0.0,0.0,0.0,0.0,0.0,0.0,0.0,0.0,0.0,0.0,0.0,0.0,0.0,0.0,0.0,0.0,0.0,0.0,0.0,0.0,0.0,0.0,0.0,0.0,0.0,0.0,0.0,0.0,0.0,0.0,0.0,0.0,0.0,0.0,0.0,0.0,0.0,0.0,0.0,0.0,0.0,0.0,0.0,0.0,0.0,0.0,0.0,0.0,0.0,0.0,3.6077,0.0,0.0,0.0,0.0,0.0,0.0,0.0,0.0,0.0,0.0,0.0,0.0,0.0,0.0,0.0,0.0,0.0,0.0,0.0,0.0,0.0,0.0,0.0,0.0,0.0,0.0,0.0,0.0,0.0,0.0,0.0,0.0,0.0,0.0,0.0,0.0,0.0,0.0,0.0,0.0,0.0,4.0496,4.0496,4.0496,4.0496,4.0496,4.0496,4.0496,4.0496,4.0496,4.0496,4.0496,0.0,0.0,0.0,0.0,0.0,0.0,0.0,0.0,0.0,0.0,0.0,0.0,0.0,0.0,0.0,0.0,0.0,0.0,0.0,0.0,0.0,0.0,0.0,0.0,0.0,0.0,0.0,0.0,0.0,0.0,0.0,0.0,0.0,0.0,0.0,0.0,0.0,0.0,0.0,0.0,0.0,0.0,0.0,0.0,0.0,0.0,0.0,0.0,0.0,0.0,0.0,0.0,0.0,0.0,0.0,0.0,0.0,0.0,0.0,0.0,3.6696,0.0,0.0,0.0,0.0,0.0,0.0,0.0,0.0,0.0,0.0,0.0,0.0,0.0,0.0,0.0,0.0,0.0,0.0,0.0,0.0,0.0,0.0,0.0,0.0,0.0,0.0,0.0,0.0,0.0,0.0,0.0,0.0,0.0,0.0,0.0,0.0,0.0,0.0,0.0,0.0,4.0496,4.0496,4.0496,4.0496,4.0496,4.0496,4.0496,4.0496,4.0496,4.0496,4.0496,0.0,0.0,0.0,0.0,0.0,0.0,0.0,0.0,0.0,0.0,0.0,0.0,0.0,0.0,0.0,0.0,0.0,0.0,0.0,0.0,0.0,0.0,0.0,0.0,0.0,0.0,0.0,0.0,0.0,0.0,0.0,0.0,0.0,0.0,0.0,0.0,0.0,0.0,0.0,0.0,0.0,0.0,0.0,0.0,0.0,0.0,0.0,0.0,0.0,0.0,0.0,0.0,0.0,3.8238,3.8296,3.843,3.843,3.843,3.843,3.843,3.8277,3.8007,3.8007,0.0,0.0,0.0,0.0,0.0,0.0,0.0,0.0,0.0,0.0,0.0,0.0,0.0,0.0,0.0,0.0,0.0,0.0,0.0,0.0,0.0,0.0,0.0,0.0,4.0954,4.0954,4.0954,0.0,0.0,0.0,0.0,0.0,0.0,0.0,0.0,0.0,0.0,0.0,4.0935,4.0954,4.0954,4.0954,4.0954,4.0954,4.0954,4.08,4.0781,4.0935,4.08,4.0781,0.0,0.0,0.0,0.0,0.0,0.0,0.0,0.0,0.0,0.0,0.0,0.0,0.0,0.0,0.0,0.0,0.0,0.0,0.0,0.0,0.0,0.0,0.0,0.0,0.0,0.0,0.0,0.0,0.0,0.0,0.0,0.0,3.7797,3.7798,0.0,0.0,0.0,0.0,0.0,0.0,0.0,0.0,0.0,0.0,0.0,0.0,0.0,3.7873,3.8007,3.8007,3.8373,3.9127,3.9127,3.9492,4.0169,4.0169,4.0169,4.0169,4.0169,0.0,3.8007,3.8007,0.0,0.0,0.0,0.0,0.0,0.0,0.0,0.0,0.0,0.0,0.0,0.0,0.0,0.0,0.0,0.0,0.0,0.0,0.0,0.0,0.0,0.0,4.1812,4.2585,4.2758,4.2758,0.0,4.157,4.0496,4.0496,4.0496,0.0,0.0,0.0,0.0,0.0,0.0,0.0,4.2662,4.2758,4.2758,4.2758,4.2758,4.2758,4.2758,4.2066,4.1946,4.2701,4.2047,4.1966,4.272,4.2758,0.0,0.0,0.0,0.0,0.0,0.0,0.0,0.0,0.0,0.0,0.0,0.0,0.0,0.0,0.0,0.0,0.0,0.0,0.0,0.0,0.0,0.0,0.0,0.0,0.0,0.0,0.0,0.0,0.0,3.8105,3.8045,3.8045,3.8019,3.8007,0.0,0.0,0.0,0.0,0.0,0.0,0.0,0.0,0.0,3.9396,3.9873,4.0369,4.0854,4.0873,4.1066,4.1435,4.1435,4.1627,4.1954,4.1954,4.1954,4.1954,4.1954,4.1546,4.0835,4.0335,4.0138,4.0215,0.0,0.0,0.0,0.0,4.1954,4.1954,4.1954,4.1954,4.1954,4.1954,0.0,0.0,0.0,0.0,0.0,0.0,0.0,0.0,0.0,0.0,4.2624,4.3008,4.3104,4.3104,4.3104,4.2489,4.1954,0.0,4.1954,4.1954,4.1954,0.0,0.0,0.0,0.0,4.2662,4.3047,4.3104,4.3104,4.3104,4.3104,4.3104,4.3104,4.2758,4.2701,4.3085,4.2739,4.2701,4.3085,4.3104,4.2912,0.0,0.0,0.0,0.0,0.0,0.0,0.0,0.0,0.0,0.0,0.0,0.0,0.0,0.0,0.0,0.0,0.0,0.0,0.0,0.0,0.0,0.0,0.0,0.0,0.0,0.0,0.0,0.0,3.867,3.8646,3.8646,3.8646,3.8738,0.0,0.0,0.0,0.0,0.0,0.0,3.9296,3.9915,4.055,4.1147,4.1797,4.2543,4.3393,4.3412,4.3528,4.3739,4.3739,4.3739,4.3739,4.3739,4.3739,4.3739,4.3739,4.3739,4.3662,4.2581,4.2139,4.2196,4.2854,4.3104,4.3104,4.3104,4.3104,4.3104,4.3104,4.3104,4.3104,4.3104,4.3239,4.3451,4.3662,0.0,0.0,0.0,0.0,4.3797,4.4008,4.4066,4.4124,4.4335,4.4374,4.4374,4.4374,4.4374,4.4124,0.0,4.3104,4.3104,4.3104,0.0,0.0,0.0,0.0,4.4143,4.4355,4.4374,4.4374,4.4374,4.4201,4.4066,4.4066,4.3662,4.3508,4.372,4.3528,4.3508,4.372,4.3739,4.3624,4.3412,0.0,0.0,0.0,0.0,0.0,0.0,0.0,0.0,0.0,0.0,0.0,0.0,0.0,0.0,0.0,0.0,0.0,0.0,0.0,0.0,0.0,0.0,0.0,0.0,0.0,0.0,0.0,0.0,0.0,4.0362,4.0362,0.0,0.0,0.0,0.0,4.2777,4.2835,4.2835,4.2835,4.2893,4.2931,4.297,4.3008,4.3412,4.422,4.4239,4.4667,4.5475,4.5475,4.5475,4.5475,4.5475,4.5475,4.5475,4.5475,4.5475,4.534,4.3701,4.3028,4.3047,4.3085,4.3104,4.3104,4.3104,4.3104,4.3104,4.3104,4.3104,4.3104,4.3104,4.3624,4.4397,4.5225,4.5475,0.0,0.0,4.5475,4.5667,4.6485,4.6716,4.6908,4.7678,4.7851,4.7851,4.7851,4.7851,4.6908,0.0,4.3104,4.3104,4.3104,0.0,4.4513,4.534,4.6182,4.6985,4.7755,4.7851,4.7851,4.7851,4.7158,4.6716,4.6716,4.5182,4.459,4.5417,4.4705,4.4609,4.5436,4.5475,4.5071,4.4259,4.4239,0.0,0.0,0.0,0.0,0.0,0.0,0.0,0.0,0.0,0.0,0.0,0.0,0.0,0.0,0.0,0.0,0.0,0.0,0.0,0.0,0.0,0.0,0.0,0.0,0.0,0.0,0.0,0.0,4.1335,4.1835,0.0,4.2604,4.2643,4.2777,4.3085,4.3585,4.3874,4.3874,4.4951,4.5543,4.5543,4.6043,4.6471,4.674,4.6759,4.6894,4.7201,4.7201,4.7201,4.7201,4.7201,4.7201,4.7201,4.7201,4.7201,4.7163,4.6567,4.6004,4.5601,4.6124,4.6317,4.6317,4.6317,4.6317,4.6317,4.6317,4.6317,4.6317,4.6317,4.6509,4.6797,4.7105,4.7201,4.7201,4.7201,4.7201,4.7278,4.7582,4.7678,4.7735,4.8024,4.8101,4.8101,4.8101,4.8101,4.7755,4.6547,4.6317,4.6317,4.6317,4.6567,4.6855,4.7163,4.7471,4.7774,4.8062,4.8101,4.8101,4.8101,4.7832,4.7678,4.7678,4.7101,4.6874,4.7182,4.6432,4.6105,4.6413,4.5898,4.5455,4.5148,4.5148,4.4994,0.0,0.0,0.0,0.0,0.0,0.0,0.0,0.0,0.0,0.0,0.0,0.0,0.0,0.0,0.0,0.0,0.0,0.0,0.0,0.0,0.0,0.0,0.0,0.0,0.0,4.1681,4.2235,4.2235,4.2989,4.3624,4.3912,4.4201,4.4489,4.4778,4.5278,4.5586,4.5586,4.6678,4.7293,4.7293,4.7812,4.8235,4.8548,4.8548,4.8682,4.8971,4.8971,4.8971,4.8971,4.8971,4.8971,4.8971,4.8971,4.8971,4.8971,4.8971,4.8663,4.8182,4.812,4.8101,4.8101,4.8101,4.8101,4.8101,4.8101,4.8101,4.8139,4.8432,4.8548,4.8586,4.8894,4.8971,4.8971,4.8971,4.8971,4.8971,4.8971,4.8971,4.8971,4.8971,4.8971,4.8971,4.8971,4.8971,4.8971,4.8971,4.8509,4.8101,4.8101,4.8332,4.8548,4.8548,4.8798,4.8971,4.8971,4.8971,4.8971,4.8971,4.8702,4.8548,4.8548,4.8274,4.8101,4.8101,4.7601,4.7293,4.7293,4.674,4.6321,4.6033,4.6033,4.6167,4.6436,0.0,0.0,0.0,0.0,0.0,0.0,0.0,0.0,0.0,0.0,0.0,0.0,0.0,0.0,0.0,0.0,0.0,0.0,0.0,0.0,0.0,0.0,0.0,4.2004,4.2624,4.3181,4.322,4.3932,4.4744,4.559,4.6432,4.7255,4.8043,4.812,4.8139,4.8139,4.8159,4.8178,4.8178,4.8178,4.8586,4.9433,4.9433,4.9861,5.0707,5.0707,5.0707,5.0707,5.0707,5.0707,5.0707,5.0707,5.0707,5.0707,5.0707,5.0707,5.0534,4.8836,4.8178,4.8178,4.8178,4.8178,4.8178,4.8178,4.8178,4.8312,4.9163,4.9433,4.961,5.0438,5.0707,5.0707,5.0707,5.0707,5.0707,5.0707,5.0707,5.0707,5.0707,5.0707,5.0707,5.0707,5.0707,5.0707,5.0707,4.9336,4.8178,4.8178,4.8875,4.9433,4.9433,5.0168,0.0,5.0707,5.0707,5.0707,5.0707,4.9938,4.9433,4.9433,4.8663,4.8178,4.8178,4.8159,4.8139,4.8139,4.8101,4.7735,4.6947,4.6947,4.7312,4.8101,0.0,0.0,0.0,0.0,0.0,0.0,0.0,0.0,0.0,0.0,0.0,0.0,0.0,0.0,0.0,0.0,0.0,0.0,0.0,0.0,0.0,4.434,4.4609,4.3739,4.4359,4.5148,4.5774,4.6562,4.7144,4.7394,4.762,4.7851,4.8082,4.8682,4.9048,4.9048,4.9649,4.9995,4.9995,4.9995,5.0091,5.0341,5.0341,5.0457,5.0707,5.0707,5.0707,5.0707,5.0707,5.0707,5.0707,5.0707,5.0707,5.0707,5.0707,5.0707,5.0649,5.0168,4.9995,4.9995,4.9995,4.9995,4.9995,4.9995,4.9995,5.0014,5.0265,5.0341,5.038,5.063,5.0707,5.0707,5.0707,5.0707,5.0707,5.0707,5.0707,5.0707,5.0707,5.0707,5.0707,5.0707,5.0707,5.0707,5.0707,5.0303,4.9995,4.9995,5.0188,5.0341,5.0341,5.0553,0.0,5.0707,5.0707,5.0707,5.0707,5.0495,5.0341,5.0341,5.0111,4.9995,4.9995,4.9394,4.9048,4.9048,4.8432,4.8005,4.7774,4.7774,4.787,0.0,0.0,0.0,0.0,0.0,0.0,0.0,0.0,0.0,0.0,0.0,0.0,0.0,0.0,0.0,0.0,0.0,0.0,0.0,0.0,0.0,0.0,4.5859,4.661,4.6451,4.6571,4.6836,4.7331,4.8139,4.8644,4.8644,4.8971,4.9183,4.9183,4.9668,4.9938,4.9938,5.0418,5.0707,5.0707,5.0707,5.0707,5.0707,5.0707,5.0707,5.0707,5.0707,5.0707,5.0707,5.0707,5.0707,5.0707,5.0707,5.0707,5.0707,5.0707,5.0707,0.0,0.0,0.0,0.0,0.0,5.0707,5.0707,5.0707,5.0707,5.0707,5.0707,5.0707,5.0707,5.0707,5.0707,5.0707,5.0707,5.0707,5.0707,5.0707,5.0707,5.0707,5.0707,5.0707,5.0707,5.0707,5.0707,5.0707,5.0707,5.0707,0.0,5.0707,5.0707,5.0707,5.0707,5.0707,5.0707,5.0707,5.0707,5.0707,5.0707,5.0707,5.0707,5.0707,5.0707,0.0,0.0,0.0,4.9938,4.9938,4.9106,0.0,0.0,0.0,4.8817,4.9183,0.0,0.0,0.0,4.8606,4.8394,0.0,0.0,0.0,0.0,0.0,0.0,0.0,0.0,0.0,0.0,0.0,0.0,0.0,0.0,0.0,0.0,4.7278,4.8548,4.9413,4.8875,4.8394,4.8394,4.9086,4.9553,4.9553,5.0245,5.0707,5.0707,5.0707,5.0707,5.0707,5.0707,0.0,0.0,0.0,5.0707,5.0707,5.0707,5.0707,5.0707,5.0707,5.0745,5.0842,5.0842,5.088,5.0976,5.0976,5.0976,5.0976,5.0976,5.0976,5.0976,5.0861,5.0842,5.0842,5.0957,5.0976,5.0976,5.0976,0.0,0.0,5.0976,5.0976,5.0976,5.0976,5.0976,5.0976,5.0976,5.0976,5.0976,5.0976,5.0976,5.0976,5.0976,5.0976,5.0976,5.0976,5.0976,5.0976,5.0976,5.0899,5.0842,5.0842,5.0765,5.0707,5.0707,5.0707,5.0707,5.0707,5.0707,5.0707,5.0707,0.0,0.0,5.0707,5.0707,5.0707,5.0707,5.0707,5.0707,5.0707,4.9957,4.9918,5.0688,4.9938,4.9938,5.0707,5.0707,5.0707,5.0668,4.9918,4.9553,0.0,0.0,0.0,0.0,0.0,0.0,0.0,0.0,0.0,0.0,0.0,0.0,0.0,0.0,0.0,4.8557,4.8933,4.9452,5.0322,5.0303,5.0207,5.0207,5.0341,5.0457,5.0457,5.0592,5.0707,5.0707,5.0707,5.0707,5.0707,5.0707,5.0707,5.0707,5.0707,5.0707,5.0707,5.0707,5.0707,5.0707,0.0,0.0,5.1678,5.1678,5.2043,5.2722,5.2722,5.2722,5.2722,5.2722,5.2722,5.2645,5.1947,5.1678,5.1755,5.2472,5.2722,5.2722,5.2722,5.2722,5.2722,5.2722,5.2722,5.2722,5.2722,5.2722,0.0,5.2722,5.2722,5.2722,5.2722,5.2722,5.2722,5.2722,5.2722,5.2722,5.2722,5.2722,5.2722,5.2722,5.214,5.1678,5.1678,5.1125,5.0707,5.0707,5.0707,5.0707,5.0707,5.0707,5.0707,5.0707,5.0707,5.0707,5.0707,5.0707,5.0707,5.0707,5.0707,5.0707,5.0707,5.0534,5.0534,5.0707,5.0534,5.0534,5.0707,5.0707,5.0707,5.0707,5.0534,5.0457,0.0,0.0,0.0,0.0,0.0,0.0,0.0,0.0,0.0,0.0,0.0,4.7038,4.6958,0.0,4.8894,4.9336,4.9764,5.0207,5.063,5.0707,5.0707,5.0707,5.0707,5.0707,5.0707,5.0707,5.0707,5.0707,5.0707,5.088,5.1279,5.1298,5.1491,5.1933,5.1952,5.1952,5.1952,5.1952,5.1952,5.1952,5.1952,5.2164,5.2544,5.2544,5.2794,5.3197,5.3197,5.3197,5.3197,5.3197,5.3197,5.3197,5.3197,5.2928,5.2601,5.3044,5.3197,5.3197,5.3197,5.3197,5.3197,5.3197,5.3197,5.3197,5.3197,5.3197,5.3197,5.3197,5.3197,5.3197,5.3197,5.3197,5.3197,5.3197,5.3197,5.3197,5.3197,5.3197,5.3197,5.3197,5.2851,5.2544,5.2544,5.2222,5.1669,5.0822,5.0707,5.0707,5.0707,5.0707,5.0707,5.0707,5.0707,5.0707,5.0707,5.0707,5.0707,5.0707,5.0707,5.0707,5.0707,5.0707,5.0707,5.0707,5.0707,5.0707,5.0707,5.0707,5.0919,5.1298,5.1298,5.1087,0.0,0.0,0.0,0.0,0.0,0.0,0.0,4.7464,4.7562,4.8146,4.8396,4.8485,4.8368,4.9067,4.9649,4.9649,5.0245,5.0707,5.0707,5.0707,5.0765,5.0919,5.0803,5.0765,5.0919,5.0938,5.0996,5.1169,5.1188,5.1471,5.212,5.2159,5.2467,5.3178,5.3197,5.3197,5.3197,5.3197,5.3197,5.3197,5.3197,5.3294,5.3453,5.3453,5.3549,5.3683,5.3683,5.3683,5.3683,5.3683,5.3683,5.376,5.4453,5.4299,5.3683,5.3683,5.3683,5.3683,5.3683,5.3683,5.3683,5.3683,5.3683,5.3683,5.3683,5.3683,5.3683,5.3683,5.3683,5.3683,5.3683,5.3683,5.3683,5.3683,5.3683,5.3683,5.3683,5.3683,5.3683,5.3683,5.3568,5.3453,5.3453,5.3313,5.2741,5.1399,5.1188,5.1188,5.1188,5.1188,5.1188,5.1188,5.1188,5.1188,5.1188,5.1188,5.1188,5.1188,5.1188,5.1188,5.1188,5.1188,5.1188,5.1188,5.1188,5.1188,5.1188,5.1188,5.151,5.2159,5.2159,5.1813,4.332,4.4034,4.4913,4.6555,4.6932,4.7116,0.0,4.8106,4.8178,4.8129,4.8739,4.9273,4.9264,4.9976,5.0553,5.0553,5.063,5.0707,5.0707,5.0707,5.0976,5.1678,5.1125,5.0976,5.1697,5.1774,5.2082,5.2856,5.2914,5.2967,5.3044,5.3044,5.3101,5.3197,5.3197,5.3197,5.3197,5.3197,5.3197,5.3197,5.3197,5.3606,5.4357,5.4357,5.4741,5.542,5.542,5.542,5.542,5.542,5.542,5.5439,5.5535,5.5516,5.542,5.542,5.542,5.542,5.542,5.542,5.542,5.542,5.542,5.542,5.542,5.542,5.542,5.542,5.542,5.542,5.542,5.542,5.542,5.542,5.542,5.542,5.542,5.542,5.542,5.542,5.4838,5.4357,5.4357,5.3703,5.314,5.2953,5.2914,5.2914,5.2914,5.2914,5.2914,5.2914,5.2914,5.2914,5.2914,5.2914,5.2914,5.2914,5.2914,5.2914,5.2914,5.2914,5.2914,5.2914,5.2914,5.2914,5.2914,5.2914,5.2967,5.3044,5.3044,5.3005,4.4734,4.5691,4.6574,4.7685,4.7908,4.8041,4.8794,4.8962,4.9065,4.9514,4.9899,5.0168,5.0168,5.0457,5.0707,5.0707,5.0707,5.0707,5.0707,5.1106,5.1524,5.1865,5.2043,5.2299,5.262,5.2659,5.2813,5.3159,5.3197,5.3414,5.3933,5.3953,5.4164,5.4645,5.4645,5.4645,5.4645,5.4645,5.4645,5.4645,5.4645,5.4857,5.5208,5.5208,5.5381,5.5708,5.5708,5.5708,5.5708,5.5708,5.5708,5.5708,5.5708,5.5708,5.5708,5.5708,5.5708,5.5708,5.5708,5.5708,5.5708,5.5708,5.5708,5.5708,5.5708,5.5708,5.5708,5.5708,5.5708,5.5708,5.5708,5.5708,5.5708,5.5708,5.5708,5.5708,5.5708,5.5708,5.5708,5.5708,5.5439,5.5208,5.5208,5.4895,5.4645,5.4645,5.3818,5.3197,5.3197,5.3197,5.3197,5.3197,5.3197,5.3197,5.3197,5.3197,5.3197,5.3197,5.3197,5.3197,5.3197,5.3197,5.3197,5.3197,5.3197,5.3197,5.3197,5.3197,5.3453,5.3953,5.3953,5.4203,4.6449,4.7259,4.7885,4.862,4.87,4.8837,4.9703,4.9821,4.9938,5.0572,5.0707,5.0707,5.0707,5.0707,5.0707,5.0707,5.0707,5.0784,5.0996,5.1524,5.2082,5.2563,5.3159,5.3645,5.3876,5.3683,5.3645,5.3876,5.3895,5.4164,5.4799,5.4818,5.5112,5.5689,5.5708,5.5708,5.5708,5.5708,5.5708,5.5708,5.5708,5.5708,5.5708,5.5708,5.5708,5.5708,5.5708,5.5708,5.5708,5.5708,5.5708,5.5708,5.5708,5.5708,5.5708,5.5708,5.5708,5.5708,5.5708,5.5708,5.5708,5.5708,5.5708,5.5708,5.5708,5.5708,5.5708,5.5708,5.5708,5.5708,5.5708,5.5708,5.5708,5.5708,5.5708,5.5708,5.5708,5.5708,5.5708,5.5708,5.5708,5.5708,5.5708,5.5708,5.5708,5.5708,5.4664,5.3895,5.3895,5.3895,5.3895,5.3895,5.3895,5.3895,5.3895,5.3895,5.3895,5.3895,5.3895,5.3895,5.3895,5.3895,5.3895,5.3895,5.3895,5.3895,5.3895,5.3895,5.4203,5.4818,5.4818,5.5151,4.8404,4.855,4.8635,4.9374,4.9472,4.9601,5.0467,5.0654,5.0668,5.0688,5.0707,5.0707,5.0707,5.0707,5.0707,5.0707,5.0707,5.0976,5.1755,5.1885,5.2524,5.4222,5.4434,5.4761,5.5555,5.4914,5.478,5.5574,5.5631,5.5651,5.567,5.567,5.567,5.5708,5.5708,5.5708,5.5708,5.5708,5.5708,5.5708,5.5708,5.5708,5.5708,5.5708,5.5708,5.5708,5.5708,5.5708,5.5708,5.5708,5.5708,5.5708,5.5708,5.5708,5.5708,5.5708,5.5708,5.5708,5.5708,5.5708,5.5708,5.5708,5.5708,5.5708,5.5708,5.5708,5.5708,5.5708,5.5708,5.5708,5.5708,5.5708,5.5708,5.5708,5.5708,5.5708,5.5708,5.5708,5.5708,5.5708,5.5708,5.5708,5.5708,5.5708,5.5708,5.5708,5.567,5.5631,5.5631,5.5631,5.5631,5.5631,5.5631,5.5631,5.5631,5.5631,5.5631,5.5631,5.5631,5.5631,5.5631,5.5631,5.5631,5.5631,5.5631,5.5631,5.5631,5.5631,5.5651,5.567,5.567,5.5689,4.9225,4.932,4.9413,5.0143,5.0302,5.0341,5.063,5.0707,5.0707,5.0707,5.0707,5.0707,5.0707,5.0707,5.0707,5.0707,5.0707,5.0976,5.1793,5.2409,5.3197,5.4357,5.4972,5.5401,5.567,5.5458,5.542,5.5689,5.5708,5.5708,5.5708,5.5708,5.5708,5.5708,5.5708,5.5708,5.5708,5.5708,5.5708,5.5708,5.5708,5.5708,5.5708,5.5708,5.5708,5.5708,5.5708,5.5708,5.5708,5.5708,5.5708,5.5708,5.5708,5.5708,5.5708,5.5708,5.5708,5.5708,5.5708,5.5708,5.5708,5.5708,5.5708,5.5708,5.5708,5.5708,5.5708,5.5708,5.5708,5.5708,5.5708,5.5708,5.5708,5.5708,5.5708,5.5708,5.5708,5.5708,5.5708,5.5708,5.5708,5.5708,5.5708,5.5708,5.5708,5.5708,5.5708,5.5708,5.5708,5.5708,5.5708,5.5708,5.5708,5.5708,5.5708,5.5708,5.5708,5.5708,5.5708,5.5708,5.5708,5.5708,5.5708,5.5708,5.5708,5.5708,5.5708,5.5708,5.5708,5.5708,5.5708,5.5708,5.0011,5.0132,5.0171,5.0596,5.0707,5.0707,5.0707,5.0707,5.0707,5.0707,5.0707,5.0707,5.0707,5.0707,5.0707,5.0707,5.0707,5.1092,5.2217,5.2851,5.3626,5.478,5.5401,5.5708,5.5708,5.5708,5.5708,5.5708,5.5708,5.5708,5.5708,5.5708,5.5708,5.5708,5.5708,5.5708,5.5708,5.5708,5.5708,5.5708,5.5708,5.5708,5.5708,5.5708,5.5708,5.5708,5.5708,5.5708,5.5708,5.5708,5.5708,5.5708,5.5708,5.5708,5.5708,5.5708,5.5708,5.5708,5.5708,5.5708,5.5708,5.5708,5.5708,5.5708,5.5708,5.5708,5.5708,5.5708,5.5708,5.5708,5.5708,5.5708,5.5708,5.5708,5.5708,5.5708,5.5708,5.5708,5.5708,5.5708,5.5708,5.5708,5.5708,5.5708,5.5708,5.5708,5.5708,5.5708,5.5708,5.5708,5.5708,5.5708,5.5708,5.5708,5.5708,5.5708,5.5708,5.5708,5.5708,5.5708,5.5708,5.5708,5.5708,5.5708,5.5708,5.5708,5.5708,5.5708,5.5862,5.6151,5.6151,5.6324,5.0752,5.0882,5.0867,5.073,5.0707,5.0707,5.0707,5.0707,5.0707,5.0707,5.0707,5.0707,5.0707,5.0707,5.0707,5.0707,5.0707,5.1284,5.2972,5.3197,5.3818,5.5497,5.5708,5.5708,5.5708,5.5708,5.5708,5.5708,5.5708,5.5708,5.5708,5.5708,5.5708,5.5708,5.5708,5.5708,5.5708,5.5708,5.5708,5.5708,5.5708,5.5708,5.5708,5.5708,5.5708,5.5708,5.5708,5.5708,5.5708,5.5708,5.5708,5.5708,5.5708,5.5708,5.5708,5.5708,5.5708,5.5708,5.5708,5.5708,5.5708,5.5708,5.5708,5.5708,5.5708,5.5708,5.5708,5.5708,5.5708,5.5708,5.5708,5.5708,5.5708,5.5708,5.5708,5.5708,5.5708,5.5708,5.5708,5.5708,5.5747,5.5766,5.5766,5.5805,5.5824,5.5824,5.5824,5.5805,5.5708,5.5708,5.5708,5.5708,5.5708,5.5708,5.5708,5.5708,5.5708,5.5708,5.5708,5.5708,5.5708,5.5708,5.5708,5.5708,5.5708,5.5728,5.5766,5.5766,5.6209,5.7074,5.7074,5.7517,5.0894,5.0835,5.073,5.0707,5.0707,5.0707,5.0707,5.0707,5.0707,5.0707,5.0707,5.0707,5.0707,5.0707,5.0707,5.0707,5.0707,5.1284,5.2972,5.3197,5.3818,5.5497,5.5708,5.5708,5.5708,5.5708,5.5708,5.5708,5.5708,5.5708,5.5708,5.5708,5.5708,5.5708,5.5708,5.5708,5.5708,5.5708,5.5708,5.5708,5.5708,5.5708,5.5708,5.5708,5.5708,5.5708,5.5708,5.5708,5.5708,5.5708,5.5708,5.5708,5.5708,5.5708,5.5708,5.5708,5.5708,5.5708,5.5708,5.5708,5.5708,5.5708,5.5708,5.5708,5.5708,5.5708,5.5708,5.5708,5.5708,5.5708,5.5708,5.5708,5.5708,5.5708,5.5708,5.5708,5.5708,5.5708,5.5708,5.5708,5.6228,5.667,5.667,5.7209,5.7646,5.7646,5.7646,5.7165,5.5882,5.5708,5.5708,5.5708,5.5708,5.5708,5.5708,5.5708,5.5708,5.5708,5.5708,5.5708,5.5708,5.5708,5.5708,5.5708,5.5708,5.6016,5.667,5.667,5.7113,5.7973,5.7973,5.8088,5.0939,5.0793,5.0707,5.0707,5.0707,5.0707,5.0707,5.0707,5.0707,5.0707,5.0707,5.0707,5.0707,5.0707,5.0707,5.0707,5.0707,5.1149,5.2447,5.2967,5.3683,5.5011,5.5497,5.5708,5.5708,5.5708,5.5708,5.5708,5.5708,5.5708,5.5708,5.5708,5.5708,5.5708,5.5708,5.5708,5.5708,5.5708,5.5708,5.5708,5.5708,5.5708,5.5708,5.5708,5.5708,5.5708,0.0,5.5708,5.5708,5.5708,5.5708,5.5708,5.5708,5.5708,5.5708,5.5708,5.5708,5.5708,5.5708,5.5708,5.5708,5.5708,5.5708,5.5708,5.5708,5.5708,5.5708,5.5708,5.5708,5.5708,5.5708,5.5708,5.5708,5.5708,5.5708,5.5708,5.5708,5.5708,5.5805,5.6209,5.6978,5.7574,5.7574,5.7973,5.8294,5.8294,5.8294,5.7953,5.6973,5.6838,5.6838,5.6838,5.6838,5.6838,5.6838,5.6838,5.6838,5.6838,5.6838,5.6665,5.6285,5.6266,5.6266,5.6266,5.6266,5.6709,5.7574,5.7574,5.7992,5.8833,5.8833,5.9031,5.0939,5.0793,5.0707,5.0707,5.0707,5.0707,5.0707,5.0707,5.0707,5.0707,5.0707,5.0707,5.0707,5.0707,5.0707,5.0707,5.0707,5.0976,5.1793,5.2659,5.353,5.4395,5.5208,5.5708,5.5708,5.5708,5.5708,5.5708,5.5708,5.5708,5.5708,5.5708,5.5708,5.5708,5.5708,5.5708,5.5708,5.5708,5.5708,5.5708,5.5708,5.5708,5.5708,5.5708,5.5708,5.5708,5.5708,5.5708,5.5708,5.5708,5.5708,5.5708,5.5708,5.5708,5.5708,5.5708,5.5708,5.5708,5.5708,5.5708,5.5708,5.5708,5.5708,5.5708,5.5708,5.5708,5.5708,5.5708,5.5708,5.5708,5.5708,5.5708,5.5708,5.5708,5.5708,5.5708,5.5708,5.5785,5.6093,5.6843,5.778,5.8467,5.8467,5.8569,5.8627,5.8627,5.8627,5.8627,5.8627,5.8434,5.8294,5.8294,5.8294,5.8294,5.8294,5.8294,5.8294,5.8294,5.8294,5.7953,5.7209,5.717,5.717,5.717,5.717,5.7594,5.8467,5.8467,5.8871,5.9665,5.9665,6.0089,5.0939,5.0793,5.0707,5.0707,5.0707,5.0707,5.0707,5.0707,5.0707,5.0707,5.0707,5.0707,5.0707,5.0707,5.0707,5.0707,5.0707,5.0976,5.1793,5.2659,5.353,5.4395,5.5208,5.5708,5.5708,5.5708,5.5708,5.5708,5.5708,5.5708,5.5708,5.5708,5.5708,5.5708,5.5708,5.5708,5.5708,5.5708,5.5708,5.5708,5.5708,5.5708,5.5708,5.5708,5.5708,5.5708,5.5708,0.0,5.5708,5.5708,5.5708,5.5708,5.5708,5.5708,5.5708,5.5708,5.5708,5.5708,5.5708,5.5708,5.5708,5.5708,5.5708,5.5708,5.5708,5.5708,5.5708,5.5708,5.5708,5.5708,5.5708,5.5708,5.5708,5.5708,5.5708,5.5708,5.5708,5.6266,5.6824,5.6964,5.8248,5.93,5.93,5.9896,6.0358,6.0358,6.0358,6.0358,6.0358,5.9165,5.8294,5.8294,5.8294,5.8294,5.8294,5.8294,5.8294,5.8294,5.8294,5.8223,5.8088,5.8069,5.8069,5.8069,5.8069,5.8473,5.93,5.93,5.9723,6.0569,6.0569,6.0666,5.1027,5.0859,5.0707,5.0707,5.0707,5.0707,5.0707,5.0707,5.0707,5.0707,5.0707,5.0707,5.0707,5.0707,5.0707,5.0707,5.0707,5.0822,5.1221,5.2005,5.2851,5.3722,5.4568,5.5247,5.567,5.5708,5.5708,5.5708,5.5708,5.5708,5.5708,5.5708,5.5708,5.5708,5.5708,5.5708,5.5708,5.5708,5.5708,5.5708,5.5708,5.5708,5.5708,5.5708,5.5708,5.5708,5.5708,5.5708,5.5708,5.5708,5.5708,5.5708,5.5708,5.5708,5.5708,5.5708,5.5708,5.5708,5.5708,5.5708,5.5708,5.5708,5.5708,5.5708,5.5708,5.5708,5.5708,5.5708,5.5708,5.5708,5.5708,5.5708,5.5708,5.5708,5.5708,5.5708,5.5708,5.6747,5.7684,5.7684,5.9031,6.0185,6.0185,6.0512,6.0806,6.0806,6.0806,6.0806,6.0806,6.0108,5.9608,5.9608,5.9608,5.9608,5.9608,5.9608,5.9608,5.9608,5.9608,5.9396,5.8929,5.8915,5.8915,5.8915,5.8915,5.9338,6.0185,6.0185,6.0396,6.0806,6.0806,6.0806,5.1091,5.0896,5.0707,5.0707,5.0707,5.0707,5.0707,5.0707,5.0707,5.0707,5.0707,5.0707,5.0707,5.0707,5.0707,5.0707,5.0707,5.0707,5.0707,5.1395,5.2159,5.2832,5.3857,5.4741,5.5381,5.5593,5.5708,5.5708,5.5708,5.5708,5.5708,5.5708,5.5708,5.5708,5.5708,5.5708,5.5708,5.5708,5.5708,5.5708,5.5708,5.5708,5.5708,5.5708,5.5708,5.5708,5.5708,5.5708,5.5708,5.5708,5.5708,5.5708,5.5708,5.5708,5.5708,5.5708,5.5708,5.5708,5.5708,5.5708,5.5708,5.5708,5.5708,5.5708,5.5708,5.5708,5.5708,5.5708,5.5708,5.5708,5.5708,5.5708,5.5708,5.5708,5.5708,5.5708,5.5708,5.7069,5.8294,5.8294,5.9646,6.0806,6.0806,6.0806,6.0806,6.0806,6.0806,6.0806,6.0806,6.0806,6.0806,6.0806,6.0806,6.0806,6.0806,6.0806,6.0806,6.0806,6.0806,6.0492,5.9819,5.9781,5.9781,5.9781,5.9781,6.0127,6.0806,6.0806,6.0806,6.0806,6.0806,6.0806,5.1091,5.0896,5.0707,5.0707,5.0707,5.0707,5.0707,5.0707,5.0707,5.0707,5.0707,5.0707,5.0707,5.0707,5.0707,5.0707,5.0707,5.0707,5.0707,5.1395,5.1923,5.2,5.3491,5.453,5.4607,5.5266,5.5708,5.5708,5.5708,5.5708,5.5708,5.5708,5.5708,5.5708,5.5708,5.5708,5.5708,5.5708,5.5708,5.5708,5.5708,5.5708,5.5708,5.5708,5.5708,5.5708,5.5708,5.5708,0.0,5.5708,5.5708,5.5708,5.5708,5.5708,5.5708,5.5708,5.5708,5.5708,5.5708,5.5708,5.5708,5.5708,5.5708,5.5708,5.5708,5.5708,5.5708,5.5708,5.5708,5.5708,5.5708,5.5708,5.5708,5.5708,5.5708,5.5708,5.5708,5.7069,5.8294,5.8294,5.9646,6.0806,6.0806,6.0806,6.0806,6.0806,6.0806,6.0806,6.0806,6.0806,6.0806,6.0806,6.0806,6.0806,6.0806,6.0806,6.0806,6.0806,6.0806,6.0768,6.0691,6.0691,6.0691,6.0691,6.0691,6.0723,6.0806,6.0806,6.0806,6.0806,6.0806,6.0806,5.1113,5.0956,5.0793,5.0726,5.0707,5.0707,5.0707,5.0707,5.0707,5.0707,5.0707,5.0707,5.0707,5.0707,5.0707,5.0707,5.0707,5.0707,5.0707,5.0976,5.1356,5.1846,5.2986,5.3914,5.4453,5.5228,5.5708,5.5708,5.5708,5.5708,5.5708,5.5708,5.5708,5.5708,5.5708,5.5708,5.5708,5.5708,5.5708,5.5708,5.5708,5.5708,5.5708,5.5708,5.5708,5.5708,5.5708,5.5708,0.0,5.5708,5.5708,5.5708,5.5708,5.5708,5.5708,5.5708,5.5708,5.5708,5.5708,5.5708,5.5708,5.5708,5.5708,5.5708,5.5708,5.5708,5.5708,5.5708,5.5708,5.5708,5.5708,5.5708,5.5708,5.5708,5.5708,5.5708,5.5708,5.667,5.7665,5.8198,5.9223,6.0185,6.0704,6.0806,6.0806,6.0806,6.0806,6.0806,6.0806,6.0806,6.0806,6.0806,6.0806,6.0806,6.0806,6.0806,6.0806,6.0806,6.0806,6.0806,6.0806,6.0806,6.0806,6.0806,6.0806,6.0806,6.0806,6.0806,6.0806,6.0806,6.0806,6.0806,5.1148,5.1053,5.0928,5.0799,5.0761,5.0743,5.0707,5.0707,5.0707,5.0707,5.0707,5.0707,5.0707,5.0707,5.0707,5.0707,5.0707,5.0707,5.0707,5.0707,5.0919,5.1486,5.2294,5.3159,5.403,5.5068,5.5708,5.5708,5.5708,5.5708,5.5708,5.5708,5.5708,5.5708,5.5708,5.5708,5.5708,5.5708,5.5708,5.5708,5.5708,5.5708,5.5708,5.5708,5.5708,5.5708,5.5708,5.5708,0.0,5.5708,5.5708,5.5708,5.5708,5.5708,5.5708,5.5708,5.5708,5.5708,5.5708,5.5708,5.5708,5.5708,5.5708,5.5708,5.5708,5.5708,5.5708,5.5708,5.5708,5.5708,5.5708,5.5708,5.5708,5.5708,5.5708,5.5708,5.5708,5.6382,5.717,5.78,5.8781,5.9685,6.03,6.0633,6.0806,6.0806,6.0806,6.0806,6.0806,6.0806,6.0806,6.0806,6.0806,6.0806,6.0806,6.0806,6.0806,6.0806,6.0806,6.0806,6.0806,6.0806,6.0806,6.0806,6.0806,6.0806,6.0806,6.0806,6.0806,6.0806,6.0806,6.0806,5.1202,5.114,5.1075,5.0932,5.0905,5.0856,5.0726,5.0707,5.0707,5.0707,5.0707,5.0707,5.0707,5.0707,5.0707,5.0707,5.0707,5.0707,5.0707,5.0707,5.0707,5.0707,5.1414,5.2255,5.3121,5.4722,5.5708,5.5708,5.5708,5.5708,5.5708,5.5708,5.5708,5.5708,5.5708,5.5708,5.5708,5.5708,5.5708,5.5708,5.5708,5.5708,5.5708,5.5708,5.5708,5.5708,5.5708,5.5708,0.0,5.5708,5.5708,5.5708,5.5708,5.5708,5.5708,5.5708,5.5708,5.5708,5.5708,5.5708,5.5708,5.5708,5.5708,5.5708,5.5708,5.5708,5.5708,5.5708,5.5708,5.5708,5.5708,5.5708,5.5708,5.5708,5.5708,5.5708,5.5708,5.6382,5.7003,5.7003,5.8363,5.9492,5.9511,6.0223,6.0806,6.0806,6.0806,6.0806,6.0806,6.0806,6.0806,6.0806,6.0806,6.0806,6.0806,6.0806,6.0806,6.0806,6.0806,6.0806,6.0806,6.0806,6.0806,6.0806,6.0806,6.0806,6.0806,6.0806,6.0806,6.0806,6.0806,6.0806,5.0393,5.0776,5.1144,5.1063,5.0963,5.0894,5.0847,5.077,5.0707,5.0707,5.0707,5.0707,5.0707,5.0707,5.0707,5.0707,5.0707,5.0707,5.0707,5.0707,5.0707,5.0707,5.1933,5.3121,5.3991,5.5068,5.5708,5.5708,5.5708,5.5708,5.5708,5.5708,5.5708,5.5708,5.5708,5.5708,5.5708,5.5145,5.4876,5.4876,5.428,5.3991,5.3991,5.3991,5.4318,5.4876,5.4876,5.5189,5.5708,5.5708,5.5708,5.5708,5.5708,5.5708,5.5708,5.5708,5.5708,5.5708,5.5708,5.5708,5.5708,5.5708,5.5708,5.5708,5.5708,5.5708,5.5708,5.5708,5.5708,5.5708,5.5708,5.5708,5.5708,5.5708,5.5708,5.5708,5.5708,5.592,5.6285,5.6882,5.7915,5.8858,5.9415,6.0223,6.0806,6.0806,6.0806,6.0806,6.0806,6.0806,6.0806,6.0806,6.0806,6.0806,6.0806,6.0806,6.0806,6.0806,6.0806,6.0806,6.0806,6.0806,6.0806,6.0806,6.0806,6.0806,6.0806,6.0806,6.0806,6.0806,6.0806,6.0806,4.9929,5.043,5.0869,5.1087,5.1067,5.0994,5.0921,5.0851,5.0761,5.0707,5.0707,5.0707,5.0707,5.0707,5.0707,5.0707,5.0707,5.0707,5.0707,5.0707,5.0707,5.0707,5.1895,5.3044,5.3914,5.4761,5.5381,5.5689,5.5708,5.5708,5.5708,5.5708,5.5708,5.5708,5.5708,5.5555,5.5247,5.4741,5.4337,5.3991,5.3453,5.3197,5.3197,5.3197,5.351,5.403,5.4357,5.478,0.0,5.5574,5.5708,5.5708,5.5708,5.5708,5.5708,5.5708,5.5708,5.5708,5.5708,5.5708,5.5708,5.5708,5.5708,5.5708,5.5708,5.5708,5.5708,5.5708,5.5708,5.5708,5.5708,5.5708,5.5708,5.5708,5.5708,5.5708,5.5708,5.5708,5.5862,5.6401,5.7209,5.8069,5.8896,5.9742,6.0416,6.0748,6.0806,6.0806,6.0806,6.0806,6.0806,6.0806,6.0806,6.0806,6.0806,6.0806,6.0806,6.0806,6.0806,6.0806,6.0806,6.0806,6.0806,6.0806,6.0806,6.0806,6.0806,6.0806,6.0806,6.0806,6.0806,6.0806,0.0,5.0058,5.0253,5.089,5.103,5.0969,5.0775,5.0761,0.0,5.0644,5.0649,5.0707,5.0707,5.0707,5.0707,5.0707,5.0707,5.0707,5.0707,5.0707,5.0707,5.0707,5.1414,5.2217,5.3024,5.3953,5.4799,5.5555,5.567,5.5708,5.5708,5.5708,5.5708,5.5708,5.5651,5.5266,5.4511,5.4376,5.3914,5.3101,5.3044,5.3024,5.3024,5.3024,5.3044,0.0,5.3953,5.4357,0.0,5.5285,5.5612,5.5612,5.5689,5.5708,5.5708,5.5708,5.5708,5.5708,5.5708,5.5708,5.5708,5.5708,5.5708,5.5708,5.5708,5.5708,5.5708,5.5708,5.5708,5.5708,5.5708,5.5708,5.5708,5.5708,5.5708,5.5708,5.5708,5.5708,5.5708,5.5708,5.6401,5.7267,5.8069,5.8934,5.9762,6.0589,6.0768,6.0806,6.0806,6.0806,6.0806,6.0806,6.0806,6.0806,6.0806,6.0806,6.0806,6.0806,6.0806,6.0806,6.0806,6.0806,6.0806,6.0806,6.0806,6.0806,6.0806,6.0806,6.0806,6.0806,6.0806,6.0806,4.793,0.0,4.9238,4.9393,4.9356,4.9244,0.0,4.9508,4.9869,4.9734,5.0245,5.0707,5.0707,5.0707,5.0707,5.0707,5.0707,5.0707,5.0707,5.0707,5.0707,5.0707,5.1414,5.1981,5.2197,5.3606,5.4587,5.4761,5.5343,5.5708,5.5708,5.5708,5.5708,5.5708,5.5112,5.4684,5.4491,5.3178,5.2409,5.2197,5.1587,5.1284,5.1284,5.1284,5.1625,5.2217,5.2428,5.289,5.3568,5.4434,5.478,5.4838,5.5458,5.5708,5.5708,5.5708,5.5708,5.5708,5.5708,5.5708,5.5708,5.5708,5.5708,5.5708,5.5708,5.5708,5.5708,5.5708,5.5708,5.5708,5.5708,5.5708,5.5708,5.5708,5.5708,5.5708,5.5708,5.5708,5.5708,5.5708,5.6401,5.7074,5.7267,5.8531,5.9569,5.9762,6.0358,6.0806,6.0806,6.0806,6.0806,6.0806,6.0806,6.0806,6.0806,6.0806,6.0806,6.0806,6.0806,6.0806,6.0806,6.0806,6.0806,6.0806,6.0806,6.0806,6.0806,6.0806,6.0806,6.0806,6.0806,6.0806,4.6875,4.7637,4.8398,4.8808,4.8844,4.8764,4.862,4.9165,4.9647,4.9516,5.0142,5.0707,5.0707,5.0707,5.0707,5.0707,5.0707,5.0707,5.0707,5.0707,5.0707,5.0707,5.1087,5.1486,5.1865,5.2755,5.3472,5.3876,5.4318,5.4549,5.4549,5.4549,5.4549,5.4549,5.3741,5.351,5.3895,5.2563,5.1717,5.1337,5.0919,5.0707,5.0707,5.0707,5.0938,5.1375,5.1736,5.2178,5.2697,5.3972,5.4491,5.4587,5.5401,5.5708,5.5708,5.5708,5.5708,5.5708,5.5708,5.5708,5.5708,5.5708,5.5708,5.5708,5.5708,5.5708,5.5708,5.5708,5.5708,5.5708,5.5708,5.5708,5.5708,5.5708,5.5708,5.5708,5.5708,5.5708,5.5708,5.5708,5.6074,5.6536,5.6926,5.7747,5.8607,5.9377,5.9896,6.0339,6.0748,6.0806,6.0806,6.0806,6.0806,6.0806,6.0806,6.0806,6.0806,6.0806,6.0806,6.0806,6.0806,6.0806,6.0806,6.0806,6.0806,6.0806,6.0806,6.0806,6.0806,6.0806,6.0806,6.0806,4.6269,4.6836,4.7578,4.832,4.8496,4.8475,4.8324,4.8986,4.9562,4.9435,5.0092,5.0707,5.0707,5.0707,5.0707,5.0707,5.0707,5.0707,5.0707,5.0707,5.0707,5.0707,5.0707,5.0976,5.1659,5.1832,5.2217,5.2947,5.3121,5.3197,5.3197,5.3197,5.3197,5.3197,5.2351,5.2255,5.2986,5.2159,5.1375,5.0707,5.0707,5.0707,5.0707,5.0707,5.0707,5.0745,0.0,0.0,5.1832,5.3433,5.4184,5.4376,5.5208,5.5593,5.5708,5.5708,5.5708,5.5708,5.5708,5.5708,5.5708,5.5708,5.5708,5.5708,5.5708,5.5708,5.5708,5.5708,5.5708,5.5708,5.5708,5.5708,5.5708,5.5708,5.5708,5.5708,5.5708,5.5708,5.5708,5.5708,5.5708,5.5939,5.667,5.6907,5.7478,5.8896,5.9223,5.9627,6.0492,6.0589,6.0646,6.0787,6.0806,6.0806,6.0806,6.0806,6.0806,6.0806,6.0806,6.0806,6.0806,6.0806,6.0806,6.0806,6.0806,6.0806,6.0806,6.0806,6.0806,6.0806,6.0806,6.0806,4.6094,4.6406,4.6523,4.668,4.6699,4.6659,4.653,4.7639,4.8663,4.8524,4.9667,5.0707,5.0707,5.0707,5.0707,5.0707,5.0707,5.0707,5.0707,5.0707,5.0707,5.0707,5.0707,5.0745,5.0861,5.1505,5.1962,5.2096,5.2774,5.3197,5.3197,5.3197,5.3197,5.3197,5.2351,5.1962,5.2101,5.1298,5.0822,5.0707,5.0707,5.0707,5.0707,5.0707,5.0707,5.0707,0.0,5.088,5.0957,5.1909,5.2736,5.3491,5.4357,5.5112,5.5708,5.5708,5.5708,5.5708,5.5708,5.5708,5.5708,5.5708,5.5708,5.5708,5.5708,5.5708,5.5708,5.5708,5.5708,5.5708,5.5708,5.5708,5.5708,5.5708,5.5708,5.5708,5.5708,5.5708,5.5708,5.5708,5.5708,5.5747,5.5882,5.6516,5.7093,5.7343,5.8011,5.8781,5.9588,5.9704,5.9973,6.0723,6.0806,6.0806,6.0806,6.0806,6.0806,6.0806,6.0806,6.0806,6.0806,6.0806,6.0806,6.0806,6.0806,6.0806,6.0806,6.0806,6.0806,6.0806,6.0806,6.0806,4.6055,4.6308,4.6308,4.6308,4.6308,4.6289,4.6224,4.74,4.8487,4.8421,4.9625,5.0707,5.0707,5.0707,5.0707,5.0707,5.0707,5.0707,5.0707,5.0707,5.0707,5.0707,5.0707,5.0707,5.0707,5.1029,5.1241,5.1241,5.1625,5.1856,5.1856,5.1856,5.1856,5.1856,5.1452,5.1241,5.1241,5.088,5.0707,5.0707,5.0707,5.0707,5.0707,5.0707,5.0707,5.0707,0.0,5.0707,5.0765,5.1563,5.214,5.264,5.3972,5.4722,5.5107,5.5535,5.5708,5.5708,5.5708,5.5708,5.5708,5.5708,5.5708,5.5708,5.5708,5.5708,5.5708,5.5708,5.5708,5.5708,5.5708,5.5708,5.5708,5.5708,5.5708,5.5708,5.5708,5.5708,5.5708,5.5708,5.5708,5.5708,5.5708,5.6035,5.6459,5.6926,5.7343,5.7896,5.8742,5.8858,5.9011,5.9415,5.9454,5.9454,5.9454,5.9858,6.03,6.0762,6.0806,6.0806,6.0806,6.0806,6.0806,6.0806,6.0806,6.0806,6.0806,6.0806,6.0806,6.0806,6.0806,6.0806,4.5762,4.6133,4.6308,4.6308,4.6308,4.6348,4.6562,4.7599,4.8562,4.8757,4.9826,5.0707,5.0707,5.0707,5.0707,5.0707,5.0707,5.0707,5.0707,5.0707,5.0707,5.0707,5.0707,5.0707,5.0707,5.0707,5.0707,5.0707,5.0707,5.0707,5.0707,5.0707,5.0707,5.0707,5.0707,5.0707,5.0707,5.0707,5.0707,5.0707,5.0707,5.0707,5.0707,5.0707,5.0707,5.0707,5.0707,5.0707,5.0745,5.1356,5.1736,5.2019,5.3371,5.4145,5.4607,5.5401,5.5708,5.5708,5.5708,5.5708,5.5708,5.5708,5.5708,5.5708,5.5708,5.5708,5.5708,5.5708,5.5708,5.5708,5.5708,5.5708,5.5708,5.5708,5.5708,5.5708,5.5708,5.5708,5.5708,5.5708,5.5708,5.5708,5.5708,5.5708,5.5939,5.6593,5.6689,5.7016,5.7877,5.7992,5.8069,5.828,5.8294,5.8294,5.8294,5.8858,5.9492,6.0165,6.0569,6.0806,6.0806,6.0806,6.0806,6.0806,6.0806,6.0806,6.0806,6.0806,6.0806,6.0806,6.0806,6.0806,4.4863,4.5683,4.6308,4.6308,4.6308,4.6504,4.7324,4.8029,4.8737,4.9542,5.024,5.0707,5.0707,5.0707,5.0707,5.0707,5.0707,5.0707,5.0707,5.0707,5.0707,5.0707,5.0707,5.0707,5.0707,5.0707,5.0707,5.0707,5.0707,5.0707,5.0707,5.0707,5.0707,5.0707,5.0707,5.0707,5.0707,5.0707,5.0707,5.0707,5.0707,5.0707,5.0707,5.0707,5.0707,5.0707,5.0707,5.0707,5.0707,5.0765,5.1221,5.1904,5.2038,5.3082,5.4607,5.5401,5.5708,5.5708,5.5708,5.5708,5.5708,5.5708,5.5708,5.5708,5.5708,5.5708,5.5708,5.5708,5.5708,5.5708,5.5708,5.5708,5.5708,5.5708,5.5708,5.5708,5.5708,5.5708,5.5708,5.5708,5.5708,5.5708,5.5708,5.5708,5.5728,5.5785,5.5785,5.6112,5.6978,5.7093,5.7401,5.8204,5.8294,5.8294,5.8294,5.8352,5.8409,5.8486,5.9935,6.0806,6.0806,6.0806,6.0806,6.0806,6.0806,6.0806,6.0806,6.0806,6.0806,6.0806,6.0806,6.0806,4.4766,4.5644,4.6308,4.6308,4.6719,4.7187,4.7519,4.8499,4.9404,4.9739,5.0279,5.0707,5.0707,5.0707,5.0707,5.0707,5.0707,5.0707,5.0707,5.0707,5.0707,5.0707,5.0707,5.0707,5.0707,5.0707,5.0707,5.0707,5.0707,5.0707,5.0707,5.0707,5.0707,5.0707,5.0707,5.0707,5.0707,5.0707,5.0707,5.0707,5.0707,5.0707,5.0707,5.0707,5.0707,5.0707,5.0707,5.0707,5.0707,5.0707,5.088,5.1202,5.1697,5.264,5.3799,5.4645,5.4953,5.503,5.5535,5.5708,5.5708,5.5708,5.5708,5.5708,5.5708,5.5708,5.5708,5.5708,5.5708,5.5708,5.5708,5.5708,5.5708,5.5708,5.5708,5.5708,5.5708,5.5708,5.5708,5.5708,5.5708,5.5708,5.5708,5.5708,5.5708,5.5708,5.5708,5.5824,5.6151,5.6189,5.6324,5.6646,5.6684,5.6896,5.7459,5.7497,5.7723,5.828,5.8896,5.9242,5.9242,5.9242,5.9242,5.9242,5.9742,5.9992,5.9992,6.0531,6.0806,6.0806,6.0806,6.0806,4.4766,4.5644,4.6308,4.6308,4.7168,4.8008,4.7965,4.8911,4.9875,5.015,5.0476,5.0707,5.0707,5.0707,5.0707,5.0707,5.0707,5.0707,5.0707,5.0707,5.0707,5.0707,5.0707,5.0707,5.0707,5.0707,5.0707,5.0707,5.0707,5.0707,5.0707,5.0707,5.0707,5.0707,5.0707,5.0707,5.0707,5.0707,5.0707,5.0707,5.0707,5.0707,5.0707,5.0707,5.0707,5.0707,5.0707,5.0707,5.0707,5.0707,5.0707,5.0784,5.1582,5.2255,5.289,5.378,5.426,5.4587,5.5131,5.5497,5.5708,5.5708,5.5708,5.5708,5.5708,5.5708,5.5708,5.5708,5.5708,5.5708,5.5708,5.5708,5.5708,5.5708,5.5708,5.5708,5.5708,5.5708,5.5708,5.5708,5.5708,5.5708,5.5708,5.5708,5.5708,5.5708,5.5708,5.5708,5.5708,5.5708,5.5708,5.5708,5.5708,5.5939,5.6536,5.6593,5.6843,5.7434,5.7473,5.7723,5.8275,5.8294,5.8294,5.8294,5.8838,5.9127,5.9127,5.9973,6.0396,6.0396,6.0671,6.0806,4.4766,4.5644,4.6308,4.6308,4.7617,4.8866,4.8734,4.9278,5.005,5.0911,5.0886,5.0707,5.0707,5.0707,5.0707,5.0707,5.0707,5.0707,5.0707,5.0707,5.0707,5.0707,5.0707,5.0707,5.0707,5.0707,5.0707,5.0707,5.0707,5.0707,5.0707,5.0707,5.0707,5.0707,5.0707,5.0707,5.0707,5.0707,5.0707,5.0707,5.0707,5.0707,5.0707,5.0707,5.0707,5.0707,5.0707,5.0707,5.0707,5.0707,5.0707,5.0784,5.1582,5.1885,5.1981,5.287,5.3722,5.4472,5.4491,5.5011,5.5689,5.5708,5.5708,5.5708,5.5708,5.5708,5.5708,5.5708,5.5708,5.5708,5.5708,5.5708,5.5708,5.5708,5.5708,5.5708,5.5708,5.5708,5.5708,5.5708,5.5708,5.5708,5.5708,5.5708,5.5708,5.5708,5.5708,5.5708,5.5708,5.5708,5.5708,5.5708,5.5708,5.5708,5.5708,5.5708,5.5708,5.5708,5.5708,5.6472,5.8198,5.8275,5.8275,5.8275,5.8275,5.8294,5.8294,5.9108,5.9492,5.9511,6.0377,6.0787,4.4766,4.5644,4.6445,4.7051,4.8066,4.9022,4.9516,5.0178,5.0723,5.0805,5.0752,5.0707,5.0707,5.0707,5.0707,5.0707,5.0707,5.0707,5.0707,5.0707,5.0707,5.0707,5.0707,5.0707,5.0707,5.0707,5.0707,5.0707,5.0707,5.0707,5.0707,5.0707,5.0707,5.0707,5.0707,5.0707,5.0707,5.0707,5.0707,5.0707,5.0707,5.0707,5.0707,5.0707,5.0707,5.0707,5.0707,5.0707,5.0707,5.0707,5.0707,5.0726,5.0957,5.1048,5.1164,5.1986,5.2447,5.2851,5.4068,5.4664,5.4953,5.5516,5.5708,5.5708,5.5708,5.5708,5.5708,5.5708,5.5708,5.5708,5.5708,5.5708,5.5708,5.5708,5.5708,5.5708,5.5708,5.5708,5.5708,5.5708,5.5708,5.5708,5.5708,5.5708,5.5708,5.5708,5.5708,5.5708,5.5708,5.5708,5.5708,5.5708,5.5708,5.5708,5.5708,5.5708,5.5708,5.5708,5.5708,5.5939,5.6453,5.6472,5.6472,5.6472,5.7074,5.7382,5.7382,5.8242,5.866,5.8684,5.9492,5.9896,4.5195,4.5898,4.6504,4.7383,4.822,4.9081,5.0112,5.0699,5.0953,5.0734,5.0707,5.0707,5.0707,5.0707,5.0707,5.0707,5.0707,5.0707,5.0707,5.0707,5.0707,5.0707,5.0707,5.0707,5.0707,5.0707,5.0707,5.0707,5.0707,5.0707,5.0707,5.0707,5.0707,5.0707,5.0707,5.0707,5.0707,5.0707,5.0707,5.0707,5.0707,5.0707,5.0707,5.0707,5.0707,5.0707,5.0707,5.0707,5.0707,5.0707,5.0707,5.0707,5.0707,5.0707,5.0765,5.1241,5.162,5.2038,5.3101,5.3683,5.4126,5.4953,5.5228,5.5285,5.5593,5.5708,5.5708,5.5708,5.5708,5.5708,5.5708,5.5708,5.5708,5.5708,5.5708,5.5708,5.5708,5.5708,5.5708,5.5708,5.5708,5.5708,5.5708,5.5708,5.5708,5.5708,5.5708,5.5708,5.5708,5.5708,5.5708,5.5708,5.5708,5.5708,5.5708,5.5708,5.5708,5.5708,5.5708,5.5708,5.5708,5.5708,5.5708,5.5708,5.6228,5.6478,5.6497,5.7357,5.778,5.78,5.8646,5.9184,4.582,4.6308,4.6523,4.7461,4.8319,4.9243,5.0594,5.0894,5.0847,5.0736,5.0707,5.0707,5.0707,5.0707,5.0707,5.0707,5.0707,5.0707,5.0707,5.0707,5.0707,5.0707,5.0707,5.0707,5.0707,5.0707,5.0707,5.0707,5.0707,5.0707,5.0707,5.0707,5.0707,5.0707,5.0707,5.0707,5.0707,5.0707,5.0707,5.0707,5.0707,5.0707,5.0707,5.0707,5.0707,5.0707,5.0707,5.0707,5.0707,5.0707,5.0707,5.0707,5.0707,5.0707,5.0707,5.0707,5.1164,5.1793,5.1865,5.2428,5.3236,5.4107,5.4376,5.453,5.5343,5.5593,5.5612,5.5689,5.5708,5.5708,5.5708,5.5708,5.5708,5.5708,5.5708,5.5708,5.5708,5.5708,5.5708,5.5708,5.5708,5.5708,5.5708,5.5708,5.5708,5.5708,5.5708,5.5708,5.5708,5.5708,5.5708,5.5708,5.5708,5.5708,5.5708,5.5708,5.5708,5.5708,5.5708,5.5708,5.5708,5.5708,5.5708,5.5708,5.5708,5.5708,5.5708,5.6497,5.6882,5.6901,5.778,5.8569,4.582,4.6308,4.6659,4.8103,4.9447,5.0516,5.0829,5.0822,5.0735,5.0702,5.0707,5.0707,5.0707,5.0707,5.0707,5.0707,5.0707,5.0707,5.0707,5.0707,5.0707,5.0707,5.0707,5.0707,5.0707,5.0707,5.0707,5.0707,5.0707,5.0707,5.0707,5.0707,5.0707,5.0707,5.0707,5.0707,5.0707,5.0707,5.0707,5.0707,5.0707,5.0707,5.0707,5.0707,5.0707,5.0707,5.0707,5.0707,5.0707,5.0707,5.0707,5.0707,5.0707,5.0707,5.0707,5.0707,5.0803,5.1053,5.1678,5.2019,5.2313,5.3197,5.3491,5.3645,5.4491,5.4761,5.4895,5.5516,5.5708,5.5708,5.5708,5.5708,5.5708,5.5708,5.5708,5.5708,5.5708,5.5708,5.5708,5.5708,5.5708,5.5708,5.5708,5.5708,5.5708,5.5708,5.5708,5.5708,5.5708,5.5708,5.5708,5.5708,5.5708,5.5708,5.5708,5.5708,5.5708,5.5708,5.5708,5.5708,5.5708,5.5708,5.5708,5.5708,5.5708,5.5708,5.5708,5.5882,5.5978,5.5997,5.6863,5.7363,4.582,4.6308,4.6677,4.8223,4.9768,5.0882,5.0822,5.0743,5.0707,5.0707,5.0707,5.0707,5.0707,5.0707,5.0707,5.0707,5.0707,5.0707,5.0707,5.0707,5.0707,5.0707,5.0707,5.0707,5.0707,5.0707,5.0707,5.0707,5.0707,5.0707,5.0707,5.0707,5.0707,5.0707,5.0707,5.0707,5.0707,5.0707,5.0707,5.0707,5.0707,5.0707,5.0707,5.0707,5.0707,5.0707,5.0707,5.0707,5.0707,5.0707,5.0707,5.0707,5.0707,5.0707,5.0707,5.0707,5.0707,5.0765,5.1183,5.1337,5.1452,5.2294,5.2582,5.2736,5.3606,5.3876,5.4049,5.4895,5.5131,5.5208,5.5593,5.5708,5.5708,5.5708,5.5708,5.5708,5.5708,5.5708,5.5708,5.5708,5.5708,5.5708,5.5708,5.5708,5.5708,5.5708,5.5708,5.5708,5.5708,5.5708,5.5708,5.5708,5.5708,5.5708,5.5708,5.5708,5.5708,5.5708,5.5708,5.5708,5.5708,5.5708,5.5708,5.5708,5.5708,5.5708,5.5708,5.5708,5.5708,5.5708,5.617,5.6593,4.582,4.6385,4.6776,4.8121,4.9566,5.0658,5.0697,5.0707,5.0707,5.0707,5.0707,5.0707,5.0707,5.0707,5.0707,5.0707,5.0707,5.0707,5.0707,5.0707,5.0707,5.0707,5.0707,5.0707,5.0707,5.0707,5.0707,5.0707,5.0707,5.0707,5.0707,5.0707,5.0707,5.0707,5.0707,5.0707,5.0707,5.0707,5.0707,5.0707,5.0707,5.0707,5.0707,5.0707,5.0707,5.0707,5.0707,5.0707,5.0707,5.0707,5.0707,5.0707,5.0707,5.0707,5.0707,5.0707,5.0707,5.0707,5.0707,5.0707,5.0803,5.1486,5.1697,5.1851,5.2717,5.2986,5.3159,5.403,5.4376,5.4645,5.5324,5.5593,5.5708,5.5708,5.5708,5.5708,5.5708,5.5708,5.5708,5.5708,5.5708,5.5708,5.5708,5.5708,5.5708,5.5708,5.5708,5.5708,5.5708,5.5708,5.5708,5.5708,5.5708,5.5708,5.5708,5.5708,5.5708,5.5708,5.5708,5.5708,5.5708,5.5708,5.5708,5.5708,5.5708,5.5708,5.5708,5.5708,5.5708,5.5708,5.5708,5.6093,4.582,4.6685,4.7287,4.8128,4.8964,4.9783,5.0524,5.0707,5.0707,5.0707,5.0707,5.0707,5.0707,5.0707,5.0707,5.0707,5.0707,5.0707,5.0707,5.0707,5.0707,5.0707,5.0707,5.0707,5.0707,5.0707,5.0707,5.0707,5.0707,5.0707,5.0707,5.0707,5.0707,5.0707,5.0707,5.0707,5.0707,5.0707,5.0707,5.0707,5.0707,5.0707,5.0707,5.0707,5.0707,5.0707,5.0707,5.0707,5.0707,5.0707,5.0707,5.0707,5.0707,5.0707,5.0707,5.0707,5.0707,5.0707,5.0707,5.0707,5.0726,5.0822,5.0861,5.1015,5.1832,5.2077,5.2255,5.3121,5.3914,5.4511,5.4626,5.5189,5.5708,5.5708,5.5708,5.5708,5.5708,5.5708,5.5708,5.5708,5.5708,5.5708,5.5708,5.5708,5.5708,5.5708,5.5708,5.5708,5.5708,5.5708,5.5708,5.5708,5.5708,5.5708,5.5708,5.5708,5.5708,5.5708,5.5708,5.5708,5.5708,5.5708,5.5708,5.5708,5.5708,5.5708,5.5708,5.5708,5.5708,5.5708,5.5708,5.5766,4.5733,4.6684,4.7262,4.7511,4.8498,4.949,4.988,5.0341,5.0707,5.0707,5.0707,5.0707,5.0707,5.0707,5.0707,5.0707,5.0707,5.0707,5.0707,5.0707,5.0707,5.0707,5.0707,5.0707,5.0707,5.0707,5.0707,5.0707,5.0707,5.0707,5.0707,5.0707,5.0707,5.0707,5.0707,5.0707,5.0707,5.0707,5.0707,5.0707,5.0707,5.0707,5.0693,5.0773,5.081,5.081,5.081,5.084,5.0925,5.0925,5.0925,5.0925,5.0925,5.0925,5.0925,5.0925,5.0925,5.0925,5.0925,5.0925,5.0925,5.0925,5.0925,5.0979,5.1344,5.1457,5.1609,5.2361,5.2867,5.3241,5.3661,5.4395,5.503,5.503,5.5381,5.5708,5.5708,5.5708,5.5708,5.5708,5.5708,5.5708,5.5708,5.5708,5.5708,5.5708,5.5708,5.5708,5.5708,5.5708,5.5708,5.5708,5.5708,5.5708,5.5708,5.5708,5.5708,5.5708,5.5708,5.5708,5.5708,5.5708,5.5708,5.5708,5.5708,5.5708,5.5708,5.5708,5.5708,5.5708,5.5708,5.5708,4.5459,4.6305,4.6895,4.6988,4.79,4.8875,4.9298,4.9899,5.0438,5.0649,5.0707,5.0707,5.0707,5.0707,5.0707,5.0707,5.0707,5.0707,5.0707,5.0707,5.0707,5.0707,5.0707,5.0707,5.0707,5.0707,5.0707,5.0707,5.0707,5.0707,5.0707,5.0707,5.0707,5.0707,5.0707,5.0707,5.0707,5.0707,5.0707,5.0707,5.0707,5.0721,5.0752,5.0859,5.0923,5.0984,5.0959,5.101,5.1091,5.1091,5.1091,5.1091,5.1091,5.1091,5.1091,5.1091,5.1091,5.1091,5.1091,5.1091,5.1091,5.1091,5.1091,5.1091,5.1091,5.1091,5.12,5.1656,5.195,5.2229,5.2748,5.353,5.4164,5.4164,5.4626,5.5184,5.5612,5.5708,5.5708,5.5708,5.5708,5.5708,5.5708,5.5708,5.5708,5.5708,5.5708,5.5708,5.5708,5.5708,5.5708,5.5708,5.5708,5.5708,5.5708,5.5708,5.5708,5.5708,5.5708,5.5708,5.5708,5.5708,5.5708,5.5708,5.5708,5.5708,5.5708,5.5708,5.5708,5.5708,5.5708,5.5708,4.4872,4.541,4.612,4.6836,4.7012,4.7447,4.9048,4.9433,4.9707,5.0534,5.0707,5.0707,5.0707,5.0707,5.0707,5.0707,5.0707,5.0707,5.0707,5.0707,5.0707,5.0707,5.0707,5.0707,5.0707,5.0707,5.0707,5.0707,5.0707,5.0707,5.0707,5.0707,5.0707,5.0707,5.0707,5.0707,5.0707,5.0707,5.0707,5.0707,5.0707,5.0775,5.0894,5.0905,5.0992,5.1188,5.1116,5.1084,5.1091,5.1091,5.1091,5.1091,5.1091,5.1091,5.1091,5.1091,5.1091,5.1091,5.1091,5.1091,5.1091,5.1091,5.1091,5.1091,5.1091,5.1091,5.1083,5.0981,5.1505,5.2074,5.1992,5.2601,5.3274,5.3274,5.3294,5.378,5.5362,5.5708,5.5708,5.5708,5.5708,5.5708,5.5708,5.5708,5.5708,5.5708,5.5708,5.5708,5.5708,5.5708,5.5708,5.5708,5.5708,5.5708,5.5708,5.5708,5.5708,5.5708,5.5708,5.5708,5.5708,5.5708,5.5708,5.5708,5.5708,5.5708,5.5708,5.5708,5.5708,5.5708,5.5708,5.5708,4.4521,4.4997,4.5351,4.6056,4.6589,4.7117,4.7676,4.8625,4.949,4.9803,5.0303,5.0707,5.0707,5.0707,5.0707,5.0707,5.0707,5.0707,5.0707,5.0707,5.0707,5.0707,5.0707,5.0707,5.0707,5.0707,5.0707,5.0707,5.0707,5.0707,5.0707,5.0707,5.0707,5.0707,5.0707,5.0707,5.0707,5.0707,5.0707,5.0707,5.0707,5.0736,5.0773,5.0959,5.1074,5.1143,5.1241,5.1283,5.1283,5.1283,5.1283,5.1283,5.1283,5.1283,5.1283,5.1283,5.1283,5.1283,5.1283,5.1283,5.1283,5.1283,5.1283,5.1283,5.1283,5.1283,5.1264,5.1084,5.1247,5.1419,5.1196,5.1736,5.2505,5.3063,5.3197,5.3351,5.3972,5.4934,5.5708,5.5708,5.5708,5.5708,5.5708,5.5708,5.5708,5.5708,5.5708,5.5708,5.5708,5.5708,5.5708,5.5708,5.5708,5.5708,5.5708,5.5708,5.5708,5.5708,5.5708,5.5708,5.5708,5.5708,5.5708,5.5708,5.5708,5.5708,5.5708,5.5708,5.5708,5.5708,5.5708,5.5708,4.4069,4.4618,4.4973,4.5725,4.6246,4.6665,4.6881,4.7775,4.8721,4.9279,4.9861,5.0341,5.0649,5.0707,5.0707,5.0707,5.0707,5.0707,5.0707,5.0707,5.0707,5.0707,5.0707,5.0707,5.0707,5.0707,5.0707,5.0707,5.0707,0.0,5.0707,5.0707,5.0707,5.0707,5.0707,5.0707,5.0707,5.0707,5.0707,5.0707,5.0707,5.0716,5.0769,5.1,5.1115,5.1145,5.1316,5.1406,5.1406,5.1406,5.1406,5.1406,5.1406,5.1406,5.1406,5.1406,5.1406,5.1406,5.1406,5.1406,5.1406,5.1406,5.1406,5.1406,5.1406,5.1406,5.1364,5.118,5.1135,5.1089,5.0897,5.1194,5.1707,5.2222,5.2568,5.2755,5.2755,5.4107,5.5304,5.5304,5.5516,5.5708,5.5708,5.5708,5.5708,5.5708,5.5708,5.5708,5.5708,5.5708,5.5708,5.5708,5.5708,5.5708,5.5708,5.5708,5.5708,5.5708,5.5708,5.5708,5.5708,5.5708,5.5708,5.5708,5.5708,5.5708,5.5708,5.5708,5.5708,5.5708,5.5708,5.5708,0.0,0.0,0.0,4.5835,4.5923,4.6003,4.6793,4.6935,4.736,4.899,4.9356,4.963,5.0495,5.0649,5.0668,5.0707,5.0707,5.0707,5.0707,5.0707,5.0707,5.0707,5.0707,5.0707,5.0707,5.0707,5.0707,5.0707,5.0707,5.0707,5.0707,5.0707,5.0707,5.0707,5.0707,5.0707,5.0707,5.0707,5.0707,5.0707,5.0707,5.0775,5.0908,5.102,5.1135,5.1204,5.1343,5.1406,5.1406,5.1406,5.1406,5.1406,5.1406,5.1406,5.1406,5.1406,5.1406,5.1406,5.1406,5.1406,5.1406,5.1406,5.1406,5.1406,5.1406,5.1406,5.1366,5.1238,5.1202,5.1187,5.1124,5.1004,5.0879,5.074,5.1303,5.1865,5.1865,5.3217,5.4434,5.4453,5.5107,5.567,5.567,5.5689,5.5708,5.5708,5.5708,5.5708,5.5708,5.5708,5.5708,5.5708,5.5708,5.5708,5.5708,5.5708,5.5708,5.5708,5.5708,5.5708,5.5708,5.5708,5.5708,5.5708,5.5708,5.5708,5.5708,5.5708,5.5708,5.5708,5.5708,5.5708,4.2539,0.0,0.0,0.0,0.0,0.0,4.6102,4.6561,4.7098,4.7502,4.8043,4.8721,4.961,4.9764,4.9976,5.0592,5.0707,5.0707,5.0707,5.0707,5.0707,5.0707,5.0707,5.0707,5.0707,5.0707,5.0707,0.0,5.0707,5.0707,5.0707,5.0707,5.0707,5.0707,5.0707,5.0707,5.0707,5.0707,5.0707,5.0707,5.0707,5.0726,5.0761,5.0882,5.1017,5.113,5.1219,5.1319,5.1406,5.1406,5.1406,5.1406,5.1406,5.1406,5.1406,5.1406,5.1406,5.1406,5.1406,5.1406,5.1406,5.1406,5.1406,5.1406,5.1406,5.1406,5.1366,5.1238,5.1202,5.1187,5.1124,5.1004,5.0894,5.0859,5.0934,5.1034,5.1034,5.1875,5.2813,5.3433,5.4241,5.4818,5.4818,5.5304,5.5708,5.5708,5.5708,5.5708,5.5708,5.5708,5.5708,5.5708,5.5708,5.5708,5.5708,5.5708,5.5708,5.5708,5.5708,5.5708,5.5708,5.5708,5.5708,5.5708,5.5708,5.5708,5.5708,5.5708,5.5708,5.5708,5.5708,5.5708,4.2187,4.3047,4.3886,4.4696,0.0,0.0,4.5876,4.6173,4.6589,4.6842,4.7274,4.7851,4.8702,4.8856,4.9144,5.0014,5.0168,5.0284,5.0649,5.0707,5.0707,5.0707,5.0707,5.0707,5.0707,5.0707,5.0707,5.0707,5.0707,5.0707,5.0707,5.0707,5.0707,5.0707,5.0707,5.0707,5.0707,5.0707,5.0707,5.0707,5.0707,5.0707,5.0697,5.0835,5.0969,5.1099,5.1169,5.1271,5.1406,5.1406,5.1406,5.1406,5.1406,5.1406,5.1406,5.1406,5.1406,5.1406,5.1406,5.1406,5.1406,5.1406,5.1406,5.1406,5.1406,5.1406,5.1386,5.1318,5.1273,5.1263,5.1172,5.1078,5.0992,5.0928,5.084,5.0775,5.0712,5.1068,5.164,5.2486,5.3351,5.3953,5.3953,5.4645,5.5208,5.5208,5.5497,5.5708,5.5708,5.5708,5.5708,5.5708,5.5708,5.5708,5.5708,5.5708,5.5708,5.5708,5.5708,5.5708,5.5708,5.5708,5.5708,5.5708,5.5708,5.5708,5.5708,5.5708,5.5708,5.5708,5.5708,5.5708,4.207,4.2969,4.3887,4.4668,4.5499,0.0,4.5944,4.5874,4.6012,4.6653,4.6775,4.7017,4.7817,4.7966,4.8255,4.9125,4.9336,4.9707,5.0572,5.0707,5.0707,5.0707,5.0707,5.0707,5.0707,5.0707,5.0707,5.0707,5.0707,5.0707,5.0707,5.0707,5.0707,5.0707,5.0707,5.0707,5.0707,5.0707,5.0707,5.0707,5.0707,5.0707,5.0697,5.0811,5.095,5.1099,5.1159,5.1267,5.1406,5.1406,5.1406,5.1406,5.1406,5.1406,5.1406,5.1406,5.1406,5.1406,5.1406,5.1406,5.1406,5.1406,5.1406,5.1406,5.1406,5.1406,5.1406,5.1406,5.1406,5.1366,5.1244,5.1208,5.1146,5.0962,5.0903,5.0856,5.0726,5.0707,5.0919,5.162,5.2467,5.3063,5.3063,5.378,5.4395,5.4491,5.5112,5.5593,5.5689,5.5708,5.5708,5.5708,5.5708,5.5708,5.5708,5.5708,5.5708,5.5708,5.5708,5.5708,5.5708,5.5708,5.5708,5.5708,5.5708,5.5708,5.5708,5.5708,5.5708,5.5708,5.5708,5.5708,4.1387,4.2539,4.373,4.3906,4.5117,0.0,4.6085,4.604,4.6041,4.6025,4.6016,4.6236,4.7002,4.7139,4.7408,4.8216,4.8933,4.9707,5.0572,5.0707,5.0707,5.0707,5.0707,5.0707,5.0707,5.0707,5.0707,5.0707,5.0707,5.0707,5.0707,5.0707,5.0707,5.0707,5.0707,5.0707,5.0707,5.0707,5.0707,5.0707,5.0707,5.0707,5.0693,5.0721,5.0867,5.1094,5.1117,5.1227,5.1406,5.1406,5.1406,5.1406,5.1406,5.1406,5.1406,5.1406,5.1406,5.1406,5.1406,5.1406,5.1406,5.1406,5.1406,5.1406,5.1406,5.1406,5.1406,5.1406,5.1406,5.1387,5.1366,5.1272,5.1181,5.1072,5.0975,5.0856,5.0726,5.0707,5.0745,5.0899,5.1587,5.2159,5.2159,5.287,5.3683,5.4395,5.4626,5.4972,5.5612,5.5708,5.5708,5.5708,5.5708,5.5708,5.5708,5.5708,5.5708,5.5708,5.5708,5.5708,5.5708,5.5708,5.5708,5.5708,5.5708,5.5708,5.5708,5.5708,5.5708,5.5708,5.5708,5.5708,4.2441,4.3379,4.4355,4.4355,4.5332,0.0,0.0,4.6109,4.6042,4.5884,4.582,4.5905,4.6287,4.6298,4.6528,4.737,4.787,4.8452,4.9279,5.0149,5.0707,5.0707,5.0707,5.0707,5.0707,5.0707,5.0707,5.0707,5.0707,5.0707,5.0707,5.0707,5.0707,5.0707,5.0707,5.0707,5.0707,5.0707,5.0707,5.0707,5.0707,5.0707,5.0693,5.0779,5.0903,5.1094,5.1137,5.1247,5.1406,5.1406,5.1406,5.1406,5.1406,5.1406,5.1406,5.1406,5.1406,5.1406,5.1406,5.1406,5.1406,5.1406,5.1406,5.1406,5.1406,5.1406,5.1406,5.1406,5.1406,5.1406,5.1406,5.1344,5.1261,5.1135,5.1059,5.0933,5.073,5.0707,5.0707,5.0707,5.1034,5.1298,5.1298,5.2005,5.2697,5.314,5.3568,5.4145,5.4991,5.5112,5.5266,5.567,5.5708,5.5708,5.5708,5.5708,5.5708,5.5708,5.5708,5.5708,5.5708,5.5708,5.5708,5.5708,5.5708,5.5708,5.5708,5.5708,5.5708,5.5708,5.5708,5.5708,4.3691,4.4336,4.5,0.0,4.5664,4.6269,0.0,0.0,0.0,4.5972,4.5896,4.5847,4.5814,4.5722,4.5808,4.6339,4.6709,4.7062,4.7548,4.9106,5.0265,5.0438,5.0592,5.0707,5.0707,5.0707,5.0707,5.0707,5.0707,5.0707,5.0707,5.0707,5.0707,5.0707,5.0707,5.0707,5.0707,5.0707,5.0707,5.0707,5.0707,5.0717,5.0749,5.0855,5.0988,5.1114,5.1177,5.1271,5.1406,5.1406,5.1406,5.1406,5.1406,5.1406,5.1406,5.1406,5.1406,5.1406,5.1406,5.1406,5.1406,5.1406,5.1406,5.1406,5.1406,5.1406,5.1406,5.1406,5.1406,5.1406,5.1406,5.1406,5.1343,5.1156,5.111,5.1022,5.0795,5.0726,5.0707,5.0707,5.0707,5.0707,5.0707,5.1241,5.1717,5.1885,5.2505,5.3255,5.4145,5.4395,5.4741,5.5401,5.5612,5.5708,5.5708,5.5708,5.5708,5.5708,5.5708,5.5708,5.5708,5.5708,5.5708,5.5708,5.5708,5.5708,5.5708,5.5708,5.5708,5.5708,5.5708,5.5708,4.3691,4.4336,0.0,0.0,4.5664,4.6308,4.6289,0.0,4.6246,4.6091,0.0,4.6027,4.5918,0.0,0.0,4.4879,4.5962,4.6658,4.5975,4.7336,4.8682,4.9452,5.0226,5.0707,5.0707,5.0707,5.0707,5.0707,5.0707,5.0707,5.0707,5.0707,5.0707,5.0707,5.0707,5.0707,5.0707,5.0707,5.0707,5.0707,5.0707,5.0766,5.0875,5.0897,5.1011,5.1191,5.12,5.1271,5.1406,5.1406,5.1406,5.1406,5.1406,5.1406,5.1406,5.1406,5.1406,5.1406,5.1406,5.1406,5.1406,5.1406,5.1406,5.1406,5.1406,5.1406,5.1406,5.1406,5.1406,5.1406,5.1406,5.1406,5.1365,5.1228,5.115,5.107,5.0903,5.0782,5.0707,5.0707,5.0707,5.0707,5.0707,5.0784,5.1087,5.1793,5.1981,5.237,5.3236,5.401,5.453,5.4626,5.5266,5.5708,5.5708,5.5708,5.5708,5.5708,5.5708,5.5708,5.5708,5.5708,5.5708,5.5708,5.5708,5.5708,5.5708,5.5708,5.5708,5.5708,5.5708,5.5708,4.5215,0.0,0.0,0.0,0.0,0.0,4.6308,0.0,4.6289,4.6225,0.0,0.0,0.0,0.0,0.0,0.0,4.588,4.6183,4.5838,4.682,4.8035,4.9254,4.9726,0.0,5.0649,5.0707,5.0707,5.0707,5.0707,5.0707,5.0707,5.0707,5.0707,5.0707,5.0707,5.0707,5.0707,5.0707,5.0707,5.0707,5.0707,5.0779,5.0893,5.0979,5.1074,5.1205,5.1273,5.1344,5.1406,5.1406,5.1406,5.1406,5.1406,5.1406,5.1406,5.1406,5.1406,5.1406,5.1406,5.1406,5.1406,5.1406,5.1406,5.1406,5.1406,5.1406,5.1406,5.1406,5.1406,5.1406,5.1406,5.1406,5.1366,5.1236,5.118,5.1107,5.0933,5.0863,5.0799,5.0717,5.0707,5.0707,5.0707,5.0707,5.0803,5.1144,5.1202,5.151,5.2332,5.2774,5.3197,5.3683,5.4491,5.4991,5.4991,5.5439,5.5708,5.5708,5.5708,5.5708,5.5708,5.5708,5.5708,5.5708,5.5708,5.5708,5.5708,5.5708,5.5708,5.5708,5.5708,5.5708,4.6308,0.0,0.0,0.0,0.0,0.0,0.0,0.0,0.0,0.0,4.6224,0.0,0.0,0.0,4.5887,4.5655,0.0,4.5823,4.5592,4.6307,4.7337,4.8647,4.9214,0.0,0.0,5.0651,5.0773,5.0702,5.0735,5.0744,5.0693,5.0707,5.0707,5.0707,5.0707,5.0707,5.0707,5.0707,5.0726,5.0752,5.0752,5.0824,5.098,5.1084,5.1179,5.1266,5.1365,5.1406,5.1406,5.1406,5.1406,5.1406,5.1406,5.1406,5.1406,5.1406,5.1406,5.1406,5.1406,5.1406,5.1406,5.1406,5.1406,5.1406,5.1406,5.1406,5.1406,5.1406,5.1406,5.1406,5.1406,5.1406,5.1386,5.1271,5.1234,5.1148,5.099,5.0925,5.0867,5.074,5.0707,5.0707,5.0707,5.0707,5.0707,5.0707,5.0707,5.0919,5.1505,5.1755,5.214,5.2774,5.3626,5.4145,5.4145,5.4684,5.5126,5.5362,5.5574,5.5708,5.5708,5.5708,5.5708,5.5708,5.5708,5.5708,5.5708,5.5708,5.5708,5.5708,5.5708,5.5708,0.0,0.0,0.0,4.6308,0.0,0.0,0.0,0.0,4.6308,0.0,0.0,0.0,4.6289,4.6177,4.5834,4.5058,4.5482,0.0,0.0,4.5436,4.6264,4.7167,4.8757,4.9748,0.0,5.0524,5.0975,5.0726,5.0826,5.0831,5.0702,5.0707,5.0707,5.0707,5.0707,5.0707,5.0707,5.0707,5.077,5.0897,5.0897,5.1003,5.1196,5.1199,5.1268,5.1387,5.1406,5.1406,5.1406,5.1406,5.1406,5.1406,5.1406,5.1406,5.1406,5.1406,5.1406,5.1406,5.1406,5.1406,5.1406,5.1406,5.1406,5.1406,5.1406,5.1406,5.1406,5.1406,5.1406,5.1406,5.1406,5.1406,5.1406,5.1387,5.1296,5.1183,5.1115,5.0991,5.0867,5.074,5.0707,5.0707,5.0707,5.0707,5.0707,5.0707,5.0707,5.0707,5.0745,5.1414,5.1904,5.1942,5.2717,5.3236,5.3236,5.3274,5.3645,5.4491,5.5266,5.5708,5.5708,5.5708,5.5708,5.5708,5.5708,5.5708,5.5708,5.5708,5.5708,5.5708,5.5708,5.5708,0.0,0.0,4.6308,4.6308,0.0,0.0,0.0,0.0,0.0,0.0,0.0,0.0,0.0,4.6268,4.6148,4.5875,4.6024,4.6074,0.0,4.5996,4.6269,4.656,4.7995,4.915,4.9671,4.9953,5.0301,5.0797,5.0799,5.0758,5.0693,5.0707,5.0707,5.0707,5.0707,5.0749,5.0823,5.0823,5.0908,5.102,5.102,5.11,5.1202,5.1202,5.127,5.1406,5.1406,5.1406,5.1406,5.1406,5.1406,5.1406,5.1406,5.1406,5.1406,5.1406,5.1406,5.1406,5.1406,5.1406,5.1406,5.1406,5.1406,5.1406,5.1406,5.1406,5.1406,5.1406,5.1406,5.1406,5.1406,5.1406,5.1406,5.1406,5.1366,5.1296,5.1181,5.11,5.0994,5.0867,5.0761,5.0707,5.0707,5.0707,5.0707,5.0707,5.0707,5.0707,5.0707,5.0938,5.1106,5.1106,5.1851,5.2332,5.2332,5.287,5.3332,5.3626,5.3895,5.4049,5.4049,5.4607,5.4914,5.4914,5.5439,5.5708,5.5708,5.5708,5.5708,5.5708,5.5708,5.5708,4.6387,4.6308,0.0,4.6308,4.6308,0.0,4.6308,0.0,4.6308,0.0,0.0,0.0,0.0,4.6308,4.6308,4.6308,4.6308,4.6308,0.0,4.6308,4.6308,4.6308,4.7411,4.8376,4.8908,4.9463,5.0008,5.0465,5.0745,5.0862,5.0844,5.084,5.084,5.084,5.084,5.0886,5.0966,5.0966,5.1028,5.1137,5.1137,5.1189,5.1269,5.1269,5.132,5.1406,5.1406,5.1406,5.1406,5.1406,5.1406,5.1406,5.1406,5.1406,5.1406,5.1406,5.1406,5.1406,5.1406,5.1406,5.1406,5.1406,5.1406,5.1406,5.1406,5.1406,5.1465,5.1777,5.1641,5.1465,5.1777,5.1621,5.1406,5.1406,5.1406,5.1366,5.1235,5.1156,5.105,5.0925,5.0795,5.0707,5.0707,5.0707,5.0707,5.0707,5.0707,5.0707,5.0707,5.0707,5.0707,5.0707,5.1164,5.1467,5.1467,5.2255,5.2736,5.2736,5.3024,5.3197,5.3197,5.3741,5.4049,5.4049,5.4549,5.4818,5.4818,5.5126,5.5266,5.5285,5.5574,5.5708]}]]